[[{"header":{"parameterUnit":"m.s-1","parameterCategory":1,"la1":31.0,"la2":29.5877,"lo1":-88.7671,"lo2":-86.6584,"dy":0.0162,"dx":0.0185,"nx":115,"ny":88,"refTime":"2024-05-10T12:00:00:Z","depth":0,"parameterNumber":2,"parameterNumberName":"U-component_of_WINDS"},"data":[0.0,0.0,0.0,0.0,0.0,0.0,0.0,0.0,0.0,0.0,0.0,0.0,0.0,0.0,0.0,0.0,0.0,0.0,0.0,0.0,0.0,0.0,0.0,0.0,0.0,0.0,0.0,0.0,0.0,0.0,0.0,0.0,0.0,0.0,0.0,0.0,0.0,0.0,0.0,0.0,0.0,0.0,0.0,0.0,0.0,0.0,0.0,0.0,0.0,0.0,0.0,0.0,0.0,0.0,0.0,0.0,0.0,0.0,0.0,0.0,0.0,0.0,0.0,0.0,0.0,0.0,0.0,0.0,0.0,0.0,0.0,0.0,0.0,0.0,0.0,0.0,0.0,0.0,0.0,0.0,0.0,0.0,0.0,0.0,0.0,0.0,0.0,0.0,0.0,0.0,0.0,0.0,0.0,0.0,0.0,0.0,0.0,0.0,0.0,0.0,0.0,0.0,0.0,0.0,0.0,0.0,0.0,0.0,0.0,0.0,0.0,0.0,0.0,0.0,0.0,0.0,0.0,0.0,0.0,0.0,0.0,0.0,0.0,0.0,0.0,0.0,0.0,0.0,0.0,0.0,0.0,0.0,0.0,0.0,0.0,0.0,0.0,0.0,0.0,0.0,0.0,0.0,0.0,0.0,0.0,0.0,0.0,0.0,0.0,0.0,0.0,0.0,0.0,0.0,0.0,0.0,0.0,0.0,0.0,0.0,0.0,0.0,0.0,0.0,0.0,0.0,0.0,0.0,0.0,0.0,0.0,0.0,0.0,0.0,0.0,0.0,0.0,0.0,0.0,0.0,0.0,0.0,0.0,0.0,0.0,0.0,0.0,0.0,0.0,0.0,0.0,0.0,0.0,0.0,0.0,0.0,0.0,0.0,0.0,0.0,0.0,0.0,0.0,0.0,0.0,0.0,0.0,0.0,0.0,0.0,0.0,0.0,0.0,0.0,0.0,0.0,0.0,0.0,0.0,0.0,0.0,0.0,0.0,0.0,0.0,0.0,0.0,0.0,0.0,0.0,0.0,0.0,0.0,0.0,0.0,0.0,0.0,0.0,0.0,0.0,0.0,0.0,0.0,0.0,0.0,0.0,0.0,0.0,0.0,0.0,0.0,0.0,0.0,0.0,0.0,0.0,0.0,0.0,0.0,0.0,0.0,0.0,0.0,0.0,0.0,0.0,0.0,0.0,0.0,0.0,0.0,0.0,0.0,0.0,0.0,0.0,0.0,0.0,0.0,0.0,0.0,0.0,0.0,0.0,0.0,0.0,0.0,0.0,0.0,0.0,0.0,0.0,0.0,0.0,0.0,0.0,0.0,0.0,0.0,0.0,0.0,0.0,0.0,0.0,0.0,0.0,0.0,0.0,0.0,0.0,0.0,0.0,0.0,0.0,0.0,0.0,0.0,0.0,0.0,0.0,0.0,0.0,0.0,0.0,0.0,0.0,0.0,0.0,0.0,0.0,0.0,0.0,0.0,0.0,0.0,0.0,0.0,0.0,0.0,0.0,0.0,0.0,0.0,0.0,0.0,0.0,0.0,0.0,0.0,0.0,0.0,0.0,0.0,0.0,0.0,0.0,0.0,0.0,0.0,0.0,0.0,0.0,0.0,0.0,0.0,0.0,0.0,0.0,0.0,0.0,0.0,0.0,0.0,0.0,0.0,0.0,0.0,0.0,0.0,0.0,0.0,0.0,0.0,0.0,0.0,0.0,0.0,0.0,0.0,0.0,0.0,0.0,0.0,0.0,0.0,0.0,0.0,0.0,0.0,0.0,0.0,0.0,0.0,0.0,0.0,0.0,0.0,0.0,0.0,0.0,0.0,0.0,0.0,0.0,0.0,0.0,0.0,0.0,0.0,0.0,0.0,0.0,0.0,0.0,0.0,0.0,0.0,0.0,0.0,0.0,0.0,0.0,0.0,0.0,0.0,0.0,0.0,0.0,0.0,0.0,0.0,0.0,0.0,0.0,0.0,0.0,0.0,0.0,0.0,0.0,0.0,0.0,0.0,0.0,0.0,0.0,0.0,0.0,0.0,0.0,0.0,0.0,0.0,0.0,0.0,0.0,0.0,0.0,0.0,0.0,0.0,0.0,0.0,0.0,0.0,0.0,0.0,0.0,0.0,0.0,0.0,0.0,0.0,0.0,0.0,0.0,0.0,0.0,0.0,0.0,0.0,0.0,0.0,0.0,0.0,0.0,0.0,0.0,0.0,0.0,0.0,0.0,0.0,0.0,0.0,0.0,0.0,0.0,0.0,0.0,0.0,0.0,0.0,0.0,0.0,0.0,0.0,0.0,0.0,0.0,0.0,0.0,0.0,0.0,0.0,0.0,0.0,0.0,0.0,0.0,0.0,0.0,0.0,0.0,0.0,0.0,0.0,0.0,0.0,0.0,0.0,0.0,0.0,0.0,0.0,0.0,0.0,0.0,0.0,0.0,0.0,0.0,0.0,0.0,0.0,0.0,0.0,0.0,0.0,0.0,0.0,0.0,0.0,0.0,0.0,0.0,0.0,0.0,0.0,0.0,0.0,0.0,0.0,0.0,0.0,0.0,0.0,0.0,0.0,0.0,0.0,0.0,0.0,0.0,0.0,0.0,0.0,0.0,0.0,0.0,0.0,0.0,0.0,0.0,0.0,0.0,0.0,0.0,0.0,0.0,0.0,0.0,0.0,0.0,0.0,0.0,0.0,0.0,0.0,0.0,0.0,0.0,0.0,0.0,0.0,0.0,0.0,0.0,0.0,0.0,0.0,0.0,0.0,0.0,0.0,0.0,0.0,0.0,0.0,0.0,0.0,0.0,0.0,0.0,0.0,0.0,0.0,0.0,0.0,0.0,0.0,0.0,0.0,0.0,0.0,0.0,0.0,0.0,0.0,0.0,0.0,0.0,0.0,0.0,0.0,0.0,0.0,0.0,0.0,0.0,0.0,0.0,0.0,0.0,0.0,0.0,0.0,0.0,0.0,0.0,0.0,0.0,0.0,0.0,0.0,0.0,0.0,0.0,0.0,0.0,0.0,0.0,0.0,0.0,0.0,0.0,0.0,0.0,0.0,0.0,0.0,0.0,0.0,0.0,0.0,0.0,0.0,0.0,0.0,0.0,0.0,0.0,0.0,0.0,0.0,0.0,0.0,0.0,0.0,0.0,0.0,0.0,0.0,0.0,0.0,0.0,0.0,0.0,0.0,0.0,0.0,0.0,0.0,0.0,0.0,0.0,0.0,0.0,0.0,0.0,0.0,0.0,0.0,0.0,0.0,0.0,0.0,0.0,0.0,0.0,0.0,0.0,0.0,0.0,0.0,0.0,0.0,0.0,0.0,0.0,0.0,0.0,0.0,0.0,0.0,0.0,0.0,0.0,0.0,0.0,0.0,0.0,0.0,0.0,0.0,0.0,0.0,0.0,0.0,0.0,0.0,0.0,0.0,0.0,0.0,0.0,0.0,0.0,0.0,0.0,0.0,0.0,0.0,0.0,0.0,0.0,0.0,0.0,0.0,0.0,0.0,0.0,0.0,0.0,0.0,0.0,0.0,0.0,0.0,0.0,0.0,0.0,0.0,0.0,0.0,0.0,0.0,0.0,0.0,0.0,0.0,0.0,0.0,0.0,0.0,0.0,0.0,0.0,0.0,0.0,0.0,0.0,0.0,0.0,0.0,0.0,0.0,0.0,0.0,0.0,0.0,0.0,0.0,0.0,0.0,0.0,0.0,0.0,0.0,0.0,0.0,0.0,0.0,0.0,0.0,0.0,0.0,0.0,0.0,0.0,0.0,0.0,0.0,0.0,0.0,0.0,0.0,0.0,0.0,0.0,0.0,0.0,0.0,0.0,0.0,0.0,0.0,0.0,0.0,0.0,0.0,0.0,0.0,0.0,0.0,0.0,0.0,0.0,0.0,0.0,0.0,0.0,0.0,0.0,0.0,0.0,0.0,0.0,0.0,0.0,0.0,0.0,0.0,0.0,0.0,0.0,0.0,0.0,0.0,0.0,0.0,0.0,0.0,0.0,0.0,0.0,0.0,0.0,0.0,0.0,0.0,0.0,0.0,0.0,0.0,0.0,0.0,0.0,0.0,0.0,0.0,0.0,0.0,0.0,0.0,0.0,0.0,0.0,0.0,0.0,0.0,0.0,0.0,0.0,0.0,0.0,0.0,0.0,0.0,0.0,0.0,0.0,0.0,0.0,0.0,0.0,0.0,0.0,0.0,0.0,0.0,0.0,0.0,0.0,0.0,0.0,0.0,0.0,0.0,0.0,0.0,0.0,0.0,0.0,0.0,0.0,-2.3595,0.0,0.0,0.0,0.0,0.0,0.0,0.0,0.0,0.0,0.0,0.0,0.0,0.0,0.0,0.0,0.0,0.0,0.0,0.0,0.0,0.0,0.0,0.0,0.0,0.0,0.0,0.0,0.0,0.0,0.0,0.0,0.0,0.0,0.0,0.0,0.0,0.0,0.0,0.0,0.0,0.0,0.0,0.0,0.0,0.0,0.0,0.0,0.0,0.0,0.0,0.0,0.0,0.0,0.0,0.0,0.0,0.0,0.0,0.0,0.0,0.0,0.0,0.0,0.0,0.0,0.0,0.0,0.0,0.0,0.0,0.0,0.0,0.0,0.0,0.0,0.0,0.0,0.0,0.0,0.0,0.0,0.0,0.0,0.0,0.0,0.0,0.0,0.0,0.0,0.0,0.0,0.0,0.0,0.0,0.0,0.0,0.0,0.0,0.0,0.0,0.0,0.0,0.0,0.0,0.0,0.0,0.0,0.0,0.0,0.0,-2.3595,-2.3595,-2.3595,-2.3595,-2.3595,0.0,0.0,0.0,0.0,0.0,0.0,0.0,0.0,0.0,0.0,0.0,0.0,0.0,0.0,0.0,0.0,0.0,0.0,0.0,0.0,0.0,0.0,0.0,0.0,0.0,0.0,0.0,0.0,0.0,0.0,0.0,0.0,0.0,0.0,0.0,0.0,0.0,0.0,0.0,0.0,0.0,0.0,0.0,0.0,0.0,0.0,0.0,0.0,0.0,0.0,0.0,0.0,0.0,0.0,0.0,0.0,0.0,0.0,0.0,0.0,0.0,0.0,0.0,0.0,0.0,0.0,0.0,0.0,0.0,0.0,0.0,0.0,0.0,0.0,0.0,0.0,0.0,0.0,0.0,0.0,0.0,0.0,0.0,0.0,0.0,0.0,0.0,0.0,0.0,0.0,0.0,0.0,0.0,0.0,0.0,0.0,0.0,0.0,0.0,0.0,0.0,0.0,0.0,0.0,0.0,0.0,0.0,0.0,0.0,0.0,0.0,0.0,-2.3595,-2.3595,-2.3595,0.0,0.0,0.0,0.0,0.0,0.0,0.0,0.0,0.0,0.0,0.0,0.0,0.0,0.0,0.0,0.0,0.0,0.0,0.0,0.0,0.0,0.0,0.0,0.0,0.0,0.0,0.0,0.0,0.0,0.0,0.0,0.0,0.0,0.0,0.0,0.0,0.0,0.0,0.0,0.0,0.0,0.0,0.0,0.0,0.0,0.0,0.0,0.0,0.0,0.0,0.0,0.0,0.0,0.0,0.0,0.0,0.0,0.0,0.0,0.0,0.0,0.0,0.0,0.0,0.0,0.0,0.0,0.0,0.0,0.0,0.0,0.0,0.0,0.0,0.0,0.0,0.0,0.0,0.0,0.0,0.0,0.0,0.0,0.0,0.0,0.0,0.0,0.0,0.0,0.0,0.0,0.0,0.0,0.0,0.0,0.0,0.0,0.0,0.0,0.0,0.0,0.0,0.0,0.0,0.0,0.0,0.0,0.0,0.0,0.0,-2.3595,-2.3595,-2.3595,0.0,-2.3595,0.0,0.0,0.0,0.0,0.0,0.0,0.0,0.0,0.0,0.0,0.0,0.0,0.0,0.0,0.0,0.0,0.0,0.0,0.0,0.0,0.0,0.0,0.0,0.0,0.0,0.0,0.0,0.0,0.0,0.0,0.0,0.0,0.0,0.0,0.0,0.0,0.0,0.0,0.0,0.0,0.0,0.0,0.0,0.0,0.0,0.0,0.0,0.0,0.0,0.0,0.0,0.0,0.0,0.0,0.0,0.0,0.0,0.0,0.0,0.0,0.0,0.0,0.0,0.0,0.0,0.0,0.0,0.0,0.0,0.0,0.0,0.0,0.0,0.0,0.0,0.0,0.0,0.0,0.0,0.0,0.0,0.0,0.0,0.0,0.0,0.0,0.0,0.0,0.0,0.0,0.0,0.0,0.0,0.0,0.0,0.0,0.0,0.0,0.0,0.0,0.0,0.0,0.0,0.0,0.0,0.0,0.0,0.0,0.0,0.0,-2.3595,-2.3595,-2.3595,-2.3595,0.0,0.0,0.0,0.0,0.0,0.0,0.0,0.0,0.0,0.0,0.0,0.0,0.0,0.0,0.0,0.0,0.0,0.0,0.0,0.0,0.0,0.0,0.0,0.0,0.0,0.0,0.0,0.0,0.0,0.0,0.0,0.0,0.0,0.0,0.0,0.0,0.0,0.0,0.0,0.0,0.0,0.0,0.0,0.0,0.0,0.0,0.0,0.0,0.0,0.0,0.0,0.0,0.0,0.0,0.0,0.0,0.0,0.0,0.0,0.0,0.0,0.0,0.0,0.0,0.0,0.0,0.0,0.0,0.0,0.0,0.0,0.0,0.0,0.0,0.0,0.0,0.0,0.0,0.0,0.0,0.0,0.0,0.0,0.0,0.0,0.0,0.0,0.0,0.0,0.0,0.0,0.0,0.0,0.0,0.0,0.0,0.0,0.0,0.0,0.0,0.0,0.0,0.0,0.0,0.0,0.0,0.0,0.0,0.0,0.0,-2.3595,-2.3595,-2.3595,-2.3595,-2.3595,-2.3595,0.0,0.0,0.0,0.0,0.0,0.0,0.0,0.0,0.0,0.0,0.0,0.0,0.0,0.0,0.0,0.0,0.0,0.0,0.0,0.0,0.0,0.0,0.0,0.0,0.0,0.0,0.0,0.0,0.0,0.0,0.0,0.0,0.0,0.0,0.0,0.0,0.0,0.0,0.0,0.0,0.0,0.0,0.0,0.0,0.0,0.0,0.0,0.0,0.0,0.0,0.0,0.0,0.0,0.0,0.0,0.0,0.0,0.0,0.0,0.0,0.0,0.0,0.0,0.0,0.0,0.0,0.0,0.0,0.0,0.0,0.0,0.0,0.0,0.0,0.0,0.0,0.0,0.0,0.0,0.0,0.0,0.0,0.0,0.0,0.0,0.0,0.0,0.0,0.0,0.0,0.0,0.0,0.0,0.0,0.0,0.0,0.0,0.0,0.0,0.0,0.0,0.0,0.0,0.0,0.0,0.0,0.0,0.0,-2.3595,-2.3595,-2.3595,-2.3595,-2.3595,-2.3595,0.0,0.0,0.0,0.0,0.0,0.0,0.0,0.0,0.0,0.0,0.0,0.0,0.0,0.0,0.0,0.0,0.0,0.0,0.0,0.0,0.0,0.0,0.0,0.0,0.0,0.0,0.0,0.0,0.0,0.0,0.0,0.0,0.0,0.0,0.0,0.0,0.0,0.0,0.0,0.0,0.0,0.0,0.0,0.0,0.0,0.0,0.0,0.0,0.0,0.0,0.0,0.0,0.0,0.0,0.0,0.0,0.0,0.0,0.0,0.0,0.0,0.0,0.0,0.0,0.0,0.0,0.0,0.0,0.0,0.0,0.0,0.0,0.0,0.0,0.0,0.0,0.0,0.0,0.0,0.0,0.0,0.0,0.0,0.0,0.0,0.0,0.0,0.0,0.0,0.0,0.0,0.0,0.0,0.0,0.0,0.0,0.0,0.0,0.0,0.0,0.0,0.0,0.0,0.0,0.0,0.0,0.0,0.0,0.0,-2.3595,-2.3595,-2.3595,-2.3595,-2.3595,-2.3595,0.0,0.0,0.0,0.0,0.0,0.0,0.0,0.0,0.0,0.0,0.0,0.0,0.0,0.0,0.0,0.0,0.0,0.0,0.0,0.0,0.0,0.0,0.0,0.0,0.0,0.0,0.0,0.0,0.0,0.0,0.0,0.0,0.0,0.0,0.0,0.0,0.0,0.0,0.0,0.0,0.0,0.0,0.0,0.0,0.0,0.0,0.0,0.0,0.0,0.0,0.0,0.0,0.0,0.0,0.0,0.0,0.0,0.0,0.0,0.0,0.0,0.0,0.0,0.0,0.0,0.0,0.0,0.0,0.0,0.0,0.0,0.0,0.0,0.0,0.0,0.0,0.0,0.0,0.0,0.0,0.0,0.0,0.0,0.0,0.0,0.0,0.0,0.0,0.0,0.0,0.0,0.0,0.0,0.0,0.0,0.0,0.0,0.0,0.0,0.0,0.0,0.0,0.0,0.0,0.0,0.0,0.0,0.0,0.0,-2.3858,0.0,-2.4032,-2.3858,-2.3858,-2.3773,0.0,0.0,0.0,0.0,0.0,0.0,0.0,0.0,0.0,0.0,0.0,0.0,0.0,0.0,0.0,0.0,0.0,0.0,0.0,0.0,0.0,0.0,0.0,0.0,0.0,0.0,0.0,0.0,0.0,0.0,0.0,0.0,0.0,0.0,0.0,0.0,0.0,0.0,0.0,0.0,0.0,0.0,0.0,0.0,0.0,0.0,0.0,0.0,0.0,0.0,0.0,0.0,0.0,0.0,0.0,0.0,0.0,0.0,0.0,0.0,0.0,0.0,0.0,0.0,0.0,0.0,0.0,0.0,0.0,0.0,0.0,0.0,0.0,0.0,0.0,0.0,0.0,0.0,0.0,0.0,0.0,0.0,0.0,0.0,0.0,0.0,0.0,0.0,0.0,0.0,0.0,0.0,0.0,0.0,0.0,0.0,0.0,0.0,0.0,0.0,0.0,0.0,0.0,0.0,0.0,0.0,0.0,0.0,-2.3885,-2.4369,-2.4875,-2.491,-2.441,-2.4384,-2.4158,0.0,0.0,0.0,0.0,0.0,0.0,0.0,0.0,0.0,0.0,0.0,0.0,0.0,0.0,0.0,0.0,0.0,0.0,0.0,0.0,0.0,0.0,0.0,0.0,0.0,0.0,0.0,0.0,0.0,0.0,0.0,0.0,0.0,0.0,0.0,0.0,0.0,0.0,0.0,0.0,0.0,0.0,0.0,0.0,0.0,0.0,0.0,0.0,0.0,0.0,0.0,0.0,0.0,0.0,0.0,0.0,0.0,0.0,0.0,0.0,0.0,0.0,0.0,0.0,0.0,0.0,0.0,0.0,0.0,0.0,0.0,0.0,0.0,0.0,0.0,0.0,0.0,0.0,0.0,0.0,0.0,0.0,0.0,0.0,0.0,0.0,0.0,0.0,0.0,0.0,0.0,0.0,0.0,0.0,0.0,0.0,0.0,0.0,0.0,0.0,0.0,0.0,0.0,0.0,0.0,0.0,0.0,0.0,0.0,-2.3906,-2.4716,-2.495,-2.4446,-2.4425,-2.4343,0.0,0.0,0.0,0.0,0.0,0.0,0.0,0.0,0.0,0.0,0.0,0.0,0.0,0.0,0.0,0.0,0.0,0.0,0.0,0.0,0.0,0.0,0.0,0.0,0.0,0.0,0.0,0.0,0.0,0.0,0.0,0.0,0.0,0.0,0.0,0.0,0.0,0.0,0.0,0.0,0.0,0.0,0.0,0.0,0.0,0.0,0.0,0.0,0.0,0.0,0.0,0.0,0.0,0.0,0.0,0.0,0.0,0.0,0.0,0.0,0.0,0.0,0.0,0.0,0.0,0.0,0.0,0.0,0.0,0.0,0.0,0.0,0.0,0.0,0.0,0.0,0.0,0.0,0.0,0.0,0.0,0.0,0.0,0.0,0.0,0.0,0.0,0.0,0.0,0.0,0.0,0.0,0.0,0.0,0.0,0.0,0.0,0.0,0.0,0.0,0.0,0.0,0.0,0.0,0.0,0.0,0.0,0.0,0.0,-2.5942,-2.6342,-2.6357,-2.5811,-2.5862,-2.5415,-2.442,0.0,0.0,0.0,0.0,0.0,0.0,0.0,0.0,0.0,0.0,0.0,0.0,0.0,0.0,0.0,0.0,0.0,0.0,0.0,0.0,0.0,0.0,0.0,0.0,0.0,0.0,0.0,0.0,0.0,0.0,0.0,0.0,0.0,0.0,0.0,0.0,0.0,0.0,0.0,0.0,0.0,0.0,0.0,0.0,0.0,0.0,0.0,0.0,0.0,0.0,0.0,0.0,0.0,0.0,0.0,0.0,0.0,0.0,0.0,0.0,0.0,0.0,0.0,0.0,0.0,0.0,0.0,0.0,0.0,0.0,0.0,0.0,0.0,0.0,0.0,0.0,0.0,0.0,0.0,0.0,0.0,0.0,0.0,0.0,0.0,0.0,0.0,0.0,0.0,0.0,0.0,0.0,0.0,0.0,0.0,0.0,0.0,0.0,0.0,0.0,0.0,0.0,0.0,0.0,0.0,0.0,0.0,0.0,-2.9826,-2.9512,-2.9089,-2.8477,-2.8433,-2.7301,0.0,0.0,0.0,0.0,0.0,0.0,0.0,0.0,0.0,0.0,0.0,0.0,0.0,0.0,0.0,0.0,0.0,0.0,0.0,0.0,0.0,0.0,0.0,0.0,0.0,0.0,0.0,0.0,0.0,0.0,0.0,0.0,0.0,0.0,0.0,0.0,0.0,0.0,0.0,0.0,0.0,0.0,0.0,0.0,0.0,0.0,0.0,0.0,0.0,0.0,0.0,0.0,0.0,0.0,0.0,0.0,0.0,0.0,0.0,0.0,0.0,0.0,0.0,0.0,0.0,0.0,0.0,0.0,0.0,0.0,0.0,0.0,0.0,0.0,0.0,0.0,0.0,0.0,0.0,0.0,0.0,0.0,0.0,0.0,0.0,0.0,0.0,0.0,0.0,0.0,0.0,0.0,0.0,0.0,0.0,0.0,0.0,0.0,0.0,0.0,0.0,0.0,0.0,0.0,0.0,0.0,0.0,0.0,0.0,-3.2412,-3.3363,-3.3088,-3.1499,-2.9989,-2.9087,0.0,0.0,0.0,0.0,0.0,0.0,0.0,0.0,0.0,0.0,0.0,0.0,0.0,0.0,0.0,0.0,0.0,0.0,0.0,0.0,0.0,0.0,0.0,0.0,0.0,0.0,0.0,0.0,0.0,0.0,0.0,0.0,0.0,0.0,0.0,0.0,0.0,0.0,0.0,0.0,0.0,0.0,0.0,0.0,0.0,0.0,0.0,0.0,0.0,0.0,0.0,0.0,0.0,0.0,0.0,0.0,0.0,0.0,0.0,0.0,0.0,0.0,0.0,0.0,0.0,0.0,0.0,0.0,0.0,0.0,0.0,0.0,0.0,0.0,0.0,0.0,0.0,0.0,0.0,0.0,0.0,0.0,0.0,0.0,0.0,0.0,0.0,0.0,0.0,0.0,0.0,0.0,0.0,0.0,0.0,0.0,0.0,0.0,0.0,0.0,0.0,0.0,0.0,0.0,0.0,0.0,0.0,0.0,-3.3453,-3.4315,-3.64,-3.6942,-3.577,-3.2817,-3.0831,0.0,0.0,0.0,0.0,0.0,0.0,0.0,0.0,0.0,0.0,0.0,0.0,0.0,0.0,0.0,0.0,0.0,0.0,0.0,0.0,0.0,0.0,0.0,0.0,0.0,0.0,0.0,0.0,0.0,0.0,0.0,0.0,0.0,0.0,0.0,0.0,0.0,0.0,0.0,0.0,0.0,0.0,0.0,0.0,0.0,0.0,0.0,0.0,0.0,0.0,0.0,0.0,0.0,0.0,0.0,0.0,0.0,0.0,0.0,0.0,0.0,0.0,0.0,0.0,0.0,0.0,0.0,0.0,0.0,0.0,0.0,0.0,0.0,0.0,0.0,0.0,0.0,0.0,0.0,0.0,0.0,0.0,0.0,0.0,0.0,0.0,0.0,0.0,0.0,0.0,0.0,0.0,0.0,0.0,0.0,0.0,0.0,0.0,0.0,0.0,0.0,0.0,0.0,0.0,0.0,0.0,0.0,0.0,-3.5684,-3.5853,-3.8616,-4.0096,-3.9969,-3.5952,-3.2561,0.0,0.0,0.0,0.0,0.0,0.0,0.0,0.0,0.0,0.0,0.0,0.0,0.0,0.0,0.0,0.0,0.0,0.0,0.0,0.0,0.0,0.0,0.0,0.0,0.0,0.0,0.0,0.0,0.0,0.0,0.0,0.0,0.0,0.0,0.0,0.0,0.0,0.0,0.0,0.0,0.0,0.0,0.0,0.0,0.0,0.0,0.0,0.0,0.0,0.0,0.0,0.0,0.0,0.0,0.0,0.0,0.0,0.0,0.0,0.0,0.0,0.0,0.0,0.0,0.0,0.0,0.0,0.0,0.0,0.0,0.0,0.0,0.0,0.0,0.0,0.0,0.0,0.0,0.0,0.0,0.0,0.0,0.0,0.0,0.0,0.0,0.0,0.0,0.0,0.0,0.0,0.0,0.0,0.0,0.0,0.0,0.0,0.0,0.0,0.0,0.0,0.0,0.0,0.0,0.0,0.0,0.0,0.0,-3.6191,-3.7391,-3.9182,-4.0113,-4.0096,-3.6452,-3.4211,0.0,0.0,0.0,0.0,0.0,0.0,0.0,0.0,0.0,0.0,0.0,0.0,0.0,0.0,0.0,0.0,0.0,0.0,0.0,0.0,0.0,0.0,0.0,0.0,0.0,0.0,0.0,0.0,0.0,0.0,0.0,0.0,0.0,0.0,0.0,0.0,0.0,0.0,0.0,0.0,0.0,0.0,0.0,0.0,0.0,0.0,0.0,0.0,-2.5016,0.0,0.0,0.0,0.0,0.0,0.0,0.0,0.0,0.0,0.0,0.0,0.0,0.0,0.0,0.0,0.0,0.0,0.0,0.0,0.0,0.0,0.0,0.0,0.0,0.0,0.0,0.0,0.0,0.0,0.0,0.0,0.0,0.0,0.0,0.0,0.0,0.0,0.0,0.0,0.0,0.0,0.0,0.0,0.0,0.0,0.0,0.0,0.0,0.0,0.0,0.0,0.0,0.0,0.0,0.0,0.0,0.0,0.0,0.0,-3.7415,-3.8886,-4.04,-4.1119,-4.1052,-3.8614,-3.6281,0.0,0.0,0.0,0.0,0.0,0.0,0.0,0.0,0.0,0.0,0.0,0.0,0.0,0.0,0.0,0.0,0.0,0.0,0.0,0.0,0.0,0.0,0.0,0.0,0.0,0.0,0.0,0.0,0.0,0.0,0.0,0.0,0.0,0.0,0.0,0.0,0.0,0.0,0.0,0.0,0.0,0.0,0.0,0.0,0.0,0.0,0.0,0.0,0.0,0.0,0.0,0.0,0.0,0.0,0.0,0.0,0.0,0.0,0.0,0.0,0.0,0.0,0.0,0.0,0.0,0.0,0.0,0.0,0.0,0.0,0.0,0.0,0.0,0.0,0.0,0.0,0.0,0.0,0.0,0.0,0.0,0.0,0.0,0.0,0.0,0.0,0.0,0.0,0.0,0.0,0.0,0.0,0.0,0.0,0.0,0.0,0.0,0.0,0.0,0.0,0.0,0.0,0.0,0.0,0.0,0.0,0.0,-3.7222,-3.8734,-4.0417,-4.167,-4.2303,-4.2269,-4.0882,-3.8262,-3.4452,0.0,0.0,0.0,0.0,0.0,0.0,0.0,0.0,0.0,0.0,0.0,0.0,0.0,0.0,0.0,0.0,0.0,0.0,0.0,0.0,0.0,0.0,0.0,0.0,0.0,0.0,0.0,0.0,0.0,0.0,0.0,0.0,0.0,0.0,0.0,0.0,0.0,0.0,-2.3879,-2.3729,0.0,0.0,0.0,0.0,0.0,0.0,0.0,0.0,-2.4777,0.0,0.0,0.0,0.0,0.0,0.0,0.0,0.0,0.0,0.0,0.0,0.0,0.0,0.0,0.0,0.0,0.0,0.0,0.0,0.0,0.0,0.0,0.0,0.0,0.0,0.0,0.0,0.0,0.0,0.0,0.0,0.0,0.0,0.0,0.0,0.0,0.0,0.0,0.0,0.0,0.0,0.0,0.0,0.0,0.0,0.0,0.0,0.0,0.0,0.0,0.0,0.0,0.0,0.0,0.0,0.0,-3.7459,-3.7763,-3.9208,-4.1847,-4.2168,-4.2303,-4.2252,-4.0857,-3.8942,-3.6555,0.0,0.0,0.0,0.0,0.0,0.0,0.0,0.0,0.0,0.0,0.0,0.0,0.0,0.0,0.0,0.0,0.0,0.0,0.0,0.0,0.0,0.0,0.0,0.0,0.0,0.0,0.0,0.0,0.0,0.0,0.0,0.0,0.0,0.0,0.0,0.0,0.0,0.0,0.0,-2.4313,-2.4088,0.0,0.0,0.0,0.0,0.0,0.0,0.0,0.0,-2.5734,0.0,0.0,0.0,0.0,0.0,0.0,0.0,0.0,0.0,0.0,0.0,0.0,0.0,0.0,0.0,0.0,0.0,0.0,0.0,0.0,0.0,0.0,0.0,0.0,0.0,0.0,0.0,0.0,0.0,0.0,0.0,0.0,0.0,0.0,0.0,0.0,0.0,0.0,0.0,0.0,0.0,0.0,0.0,0.0,0.0,0.0,0.0,0.0,0.0,0.0,0.0,0.0,0.0,0.0,0.0,-3.892,-3.9783,-4.1255,-4.3413,-4.3515,-4.3515,-4.3436,-4.2033,-4.0399,0.0,0.0,0.0,0.0,0.0,0.0,0.0,0.0,0.0,0.0,0.0,0.0,0.0,0.0,0.0,0.0,0.0,0.0,0.0,0.0,0.0,0.0,0.0,0.0,0.0,0.0,0.0,0.0,0.0,0.0,0.0,0.0,0.0,0.0,0.0,0.0,0.0,0.0,0.0,0.0,-2.5046,-2.5243,-2.6916,0.0,0.0,0.0,0.0,0.0,0.0,-2.6033,-2.5824,0.0,0.0,0.0,0.0,0.0,0.0,0.0,0.0,0.0,0.0,0.0,0.0,0.0,0.0,0.0,0.0,0.0,0.0,0.0,0.0,0.0,0.0,0.0,0.0,0.0,0.0,0.0,0.0,0.0,0.0,0.0,0.0,0.0,0.0,0.0,0.0,0.0,0.0,0.0,0.0,0.0,0.0,0.0,0.0,0.0,0.0,0.0,0.0,0.0,0.0,0.0,0.0,0.0,0.0,0.0,-4.0062,-4.1525,-4.3058,-4.4513,-4.4598,-4.4598,-4.4564,-4.2838,-4.1288,0.0,0.0,0.0,0.0,0.0,0.0,0.0,0.0,0.0,0.0,0.0,0.0,0.0,0.0,0.0,0.0,0.0,0.0,0.0,0.0,0.0,0.0,0.0,0.0,0.0,0.0,0.0,0.0,0.0,0.0,0.0,0.0,0.0,0.0,0.0,0.0,0.0,0.0,0.0,0.0,0.0,-2.6481,-2.8302,-2.6987,0.0,0.0,0.0,0.0,-2.6154,-2.6413,0.0,0.0,0.0,0.0,0.0,0.0,0.0,0.0,0.0,0.0,0.0,0.0,0.0,0.0,0.0,0.0,0.0,0.0,0.0,0.0,0.0,0.0,0.0,0.0,0.0,0.0,0.0,0.0,0.0,0.0,0.0,0.0,0.0,0.0,0.0,0.0,0.0,0.0,0.0,0.0,0.0,0.0,0.0,0.0,0.0,0.0,0.0,0.0,0.0,0.0,0.0,0.0,0.0,0.0,0.0,0.0,-4.0096,-4.1568,-4.3031,-4.4513,-4.4598,-4.4598,-4.4564,-4.1856,-4.0282,0.0,0.0,0.0,0.0,0.0,0.0,0.0,0.0,0.0,0.0,0.0,0.0,0.0,0.0,0.0,0.0,0.0,0.0,0.0,0.0,0.0,0.0,0.0,0.0,0.0,0.0,0.0,0.0,0.0,0.0,0.0,0.0,0.0,0.0,0.0,0.0,0.0,0.0,0.0,0.0,0.0,-2.7005,-2.8412,-2.7378,-2.6667,0.0,0.0,-2.8216,-2.8112,-2.9172,0.0,0.0,0.0,0.0,0.0,0.0,0.0,0.0,0.0,0.0,0.0,0.0,0.0,0.0,0.0,0.0,0.0,0.0,0.0,0.0,0.0,0.0,0.0,0.0,0.0,0.0,0.0,0.0,0.0,0.0,0.0,0.0,0.0,0.0,0.0,0.0,0.0,0.0,0.0,0.0,0.0,0.0,0.0,0.0,0.0,0.0,0.0,0.0,0.0,0.0,0.0,0.0,0.0,0.0,0.0,-4.029,-4.1399,-4.3684,-4.5162,-4.5833,-4.5867,-4.5838,-4.585,-4.2939,-4.1365,0.0,0.0,0.0,0.0,0.0,0.0,0.0,0.0,0.0,0.0,0.0,0.0,0.0,0.0,0.0,0.0,0.0,0.0,0.0,0.0,0.0,0.0,0.0,0.0,0.0,0.0,0.0,0.0,0.0,0.0,0.0,0.0,0.0,0.0,0.0,0.0,0.0,0.0,0.0,0.0,0.0,0.0,-2.9046,-2.866,0.0,0.0,0.0,-2.8865,-2.7987,0.0,0.0,0.0,0.0,0.0,0.0,0.0,0.0,0.0,0.0,0.0,0.0,0.0,0.0,0.0,0.0,0.0,0.0,0.0,0.0,0.0,0.0,0.0,0.0,0.0,0.0,0.0,0.0,0.0,0.0,0.0,0.0,0.0,0.0,0.0,0.0,0.0,0.0,0.0,0.0,0.0,0.0,0.0,0.0,0.0,0.0,0.0,0.0,0.0,0.0,0.0,0.0,0.0,0.0,0.0,0.0,0.0,-4.232,-4.5263,-4.6786,-4.6786,-4.6786,-4.6786,-4.6735,-4.4248,0.0,0.0,0.0,0.0,0.0,0.0,0.0,0.0,0.0,0.0,0.0,0.0,0.0,0.0,0.0,0.0,0.0,0.0,0.0,0.0,0.0,0.0,0.0,0.0,0.0,0.0,0.0,-2.5509,0.0,0.0,0.0,0.0,0.0,0.0,0.0,0.0,0.0,0.0,0.0,0.0,0.0,0.0,-2.9602,-3.0247,-3.0334,-3.0615,0.0,0.0,-3.0014,-2.9076,-3.116,-3.171,0.0,0.0,0.0,0.0,0.0,0.0,0.0,0.0,0.0,0.0,0.0,0.0,0.0,0.0,0.0,0.0,0.0,0.0,0.0,0.0,0.0,0.0,0.0,0.0,0.0,0.0,0.0,0.0,0.0,0.0,0.0,0.0,0.0,0.0,0.0,0.0,0.0,0.0,0.0,0.0,0.0,0.0,0.0,0.0,0.0,0.0,0.0,0.0,0.0,0.0,0.0,0.0,0.0,0.0,0.0,-4.2388,-4.5263,-4.6802,-4.6786,-4.6786,-4.6786,-4.6769,-4.5275,-4.3785,0.0,0.0,0.0,0.0,0.0,0.0,0.0,0.0,0.0,0.0,0.0,0.0,0.0,0.0,0.0,0.0,0.0,0.0,0.0,0.0,0.0,0.0,0.0,0.0,0.0,0.0,0.0,0.0,0.0,0.0,0.0,0.0,0.0,0.0,0.0,0.0,0.0,0.0,0.0,0.0,0.0,-3.1688,-3.2308,-3.2386,-3.2813,0.0,0.0,-3.2557,-3.3015,-3.4933,-3.5058,-3.1074,0.0,0.0,0.0,0.0,0.0,0.0,0.0,0.0,0.0,0.0,0.0,0.0,0.0,0.0,0.0,0.0,0.0,0.0,0.0,0.0,0.0,0.0,0.0,0.0,0.0,0.0,0.0,0.0,0.0,0.0,0.0,0.0,0.0,0.0,0.0,0.0,0.0,0.0,0.0,0.0,0.0,0.0,0.0,0.0,0.0,0.0,0.0,0.0,0.0,0.0,0.0,0.0,0.0,-4.3234,-4.3724,-4.665,-4.8156,-4.8156,-4.8156,-4.8139,-4.8156,-4.6718,-4.5246,0.0,0.0,0.0,0.0,0.0,0.0,0.0,0.0,0.0,0.0,0.0,0.0,0.0,0.0,0.0,0.0,0.0,0.0,0.0,0.0,0.0,0.0,0.0,0.0,0.0,0.0,0.0,0.0,-3.0218,-2.9599,-2.7801,0.0,0.0,0.0,0.0,0.0,0.0,0.0,0.0,0.0,0.0,-3.2679,-3.3856,-3.4369,0.0,0.0,-3.4858,-3.4346,-3.3568,-3.4589,-3.4235,-3.0552,-2.9454,0.0,0.0,0.0,0.0,0.0,0.0,0.0,0.0,0.0,0.0,0.0,0.0,0.0,0.0,0.0,0.0,0.0,0.0,0.0,0.0,0.0,0.0,0.0,0.0,0.0,0.0,0.0,0.0,0.0,0.0,0.0,0.0,0.0,0.0,0.0,0.0,0.0,0.0,0.0,0.0,0.0,0.0,0.0,0.0,0.0,0.0,0.0,0.0,0.0,0.0,0.0,0.0,-4.4028,-4.4615,-4.7496,-4.9018,-4.9018,-4.9018,-4.9018,-4.8984,-4.8003,-4.6752,0.0,0.0,0.0,0.0,0.0,0.0,0.0,0.0,0.0,0.0,0.0,0.0,0.0,0.0,0.0,0.0,0.0,0.0,0.0,0.0,0.0,0.0,0.0,0.0,0.0,0.0,0.0,0.0,-3.1238,-3.0447,-2.9193,0.0,0.0,0.0,0.0,0.0,0.0,0.0,0.0,0.0,0.0,-3.4184,-3.5018,-3.5376,-3.5396,-3.5065,-3.4787,-3.4273,-3.3344,-3.4044,-3.3806,-3.12,0.0,0.0,0.0,0.0,0.0,0.0,0.0,0.0,0.0,0.0,0.0,0.0,0.0,0.0,0.0,0.0,0.0,0.0,0.0,0.0,0.0,0.0,0.0,0.0,0.0,0.0,0.0,0.0,0.0,0.0,-3.4658,0.0,0.0,0.0,0.0,0.0,0.0,0.0,0.0,0.0,0.0,0.0,0.0,0.0,0.0,0.0,0.0,0.0,0.0,0.0,0.0,0.0,0.0,-4.4581,-4.4649,-4.7526,-4.9032,-4.9032,-4.9018,-4.9018,-4.9001,-4.8968,-4.8257,-4.6752,0.0,0.0,0.0,0.0,0.0,0.0,0.0,0.0,0.0,0.0,0.0,0.0,0.0,0.0,0.0,0.0,0.0,0.0,0.0,0.0,0.0,0.0,0.0,0.0,0.0,0.0,-3.0702,-3.1004,-3.1646,0.0,0.0,0.0,0.0,0.0,0.0,0.0,0.0,0.0,0.0,-3.5009,-3.657,-3.5695,-3.5108,-3.4578,-3.386,-3.2667,-3.2013,-3.2704,-3.3838,-3.4463,0.0,0.0,0.0,0.0,0.0,0.0,0.0,0.0,0.0,0.0,0.0,0.0,0.0,0.0,0.0,0.0,0.0,0.0,0.0,0.0,0.0,0.0,0.0,0.0,0.0,0.0,0.0,-3.7879,-3.7872,0.0,0.0,0.0,0.0,0.0,0.0,0.0,0.0,0.0,0.0,0.0,-4.3061,-4.3997,0.0,0.0,0.0,0.0,0.0,0.0,0.0,0.0,0.0,0.0,0.0,0.0,-4.5258,-4.5396,-4.8163,-4.9664,-4.9664,-4.9243,-4.9018,-4.9018,-4.9018,-4.8308,-4.6819,0.0,0.0,0.0,0.0,0.0,0.0,0.0,0.0,0.0,0.0,0.0,0.0,0.0,0.0,0.0,0.0,0.0,0.0,0.0,0.0,0.0,0.0,0.0,0.0,0.0,-3.4421,0.0,0.0,0.0,0.0,0.0,0.0,0.0,0.0,0.0,0.0,0.0,-3.2411,-3.3792,-3.4751,-3.5385,-3.556,-3.5885,-3.6185,0.0,0.0,0.0,0.0,0.0,0.0,0.0,0.0,0.0,0.0,0.0,0.0,0.0,0.0,-2.981,-2.7171,-2.7456,-2.812,-2.812,0.0,0.0,0.0,0.0,0.0,0.0,0.0,0.0,0.0,0.0,0.0,0.0,0.0,0.0,-4.057,0.0,-4.0646,0.0,0.0,0.0,0.0,0.0,0.0,0.0,0.0,-4.49,-4.5822,-4.6059,-4.6967,-4.7286,0.0,-4.6696,-4.5121,0.0,0.0,0.0,0.0,0.0,0.0,0.0,0.0,-4.5363,-4.5632,-4.8247,-4.9652,-4.9652,-4.9243,-4.9018,-4.9018,-4.9018,-4.8545,-4.7581,-4.6143,-4.4919,0.0,0.0,0.0,0.0,0.0,0.0,0.0,0.0,0.0,0.0,0.0,0.0,0.0,0.0,0.0,0.0,0.0,0.0,0.0,0.0,0.0,0.0,0.0,-3.5649,0.0,0.0,0.0,0.0,0.0,0.0,0.0,0.0,0.0,-3.3354,-3.3746,-3.4518,-3.5654,-3.6192,-3.6248,-3.5667,0.0,0.0,0.0,0.0,0.0,0.0,0.0,-3.2749,-3.232,-3.2311,-3.2679,-3.3636,-3.4074,-3.4062,-3.3389,0.0,0.0,-3.0095,-3.0039,-3.0537,-3.0537,-3.034,-3.0154,-3.0154,-3.0154,-3.0154,0.0,0.0,0.0,0.0,0.0,0.0,0.0,0.0,-4.2455,-4.1711,0.0,-4.1907,0.0,0.0,0.0,0.0,0.0,-4.5482,0.0,0.0,-5.018,-5.0904,-4.9064,-4.9004,-4.927,-4.964,-4.7683,-4.7043,-4.7593,-4.7075,0.0,0.0,0.0,0.0,0.0,0.0,-4.4923,-4.5624,-4.7933,-4.9094,-4.9107,-4.9032,-4.9018,-4.9018,-4.9018,-4.9001,-4.8951,-4.7597,-4.6819,-4.6735,-4.4012,0.0,0.0,0.0,0.0,0.0,0.0,0.0,0.0,0.0,0.0,0.0,0.0,0.0,0.0,0.0,0.0,0.0,0.0,0.0,0.0,-3.5701,0.0,0.0,0.0,0.0,0.0,0.0,0.0,0.0,0.0,0.0,-3.5022,-3.6009,-3.7161,-3.7699,0.0,0.0,0.0,0.0,-3.5959,-3.3224,-3.2208,-3.1927,-3.1991,-3.2992,-3.4256,-3.5694,0.0,0.0,-3.7882,-3.6715,-3.556,-3.4844,-3.5943,-3.622,-3.4027,-3.3022,-3.2591,-3.254,-3.2077,-3.1475,-3.1441,-3.1682,-3.157,-4.4919,0.0,0.0,0.0,0.0,-4.3606,-4.4333,-4.55,-4.55,-4.5263,-4.4936,-4.5314,0.0,0.0,0.0,0.0,0.0,0.0,-4.6984,-4.8924,-4.9561,-5.0288,-5.1173,-5.1191,-5.1263,-5.1385,-5.1302,-5.1358,-5.1545,-5.138,-4.8824,-4.4024,0.0,0.0,0.0,0.0,-4.6632,-4.7917,-4.9609,-5.049,-5.049,-4.9521,-4.9018,-4.9018,-4.9018,-4.9018,-4.9001,-4.8595,-4.7885,-4.6836,-4.5974,0.0,0.0,0.0,0.0,0.0,0.0,0.0,0.0,0.0,0.0,0.0,0.0,0.0,0.0,0.0,0.0,0.0,0.0,0.0,-3.7239,-3.8169,-3.8118,0.0,0.0,0.0,0.0,0.0,0.0,0.0,0.0,0.0,-3.8546,-3.7043,-3.6047,0.0,0.0,-3.5605,-3.4218,-3.5644,-3.673,-3.6421,-3.6219,0.0,0.0,-3.7097,-3.6807,-3.7268,-3.8096,-3.8684,-3.8684,-3.8751,-3.8759,-3.8505,-3.886,-3.8911,-3.8302,-3.7144,-3.6332,-3.6282,-3.6113,-3.5977,-3.596,-3.5571,-3.517,-4.802,-4.7056,-4.5359,-4.4953,-4.5478,-4.5466,-4.6295,-4.7665,-4.7665,-4.7344,-4.6853,-4.7411,-4.6515,-4.4598,-4.4879,0.0,0.0,0.0,-4.8697,-5.1184,-5.0792,-5.1297,-5.2477,-5.2536,-5.2554,-5.2554,-5.2684,-5.2915,-5.3185,-5.2586,-5.0474,-4.6878,0.0,0.0,-4.4964,-4.6637,-4.7926,-4.8827,-5.0066,-5.0562,-5.0258,-4.9449,-4.9018,-4.9018,-4.9018,-4.9018,-4.9018,-4.9018,-4.8595,-4.7699,-4.7107,-4.5957,0.0,0.0,0.0,0.0,0.0,0.0,0.0,0.0,0.0,0.0,0.0,-3.9039,-3.8183,0.0,0.0,0.0,-3.9648,-3.9529,-3.9242,-3.9495,0.0,0.0,0.0,0.0,0.0,0.0,0.0,-3.688,-3.8717,-4.0096,-4.0062,-3.8507,-3.7584,-3.8176,-3.7872,-3.7212,-3.6197,0.0,-3.8937,-3.8802,-3.8761,-3.9089,-3.9935,-3.9597,-3.9292,-3.9597,-4.0003,-4.029,-4.0324,-4.0476,-4.0553,-4.0493,-4.0316,-4.0171,-4.0368,-3.9665,-3.8887,-3.8427,-3.8108,-3.7922,-3.7898,-3.771,-3.7558,-5.1234,-5.0862,-4.6819,-4.5918,-4.7022,-4.7056,-4.78,-4.8984,-4.9001,-4.824,-4.709,-4.8409,-4.7496,-4.4998,-4.5576,0.0,-4.9011,-4.9703,-5.1094,-5.313,-5.3142,-5.316,-5.3203,-5.3156,-5.316,-5.32,-5.2534,-5.2539,-5.312,-5.1805,-5.0975,-5.0807,-5.0285,-4.9153,-4.7659,-4.8348,-4.8813,-4.8829,-4.9662,-4.9796,-4.9218,-4.9171,-4.9154,-4.9086,-4.9086,-4.9069,-4.9018,-4.9018,-4.9018,-4.8951,-4.7699,-4.6921,-4.6718,0.0,0.0,0.0,0.0,0.0,0.0,0.0,0.0,0.0,0.0,0.0,0.0,0.0,0.0,0.0,-4.232,0.0,-4.1525,-4.024,0.0,0.0,0.0,-3.8761,-4.013,-4.0383,-4.0426,-4.0299,0.0,0.0,-4.0451,-4.0392,-4.0908,-4.2371,-4.2303,-4.1653,-4.0282,-4.123,-4.1796,-4.0434,-4.04,-4.0468,-4.0781,-4.1136,-4.166,-4.2236,-4.2422,-4.2303,-4.2262,-4.1833,-4.1417,-4.1418,-4.0765,-4.0463,-4.1001,-4.0943,-4.0549,-3.9457,-3.8765,-3.8282,-3.8387,-3.8648,-3.8868,-5.1234,-5.1133,-5.0084,-4.9509,-4.9306,-4.9306,-4.9187,-4.9018,-4.9018,-4.8798,-4.8494,-4.8849,-4.8612,-4.7983,-4.8129,-4.8764,-4.9774,-5.055,-5.1449,-5.2414,-5.2483,-5.2793,-5.3226,-5.2766,-5.2793,-5.3226,-5.3078,-5.3122,-5.3252,-5.29,-5.2154,-5.1104,-5.088,-4.9733,-4.7675,-4.7919,-4.8589,-4.9701,-4.9916,-5.0231,-5.0642,-5.0693,-5.0422,-4.9847,-4.983,-4.9576,-4.9035,-4.9018,-4.9018,-4.9001,-4.8663,-4.7986,-4.6853,-4.5072,0.0,0.0,0.0,0.0,0.0,0.0,0.0,0.0,0.0,-4.046,-3.9343,0.0,-4.0231,0.0,-4.2692,-4.3988,-4.3802,-4.3481,0.0,0.0,-4.1457,-4.139,-4.1745,-4.2811,-4.3091,-4.1897,-4.2821,-4.3504,-4.3521,-4.2997,-4.3183,-4.4604,-4.2422,-4.0502,-4.018,-4.1382,-4.2185,-4.1948,-4.2709,-4.3504,-4.342,-4.3684,-4.3802,-4.4022,-4.3538,-4.3122,-4.3122,-4.2963,-4.2785,-4.275,-4.2189,-4.1962,-4.2414,-4.1688,-4.1087,-4.1081,-4.0977,-4.0894,-4.0876,-4.0514,-4.0235,-5.2199,-5.2232,-5.2232,-5.1792,-5.1048,-5.0744,-5.0371,-4.9999,-4.9982,-4.9982,-4.9982,-4.9968,-4.9999,-5.0014,-5.0322,-5.0695,-5.1061,-5.1806,-5.2514,-5.3217,-5.3255,-5.3664,-5.4284,-5.3953,-5.3953,-5.4345,-5.4327,-5.4327,-5.4345,-5.4687,-5.4291,-5.3177,-5.3516,-5.2528,-5.0255,-4.8934,-4.8539,-4.9011,-4.9395,-5.0093,-5.115,-5.1234,-5.0693,-4.9661,-4.961,-4.9103,-4.8054,-4.7699,-4.753,-4.753,-4.7208,-4.6667,-4.5838,-4.4384,-4.3183,0.0,0.0,0.0,0.0,0.0,0.0,0.0,0.0,0.0,0.0,0.0,-4.21,-4.2117,-4.4215,-4.5145,-4.4147,-4.4062,-4.3859,-4.3352,-4.3328,-4.3572,-4.4242,-4.506,-4.5258,-4.4401,-4.5043,-4.5579,-4.5551,-4.5196,-4.5213,-4.6075,-4.4384,-4.2855,-4.2279,-4.2838,-4.3301,-4.3379,-4.4056,-4.4598,-4.4598,-4.4598,-4.4598,-4.4564,-4.4231,-4.3927,-4.3938,-4.3863,-4.3776,-4.3766,-4.3393,-4.3286,-4.3761,-4.3373,-4.286,-4.2996,-4.3084,-4.2779,-4.1987,-4.17,-4.16,-5.3602,-5.3518,-5.3518,-5.3095,-5.2418,-5.1792,-5.1403,-5.1234,-5.1234,-5.1234,-5.1234,-5.1234,-5.1234,-5.1249,-5.1888,-5.2158,-5.2205,-5.2857,-5.3519,-5.4184,-5.4309,-5.4694,-5.5333,-5.5314,-5.5314,-5.5314,-5.5333,-5.5333,-5.5351,-5.6042,-5.5932,-5.5193,-5.5838,-5.5089,-5.2905,-5.0232,-4.8661,-4.8221,-4.903,-5.0037,-5.131,-5.1063,-5.027,-4.8951,-4.8866,-4.8206,-4.6853,-4.6177,-4.5838,-4.5821,-4.5128,-4.4852,-4.4959,-4.347,-4.2675,0.0,-4.15,0.0,0.0,0.0,0.0,0.0,0.0,0.0,0.0,-4.4598,-4.4682,-4.4869,-4.6024,-4.6058,-4.4254,-4.4102,-4.4401,-4.5089,-4.5173,-4.5681,-4.6904,-4.7073,-4.7073,-4.7073,-4.7073,-4.7073,-4.7073,-4.7005,-4.6921,-4.6904,-4.665,-4.5957,-4.5122,-4.475,-4.4699,-4.475,-4.4666,-4.4598,-4.4598,-4.4598,-4.4626,-4.4692,-4.4742,-4.4748,-4.4845,-4.4872,-4.482,-4.4817,-4.4664,-4.4682,-4.5244,-4.5212,-4.4986,-4.4785,-4.4748,-4.418,-4.2638,-4.2446,-4.277,-5.4042,-5.3518,-5.3518,-5.3416,-5.3264,-5.3129,-5.2367,-5.1234,-5.1234,-5.1234,-5.1234,-5.1234,-5.1234,-5.1217,-5.1344,-5.1407,-5.1441,-5.2162,-5.2577,-5.2735,-5.3404,-5.3759,-5.39,-5.39,-5.3883,-5.39,-5.39,-5.39,-5.39,-5.4055,-5.3424,-5.2114,-5.22,-5.147,-4.9898,0.0,0.0,0.0,-5.1309,-5.1911,-5.2106,-5.0356,-4.9001,-4.8142,-4.8091,0.0,-4.6853,-4.6667,-4.6583,-4.6566,-4.5889,0.0,0.0,0.0,0.0,0.0,0.0,0.0,0.0,0.0,0.0,0.0,-4.4259,-4.4293,-4.4564,-4.4598,-4.5106,-4.6244,-4.6633,-4.7124,-4.7868,-4.7936,-4.8003,-4.8139,-4.8156,-4.8274,-4.8562,-4.8578,-4.8578,-4.8595,-4.8578,-4.8578,-4.8494,-4.8088,-4.7716,-4.7682,-4.7175,-4.6701,-4.643,-4.5872,-4.55,-4.5466,-4.501,-4.4632,-4.4598,-4.4598,-4.4814,-4.5169,-4.532,-4.5511,-4.5898,-4.6459,-4.6806,-4.6731,-4.6349,-4.6076,-4.6591,-4.5868,-4.5316,-4.5608,-4.5663,-4.5168,-4.3542,-4.3268,-4.3357,-5.4938,0.0,-5.46,-5.46,0.0,-5.46,-5.416,-5.3349,-5.2655,-5.235,-5.235,-5.235,-5.235,-5.235,-5.235,-5.235,-5.2367,-5.2723,-5.3072,-5.3492,-5.4215,-5.4791,-5.5184,-5.5559,-5.5731,-5.5713,-5.5731,-5.5731,-5.5731,-5.5713,-5.5334,-5.4583,-5.4565,-5.4176,-5.3459,-5.3102,-5.2509,-5.1738,-5.2537,-5.3137,-5.3407,-5.2354,-5.1049,-4.961,0.0,0.0,0.0,0.0,0.0,0.0,0.0,0.0,0.0,0.0,0.0,-4.5669,-4.5021,-4.4919,-4.5602,-4.5698,-4.602,-4.6701,-4.6752,-4.6447,-4.5766,-4.6329,-4.7073,-4.78,-4.7885,-4.8189,-4.89,-4.9018,-4.9018,-4.9018,-4.9018,-4.9018,-4.9018,-4.9018,-4.9018,-4.9018,-4.9018,-4.9018,-4.8984,-4.8714,-4.8446,-4.8443,-4.8139,-4.7881,-4.7784,-4.6921,-4.616,-4.5788,-4.5432,-4.501,-4.471,-4.4879,-4.5115,-4.5459,-4.5757,-4.6021,-4.6336,-4.6955,-4.7406,-4.7409,-4.7309,-4.7393,-4.7568,-4.7105,-4.6645,-4.6525,-4.6489,-4.6122,-4.4929,-4.4378,-4.4103,-5.58,-5.57,-5.5857,-5.5909,-5.5909,-5.5909,-5.5822,-5.5632,0.0,0.0,0.0,-5.3907,-5.3907,-5.3873,-5.3771,-5.3754,-5.3888,-5.3752,-5.4057,-5.4818,-5.5408,-5.6049,-5.6695,-5.729,-5.7613,-5.7594,-5.7594,-5.7594,-5.7594,-5.7594,-5.7594,-5.7594,-5.7594,-5.7594,-5.757,-5.7141,-5.5625,-5.3137,-5.3326,-5.3718,-5.42,-5.3961,-5.2871,-5.0862,-5.0811,-5.0253,-4.9052,-4.8426,-4.8122,-4.8088,-4.7394,-4.6836,-4.6515,-4.6363,-4.6075,-4.563,-4.5579,-4.6041,-4.709,-4.7175,-4.7699,-4.8934,-4.9018,-4.8477,-4.7259,-4.8308,-4.9018,-4.9018,-4.9018,-4.9001,-4.9018,-4.9018,-4.9018,-4.9018,-4.9018,-4.9018,-4.9018,-4.9018,-4.9018,-4.9018,-4.9018,-4.9063,-4.9182,-4.9195,-4.9226,-4.9359,-4.9389,-4.9359,-4.9176,-4.8136,-4.6975,-4.6363,-4.6338,-4.6093,-4.5453,-4.5588,-4.5855,-4.595,-4.6305,-4.6577,-4.6778,-4.7194,-4.753,-4.7614,-4.7977,-4.8212,-4.8287,-4.8195,-4.8067,-4.7443,-4.7314,-4.7131,-4.6434,-4.57,-4.5131,-5.6292,-5.577,-5.6435,-5.6746,-5.6746,-5.6729,-5.6335,-5.57,-5.5497,-5.5412,-5.5412,-5.5412,-5.5395,-5.5326,-5.4735,-5.4786,-5.5337,-5.473,-5.4848,0.0,-5.5649,-5.5762,-5.5865,-5.5958,-5.6014,-5.6031,-5.6059,-5.6031,-5.6031,-5.6077,-5.6031,-5.6077,-5.6031,-5.6077,-5.6059,-5.6598,-5.6358,-5.5256,-5.4077,-5.3236,-5.2704,-5.1408,-5.0302,-4.9385,-4.9373,-4.9238,-4.9018,-4.8934,-4.8849,-4.8832,-4.8156,-4.8257,-4.9373,-4.8866,-4.8765,-4.9255,-4.9306,-4.9137,-4.8731,-4.8697,-4.8781,-4.8968,-4.9018,-4.89,-4.8731,-4.8883,-4.9018,-4.9018,-4.9018,-4.9018,-4.9018,-4.9018,-4.9018,-4.9018,-4.9018,-4.9018,-4.9018,-4.9018,-4.9032,-4.9063,-4.9001,-4.9256,-4.978,-4.9879,-5.009,-5.0599,-5.0554,-5.0716,-5.0476,-4.9565,-4.8391,-4.7788,-4.8041,-4.8058,-4.735,-4.728,-4.7281,-4.7151,-4.7204,-4.746,-4.7818,-4.7977,-4.8094,-4.8152,-4.821,-4.8287,-4.8324,-4.8324,-4.8233,-4.8049,-4.803,-4.7976,-4.7774,-4.7168,-4.6489,-5.7205,-5.6936,-5.7293,-5.7449,-5.7484,-5.7907,-5.8155,-5.8255,-5.8272,-5.7259,-5.5733,-5.5681,-5.5681,-5.5718,-5.5808,-5.6017,-5.6354,-5.6506,-5.6722,-5.7074,-5.7481,-5.7647,-5.7702,-5.8042,-5.8262,-5.8244,-5.8244,-5.8262,-5.8244,-5.8244,-5.8244,-5.8262,-5.8244,-5.806,-5.772,-5.8025,-5.7819,-5.7067,-5.5919,-5.4762,-5.3641,-5.2887,-5.2182,-5.1469,-5.1437,-5.1454,-5.1454,-5.1437,-5.1454,-5.1437,-5.1133,-5.1065,-5.1251,-5.098,-5.076,-5.071,-5.1114,-5.0851,-4.9658,-4.9221,-4.9018,-4.9018,-4.9018,-4.9018,-4.9018,-4.9018,-4.9018,-4.9018,-4.9018,-4.9018,-4.9018,-4.9018,-4.9018,-4.9018,-4.9018,-4.9018,-4.9018,-4.9018,-4.9152,-4.9462,-4.9551,-4.9838,-5.05,-5.0581,-5.0689,-5.106,-5.1112,-5.1112,-5.1138,-5.0888,-5.0246,-4.9274,-4.9278,-4.9135,-4.8535,-4.8657,-4.8595,-4.8161,-4.8366,-4.847,-4.8414,-4.8324,-4.8324,-4.8324,-4.8324,-4.8324,-4.8324,-4.8324,-4.8324,-4.8324,-4.8324,-4.8324,-4.8251,-4.7957,-4.7352,-5.7881,-5.7918,-5.8101,-5.8173,-5.8263,-5.9027,-5.9671,-6.0117,-6.0273,-5.9024,-5.6936,-5.6765,-5.6748,-5.6799,-5.7238,-5.7548,-5.7763,-5.8208,-5.8531,-5.8747,-5.9267,-5.9566,-5.9618,-6.0145,-6.0401,-6.0401,-6.0401,-6.0401,-6.0401,-6.0401,-6.0401,-6.0401,-6.0401,-6.0103,-5.9548,-5.9566,-5.9186,-5.8478,-5.7765,-5.666,-5.5201,-5.5122,-5.4686,-5.3816,-5.3568,-5.3518,-5.3518,-5.3518,-5.3584,-5.3734,-5.3584,-5.328,-5.285,-5.2669,-5.2232,-5.162,-5.2004,-5.1686,-5.0229,-4.9746,-4.9369,-4.9001,-4.9121,-4.9226,-4.9243,-4.9226,-4.9168,-4.9032,-4.9018,-4.9018,-4.9018,-4.9018,-4.9018,-4.9018,-4.9152,-4.9182,-4.9063,-4.9256,-4.958,-4.9993,-5.0146,-5.0527,-5.1112,-5.1317,-5.1436,-5.1586,-5.1579,-5.1562,-5.1636,-5.206,-5.1795,-5.112,-5.0717,-5.0486,-4.9788,-4.9992,-4.9952,-4.9245,-4.9492,-4.9421,-4.8948,-4.8618,-4.8453,-4.8416,-4.8324,-4.8324,-4.8324,-4.8324,-4.8324,-4.8324,-4.8324,-4.8324,-4.8306,-4.8288,-4.7957,-5.7898,-5.801,-5.8633,-5.8993,-5.9061,-5.9864,-5.9864,-5.9443,-6.0055,-6.0282,-5.9835,-5.9955,-5.9902,-5.9898,-5.9302,-5.939,-5.9929,-5.9457,-5.9577,-6.0169,-6.0262,-6.0286,-6.0335,-6.0413,-6.0401,-6.0456,-6.0493,-6.0548,-6.0548,-6.0493,-6.0438,-6.0401,-6.0401,-6.045,-6.0323,-6.0323,-5.9971,-5.9231,-5.9122,-5.8304,-5.6786,-5.6692,-5.5994,-5.453,-5.3882,-5.3518,-5.3601,-5.3518,-5.3832,-5.4374,-5.3898,-5.3798,-5.4239,-5.3761,-5.3044,-5.2316,-5.228,-5.1654,-5.0365,-5.0751,-5.0513,-4.9223,-4.9627,-4.9925,-4.9879,-4.9907,-4.9652,-4.9182,-4.9032,-4.9063,-4.9001,-4.9032,-4.9077,-4.9138,-4.9534,-4.9664,-4.9286,-5.0118,-5.0689,-5.0033,-5.0645,-5.1266,-5.1856,-5.2018,-5.2266,-5.2702,-5.2743,-5.2765,-5.2787,-5.2872,-5.2959,-5.2809,-5.2831,-5.244,-5.1801,-5.1724,-5.1355,-5.0735,-5.0613,-5.0325,-4.9756,-4.939,-4.928,-4.8655,-4.8324,-4.8324,-4.8324,-4.8324,-4.8324,-4.8324,-4.8324,-4.8324,-4.8324,-4.8324,-4.8122,-5.8558,-5.8527,-5.845,-5.8686,-5.9144,-5.9509,-5.9736,-5.996,-6.076,-6.1113,-6.1189,-6.1604,-6.1304,-6.041,-6.0569,-6.0865,-6.1099,-6.1303,-6.1528,-6.1808,-6.1832,-6.1808,-6.1832,-6.1832,-6.1832,-6.1832,-6.1808,-6.1832,-6.1832,-6.1814,-6.1808,-6.1832,-6.1832,-6.1832,-6.1832,-6.1832,-6.1647,-6.1383,-6.1383,-6.0809,-5.9661,-5.8331,-5.7123,-5.6034,-5.5251,-5.4822,-5.4734,-5.4374,-5.4482,-5.5144,-5.4969,-5.4939,-5.5232,-5.4544,-5.4016,-5.3656,-5.3244,-5.2929,-5.2764,-5.2684,-5.1937,-5.0449,-5.0993,-5.1025,-5.0124,-5.039,-5.0352,-4.9722,-4.9593,-4.9593,-4.9627,-4.961,-4.9593,-4.9622,-4.9833,-4.989,-4.9664,-5.0472,-5.1086,-5.1197,-5.1501,-5.197,-5.2554,-5.2729,-5.2875,-5.3164,-5.3185,-5.3185,-5.3185,-5.3185,-5.3185,-5.3185,-5.3185,-5.3075,-5.2747,-5.2711,-5.2344,-5.1775,-5.1499,-5.1206,-5.0508,-4.9867,-4.9445,-4.9095,-4.8691,-4.8398,-4.8324,-4.8324,-4.8324,-4.8324,-4.8324,-4.8324,-4.8324,-4.8324,-4.8324,-5.9675,-5.9626,-5.935,-5.9443,-5.9805,-6.0016,-6.0339,-6.079,-6.1576,-6.1942,-6.1996,-6.2541,-6.2192,-6.1247,-6.1687,-6.1942,-6.2004,-6.2523,-6.2823,-6.2823,-6.2823,-6.2805,-6.2823,-6.2823,-6.2823,-6.2823,-6.2787,-6.2787,-6.2823,-6.2823,-6.2823,-6.2823,-6.2823,-6.2823,-6.2823,-6.2823,-6.2823,-6.278,-6.2823,-6.2511,-6.1764,-6.0323,-5.8862,-5.7644,-5.6844,-5.6252,-5.5748,-5.5417,-5.5354,-5.5667,-5.5706,-5.5808,-5.5994,-5.5309,-5.4818,-5.4616,-5.4313,-5.4115,-5.4321,-5.4179,-5.3486,-5.2148,-5.2342,-5.2112,-5.1228,-5.1192,-5.1112,-5.0699,-5.0564,-5.0544,-5.0067,-5.022,-5.0297,-5.0297,-5.0417,-5.0527,-5.038,-5.106,-5.1825,-5.2065,-5.2224,-5.2576,-5.3042,-5.3164,-5.3164,-5.3185,-5.3185,-5.3185,-5.3185,-5.3185,-5.3185,-5.3185,-5.3185,-5.3185,-5.3185,-5.313,-5.2876,-5.2619,-5.2325,-5.205,-5.1334,-5.06,-5.0069,-4.9994,-4.9205,-4.8728,-4.8765,-4.8673,-4.8361,-4.8343,-4.8324,-4.8324,-4.8324,-4.8324,-4.8421,-6.1415,-6.1467,-6.2204,-6.2019,-6.1543,-6.2194,-6.2166,-6.1626,-6.2378,-6.2723,-6.2691,-6.2755,-6.2755,-6.261,-6.2636,-6.273,-6.273,-6.2755,-6.2823,-6.2823,-6.2823,-6.2823,-6.2823,-6.2823,-6.2823,-6.2823,-6.2823,-6.2823,-6.2823,-6.2823,-6.2823,-6.2823,-6.2823,-6.2823,-6.2823,-6.2823,-6.2823,-6.2823,-6.2823,-6.2787,-6.2707,-6.2558,-6.1342,-5.9429,-5.8478,-5.7434,-5.6235,-5.6469,-5.6496,-5.577,-5.5808,-5.6104,-5.6686,-5.6077,-5.5379,-5.4787,-5.5238,-5.4992,-5.411,-5.4973,-5.5035,-5.3709,-5.3455,-5.3219,-5.2868,-5.2444,-5.2066,-5.1952,-5.188,-5.1469,-5.0417,-5.0743,-5.1034,-5.1086,-5.1593,-5.1593,-5.1094,-5.2149,-5.2658,-5.2404,-5.2684,-5.306,-5.3185,-5.3185,-5.3185,-5.3185,-5.3185,-5.3185,-5.3185,-5.3185,-5.3185,-5.3185,-5.3185,-5.3185,-5.3185,-5.3185,-5.3167,-5.3004,-5.2821,-5.2839,-5.2325,-5.1811,-5.1353,-5.0857,-5.0068,-4.9572,-4.9408,-4.9058,-4.8618,-4.8434,-4.8361,-4.8343,-4.8324,-4.8324,-4.8458,-6.1416,-6.1589,-6.2458,-6.2616,-6.2417,-6.2696,-6.261,-6.2415,-6.2663,-6.2803,-6.2794,-6.2823,-6.2823,-6.2823,-6.2823,-6.2823,-6.2823,-6.2823,-6.2823,-6.2823,-6.2823,-6.2823,-6.2823,-6.2823,-6.2823,-6.2823,-6.2823,-6.2823,-6.2823,-6.2823,-6.2823,-6.2823,-6.2823,-6.2823,-6.2823,-6.2823,-6.2823,-6.2823,-6.2823,-6.2823,-6.2823,-6.2823,-6.235,-6.1554,-6.0341,-5.9374,-5.8772,-5.8062,-5.7729,-5.7909,-5.7463,-5.7315,-5.7498,-5.6894,-5.6122,-5.5495,-5.6049,-5.6233,-5.5875,-5.6631,-5.6552,-5.5217,-5.5347,-5.48,-5.3693,-5.3421,-5.3185,-5.2457,-5.2576,-5.2289,-5.1667,-5.1593,-5.1759,-5.1765,-5.1952,-5.2024,-5.1994,-5.2595,-5.3082,-5.2915,-5.3082,-5.3185,-5.3185,-5.3185,-5.3185,-5.3185,-5.3185,-5.3185,-5.3185,-5.3185,-5.3185,-5.3185,-5.3185,-5.3185,-5.3185,-5.3185,-5.3185,-5.3185,-5.3112,-5.3057,-5.2766,-5.2234,-5.1756,-5.161,-5.0912,-5.0343,-5.0123,-4.9762,-4.9246,-4.9058,-4.8948,-4.8526,-4.8324,-4.8418,-4.866,-6.2482,-6.3137,-6.3715,-6.3977,-6.3974,-6.3974,-6.3831,-6.3621,-6.3633,-6.3611,-6.3612,-6.3609,-6.3484,-6.3264,-6.3227,-6.3044,-6.2842,-6.2823,-6.2823,-6.2823,-6.2823,-6.2823,-6.2823,-6.2823,-6.2823,-6.2823,-6.2823,-6.2823,-6.2823,-6.2823,-6.2823,-6.2823,-6.2823,-6.2823,-6.2823,-6.2823,-6.2823,-6.2823,-6.2823,-6.2823,-6.2823,-6.2823,-6.2823,-6.2657,-6.1787,-6.0939,-6.0491,-5.9619,-5.9005,-5.886,-5.8558,-5.8272,-5.7987,-5.7327,-5.6668,-5.6232,-5.6571,-5.6894,-5.6971,-5.7589,-5.7559,-5.6637,-5.6624,-5.6013,-5.4594,-5.4418,-5.3847,-5.3198,-5.2963,-5.2955,-5.2617,-5.2445,-5.2445,-5.2468,-5.2468,-5.2468,-5.2468,-5.2893,-5.3164,-5.3164,-5.3164,-5.3185,-5.3185,-5.3185,-5.3185,-5.3185,-5.3185,-5.3185,-5.3185,-5.3185,-5.3185,-5.3185,-5.3185,-5.3185,-5.3185,-5.3185,-5.3185,-5.3185,-5.3185,-5.3185,-5.3093,-5.2601,-5.2325,-5.2215,-5.185,-5.1261,-5.0789,-5.0428,-5.0207,-5.0019,-4.9462,-4.8967,-4.8787,-4.8624,-4.9002,-6.4665,-6.5969,-6.6338,-6.608,-6.6025,-6.6016,-6.5877,-6.5266,-6.5136,-6.5055,-6.5108,-6.5165,-6.4659,-6.4218,-6.409,-6.3649,-6.3044,-6.2952,-6.2897,-6.2823,-6.2823,-6.2823,-6.2823,-6.2823,-6.2823,-6.2823,-6.2823,-6.2823,-6.2823,-6.2823,-6.2823,-6.2823,-6.2823,-6.2823,-6.2823,-6.2823,-6.2823,-6.2823,-6.2823,-6.2823,-6.2823,-6.2823,-6.2823,-6.2823,-6.2657,-6.2007,-6.0701,-6.1124,-6.0418,-5.874,-5.8842,-5.8781,-5.8055,-5.7376,-5.6938,-5.692,-5.6938,-5.692,-5.7015,-5.7631,-5.7978,-5.7684,-5.724,-5.6818,-5.6273,-5.5328,-5.4506,-5.4114,-5.3638,-5.3219,-5.3161,-5.3082,-5.3063,-5.3203,-5.3082,-5.3082,-5.3124,-5.3164,-5.3185,-5.3185,-5.3185,-5.3185,-5.3185,-5.3185,-5.3185,-5.3185,-5.3185,-5.3185,-5.3185,-5.3185,-5.3185,-5.3185,-5.3185,-5.3185,-5.3185,-5.3185,-5.3185,-5.3185,-5.3185,-5.3185,-5.3185,-5.2894,-5.2858,-5.2747,-5.2642,-5.2071,-5.182,-5.1509,-5.1343,-5.1065,-5.0305,-4.9805,-4.9805,-4.9813,-4.9709,-6.4917,-6.5408,-6.5458,-6.5443,-6.5479,-6.5479,-6.5628,-6.5949,-6.5452,-6.5514,-6.5938,-6.554,-6.5128,-6.4989,-6.4916,-6.4475,-6.3723,-6.3668,-6.3392,-6.2915,-6.2823,-6.2823,-6.2823,-6.2823,-6.2823,-6.2823,-6.2823,-6.2823,-6.2823,-6.2823,-6.2823,-6.2823,-6.2823,-6.2823,-6.2823,-6.2823,-6.2823,-6.2823,-6.2823,-6.2823,-6.2823,-6.2823,-6.2823,-6.2823,-6.2805,-6.2533,-6.2106,-6.177,-6.1239,-6.0455,-5.9657,-5.8841,-5.8134,-5.7774,-5.766,-5.7679,-5.7655,-5.766,-5.766,-5.7821,-5.7978,-5.7941,-5.774,-5.7354,-5.6895,-5.6345,-5.5537,-5.4675,-5.4161,-5.3849,-5.3332,-5.3185,-5.3185,-5.3185,-5.3185,-5.3185,-5.3185,-5.3185,-5.3185,-5.3185,-5.3185,-5.3185,-5.3185,-5.3185,-5.3185,-5.3185,-5.3185,-5.3185,-5.3185,-5.3185,-5.3185,-5.3185,-5.3185,-5.3185,-5.3185,-5.3185,-5.3185,-5.3185,-5.3185,-5.3185,-5.3185,-5.3185,-5.3185,-5.3222,-5.3111,-5.301,-5.2772,-5.2676,-5.2551,-5.2263,-5.1742,-5.1459,-5.1286,-5.1108,-5.091,-6.5214,-6.5522,-6.5522,-6.5712,-6.593,-6.5681,-6.586,-6.6301,-6.5844,-6.5939,-6.6317,-6.6296,-6.6017,-6.5797,-6.5742,-6.5301,-6.4585,-6.4549,-6.4108,-6.3301,-6.2872,-6.2823,-6.2823,-6.2823,-6.2823,-6.2823,-6.2823,-6.2823,-6.2823,-6.2823,-6.2823,-6.2823,-6.2823,-6.2823,-6.2823,-6.2823,-6.2823,-6.2823,-6.2823,-6.2823,-6.2823,-6.2823,-6.2823,-6.2823,-6.2823,-6.2823,-6.2743,-6.231,-6.1906,-6.1392,-6.0047,-5.8964,-5.8474,-5.818,-5.7978,-5.7978,-5.7978,-5.7978,-5.7978,-5.7955,-5.7978,-5.7978,-5.7978,-5.7795,-5.7299,-5.706,-5.6253,-5.5519,-5.473,-5.4179,-5.3757,-5.3314,-5.3203,-5.3185,-5.3185,-5.3185,-5.3185,-5.3185,-5.3185,-5.3185,-5.3185,-5.3185,-5.3185,-5.3185,-5.3185,-5.3185,-5.3185,-5.3185,-5.3185,-5.3185,-5.3185,-5.3185,-5.3185,-5.3185,-5.3185,-5.3185,-5.3185,-5.3185,-5.3185,-5.3185,-5.3185,-5.3185,-5.3185,-5.342,-5.3399,-5.3591,-5.3439,-5.3801,-5.3838,-5.3474,-5.3059,-5.2604,-5.2244,-5.2086,-5.1942,-6.5604,-6.6374,-6.6325,-6.6612,-6.7127,-6.6475,-6.6217,-6.6386,-6.635,-6.6403,-6.6675,-6.7186,-6.7173,-6.6641,-6.6549,-6.6127,-6.5485,-6.5375,-6.4952,-6.4145,-6.3521,-6.3092,-6.286,-6.2823,-6.2823,-6.2823,-6.2823,-6.2823,-6.2823,-6.2823,-6.2823,-6.2823,-6.2823,-6.2823,-6.2823,-6.2823,-6.2823,-6.2823,-6.2823,-6.2823,-6.2823,-6.2823,-6.2823,-6.2823,-6.2823,-6.2823,-6.2805,-6.2713,-6.2365,-6.152,-6.0162,-5.9313,-5.9056,-5.8437,-5.7978,-5.7978,-5.7978,-5.7978,-5.7978,-5.7978,-5.7978,-5.7978,-5.7978,-5.7978,-5.7813,-5.7336,-5.6877,-5.6492,-5.5354,-5.4491,-5.4252,-5.3647,-5.324,-5.3185,-5.3185,-5.3185,-5.3185,-5.3185,-5.3185,-5.3185,-5.3185,-5.3185,-5.3185,-5.3185,-5.3185,-5.3185,-5.3185,-5.3185,-5.3185,-5.3185,-5.3185,-5.3185,-5.3185,-5.3185,-5.3185,-5.3185,-5.3185,-5.3185,-5.3185,-5.3185,-5.3185,-5.3185,-5.3185,-5.342,-5.3777,-5.3978,-5.4213,-5.4503,-5.4713,-5.4509,-5.4026,-5.3513,-5.3347,-5.332,-5.327,-6.6186,-6.6325,-6.5667,-6.5504,-6.5663,-6.544,-6.5811,-6.6374,-6.6404,-6.6718,-6.7276,-6.7588,-6.7559,-6.7375,-6.7338,-6.6935,-6.6329,-6.6182,-6.576,-6.5063,-6.4787,-6.3863,-6.3025,-6.2823,-6.2823,-6.2823,-6.2823,-6.2823,-6.2823,-6.2823,-6.2823,-6.2823,-6.2823,-6.2823,-6.2823,-6.2823,-6.2823,-6.2823,-6.2823,-6.2823,-6.2823,-6.2823,-6.2823,-6.2823,-6.2823,-6.2823,-6.2823,-6.2823,-6.242,-6.1612,-6.0658,-5.9771,-5.9239,-5.8492,-5.8033,-5.7978,-5.7978,-5.7978,-5.7978,-5.7978,-5.7978,-5.7978,-5.7978,-5.7978,-5.7978,-5.7813,-5.7391,-5.684,-5.5831,-5.5042,-5.4454,-5.3683,-5.3259,-5.3185,-5.3185,-5.3185,-5.3185,-5.3185,-5.3185,-5.3185,-5.3185,-5.3185,-5.3185,-5.3185,-5.3185,-5.3185,-5.3185,-5.3185,-5.3185,-5.3185,-5.3185,-5.3185,-5.3185,-5.3185,-5.3185,-5.3185,-5.3185,-5.3185,-5.3185,-5.3185,-5.3185,-5.3185,-5.3185,-5.3272,-5.3961,-5.4272,-5.4606,-5.4912,-5.5075,-5.5212,-5.5059,-5.4645,-5.4879,-5.4967,-5.4829,-6.663,-6.691,-6.635,-6.6132,-6.6071,-6.5761,-6.5904,-6.6325,-6.6404,-6.6641,-6.7174,-6.7579,-6.7669,-6.7669,-6.7669,-6.7494,-6.7026,-6.7008,-6.6549,-6.5833,-6.5411,-6.4567,-6.3558,-6.3062,-6.2823,-6.2823,-6.2823,-6.2823,-6.2823,-6.2823,-6.2823,-6.2823,-6.2823,-6.2823,-6.2823,-6.2823,-6.2823,-6.2823,-6.2823,-6.2823,-6.2823,-6.2823,-6.2823,-6.2823,-6.2823,-6.2823,-6.2823,-6.2823,-6.2567,-6.2034,-6.1337,-6.0548,-5.9716,-5.8927,-5.8382,-5.8052,-5.7978,-5.7978,-5.7978,-5.7978,-5.7978,-5.7978,-5.7978,-5.7978,-5.7978,-5.7978,-5.7721,-5.7336,-5.6565,-5.5776,-5.4895,-5.3904,-5.3277,-5.3185,-5.3185,-5.3185,-5.3185,-5.3185,-5.3185,-5.3185,-5.3185,-5.3185,-5.3185,-5.3185,-5.3185,-5.3185,-5.3185,-5.3185,-5.3185,-5.3185,-5.3185,-5.3185,-5.3185,-5.3185,-5.3185,-5.3185,-5.3185,-5.3185,-5.3274,-5.3272,-5.3251,-5.323,-5.3185,-5.3378,-5.405,-5.4566,-5.4779,-5.5061,-5.5411,-5.5546,-5.5684,-5.5684,-5.5684,-5.5684,-5.5684,-6.6852,-6.7561,-6.7561,-6.7615,-6.746,-6.6776,-6.6434,-6.6553,-6.663,-6.663,-6.6823,-6.7387,-6.7669,-6.7669,-6.7669,-6.765,-6.7659,-6.7559,-6.721,-6.6549,-6.5907,-6.5099,-6.4475,-6.3484,-6.3025,-6.286,-6.2823,-6.2823,-6.2823,-6.2823,-6.2823,-6.2823,-6.2823,-6.2823,-6.2823,-6.2823,-6.2823,-6.2823,-6.2823,-6.2823,-6.2823,-6.2823,-6.2823,-6.2823,-6.2823,-6.2823,-6.2823,-6.2823,-6.2768,-6.2805,-6.2016,-6.1227,-6.0474,-5.974,-5.8933,-5.829,-5.8088,-5.7978,-5.7978,-5.7978,-5.7978,-5.7978,-5.7978,-5.7978,-5.7978,-5.7978,-5.7941,-5.785,-5.7244,-5.629,-5.5244,-5.4032,-5.3332,-5.3185,-5.3185,-5.3185,-5.3185,-5.3185,-5.3185,-5.3185,-5.3185,-5.3185,-5.3185,-5.3185,-5.3185,-5.3185,-5.3185,-5.3185,-5.3185,-5.3185,-5.3185,-5.3185,-5.3185,-5.3185,-5.3185,-5.3185,-5.3185,-5.3206,-5.3359,-5.3381,-5.3341,-5.3318,-5.323,-5.3442,-5.4033,-5.439,-5.4582,-5.4966,-5.5512,-5.5684,-5.5684,-5.5684,-5.5684,-5.5684,-5.5684,-6.6511,-6.6689,-6.6689,-6.7071,-6.7488,-6.6794,-6.6776,-6.7341,-6.7387,-6.7359,-6.746,-6.7615,-6.7669,-6.7669,-6.7669,-6.7669,-6.7669,-6.7669,-6.7559,-6.7375,-6.6604,-6.6219,-6.565,-6.453,-6.3503,-6.3062,-6.2842,-6.2798,-6.2798,-6.2823,-6.2823,-6.2823,-6.2823,-6.2823,-6.2823,-6.2823,-6.2823,-6.2823,-6.2823,-6.2823,-6.2823,-6.2823,-6.2823,-6.2823,-6.2823,-6.2823,-6.2823,-6.2823,-6.2823,-6.2622,-6.2108,-6.1557,-6.108,-5.9997,-5.9166,-5.8822,-5.8272,-5.7978,-5.7978,-5.7978,-5.7978,-5.7978,-5.7978,-5.7978,-5.7978,-5.7978,-5.7978,-5.785,-5.7244,-5.6308,-5.4987,-5.3849,-5.3314,-5.3222,-5.3185,-5.3185,-5.3185,-5.3185,-5.3185,-5.3185,-5.3185,-5.3185,-5.3185,-5.3185,-5.3185,-5.3185,-5.3185,-5.3185,-5.3185,-5.3185,-5.3185,-5.3185,-5.3185,-5.3185,-5.3185,-5.3185,-5.3185,-5.3272,-5.3422,-5.3526,-5.3505,-5.3545,-5.3524,-5.3681,-5.3961,-5.4274,-5.4597,-5.5107,-5.5684,-5.5684,-5.5684,-5.5684,-5.5684,-5.5684,-5.5684,-6.5379,-6.573,-6.573,-6.6028,-6.6379,-6.6416,-6.6659,-6.7099,-6.7542,-6.7669,-6.7669,-6.7669,-6.7669,-6.7669,-6.7669,-6.7669,-6.7669,-6.7669,-6.7669,-6.7577,-6.7192,-6.6861,-6.6439,-6.5632,-6.4659,-6.3631,-6.3429,-6.3246,-6.2915,-6.2823,-6.2823,-6.2823,-6.2823,-6.2823,-6.2823,-6.2823,-6.2823,-6.2823,-6.2823,-6.2823,-6.2823,-6.2823,-6.2823,-6.2823,-6.2823,-6.2823,-6.2823,-6.2823,-6.2823,-6.2695,-6.2383,-6.1961,-6.1502,-6.0456,-5.9661,-5.9111,-5.8455,-5.8015,-5.7978,-5.7978,-5.7978,-5.7978,-5.7978,-5.7978,-5.7978,-5.7978,-5.7978,-5.7923,-5.7519,-5.673,-5.5152,-5.4252,-5.372,-5.324,-5.3185,-5.3185,-5.3185,-5.3185,-5.3185,-5.3185,-5.3185,-5.3185,-5.3185,-5.3185,-5.3185,-5.3185,-5.3185,-5.3185,-5.3185,-5.3185,-5.3185,-5.3185,-5.3185,-5.3185,-5.3185,-5.3185,-5.3185,-5.3336,-5.3505,-5.3624,-5.3683,-5.3777,-5.3888,-5.4068,-5.4257,-5.45,-5.4852,-5.5356,-5.5684,-5.5684,-5.5684,-5.5684,-5.5684,-5.5684,-5.5684,-6.4131,-6.4799,-6.4817,-6.4866,-6.5098,-6.5667,-6.6002,-6.6307,-6.7146,-6.7387,-6.7561,-6.7615,-6.7669,-6.7669,-6.7669,-6.7669,-6.7669,-6.7669,-6.7669,-6.7632,-6.7614,-6.7265,-6.6824,-6.6512,-6.5888,-6.4567,-6.4108,-6.3649,-6.3209,-6.2879,-6.2823,-6.2823,-6.2823,-6.2823,-6.2823,-6.2823,-6.2823,-6.2823,-6.2823,-6.2823,-6.2823,-6.2823,-6.2823,-6.2823,-6.2823,-6.2823,-6.2823,-6.2823,-6.2823,-6.2823,-6.2823,-6.2438,-6.1796,-6.086,-6.0162,-5.9368,-5.8584,-5.8033,-5.7978,-5.7978,-5.7978,-5.7978,-5.7978,-5.7978,-5.7978,-5.7978,-5.7978,-5.7923,-5.7648,-5.7024,-5.5739,-5.4766,-5.3995,-5.3424,-5.3185,-5.3185,-5.3185,-5.3185,-5.3185,-5.3185,-5.3185,-5.3185,-5.3185,-5.3185,-5.3185,-5.3185,-5.3185,-5.3185,-5.3185,-5.3185,-5.3185,-5.3185,-5.3185,-5.3185,-5.3185,-5.3185,-5.3185,-5.338,-5.3584,-5.3851,-5.3977,-5.4219,-5.4387,-5.439,-5.4566,-5.4794,-5.5021,-5.5399,-5.5629,-5.5662,-5.5684,-5.5684,-5.5684,-5.5684,-5.5684,-6.3774,-6.3917,-6.39,-6.4323,-6.4833,-6.4427,-6.4632,-6.5311,-6.6199,-6.6612,-6.6765,-6.7359,-6.7615,-6.7669,-6.7669,-6.7669,-6.7669,-6.7669,-6.7669,-6.7669,-6.7669,-6.7485,-6.7412,-6.7302,-6.6861,-6.5944,-6.4971,-6.4163,-6.3759,-6.3209,-6.3007,-6.2879,-6.2823,-6.2823,-6.2823,-6.2823,-6.2823,-6.2823,-6.2823,-6.2823,-6.2823,-6.2823,-6.2823,-6.2823,-6.2823,-6.2823,-6.2823,-6.2823,-6.2823,-6.2823,-6.2823,-6.2707,-6.231,-6.1208,-6.0456,-5.9905,-5.8859,-5.8125,-5.8015,-5.7978,-5.7978,-5.7978,-5.7978,-5.7978,-5.7978,-5.7978,-5.7978,-5.785,-5.7428,-5.6675,-5.5702,-5.495,-5.4106,-5.3479,-5.3185,-5.3185,-5.3185,-5.3185,-5.3185,-5.3185,-5.3185,-5.3185,-5.3185,-5.3185,-5.3185,-5.3185,-5.3185,-5.3185,-5.3185,-5.3185,-5.3185,-5.3185,-5.3185,-5.3185,-5.3185,-5.3185,-5.3227,-5.3402,-5.3701,-5.4206,-5.442,-5.476,-5.489,-5.4862,-5.4867,-5.4993,-5.5256,-5.5512,-5.5599,-5.5684,-5.5684,-5.5684,-5.5684,-5.5684,-5.5684,-6.3011,-6.3028,-6.3011,-6.3277,-6.361,-6.3702,-6.39,-6.4427,-6.5264,-6.5953,-6.6404,-6.6852,-6.7286,-6.7588,-6.7669,-6.7669,-6.7669,-6.7669,-6.7669,-6.7669,-6.7669,-6.7669,-6.7669,-6.7669,-6.7512,-6.688,-6.5925,-6.5063,-6.4677,-6.3888,-6.3503,-6.3356,-6.308,-6.2823,-6.2823,-6.2823,-6.2823,-6.2823,-6.2823,-6.2823,-6.2823,-6.2823,-6.2823,-6.2823,-6.2823,-6.2823,-6.2823,-6.2823,-6.2823,-6.2823,-6.2823,-6.2823,-6.2475,-6.1796,-6.0823,-6.0291,-5.9263,-5.8382,-5.8088,-5.7978,-5.7978,-5.7978,-5.7978,-5.7978,-5.7978,-5.7978,-5.7978,-5.7886,-5.774,-5.6895,-5.5743,-5.5207,-5.4473,-5.3479,-5.3185,-5.3185,-5.3185,-5.3185,-5.3185,-5.3185,-5.3185,-5.3185,-5.3185,-5.3185,-5.3185,-5.3185,-5.3185,-5.3185,-5.3185,-5.3185,-5.3185,-5.3185,-5.3185,-5.3185,-5.3185,-5.3185,-5.3185,-5.338,-5.3814,-5.4324,-5.4701,-5.4979,-5.5199,-5.5294,-5.5306,-5.5212,-5.5399,-5.564,-5.5673,-5.5684,-5.5684,-5.5684,-5.5684,-5.5684,-5.5684,-6.2533,-6.2398,-6.2398,-6.2398,-6.2537,-6.3124,-6.3425,-6.361,-6.4357,-6.5133,-6.5829,-6.6265,-6.6823,-6.7332,-6.7615,-6.7669,-6.7669,-6.7669,-6.7669,-6.7669,-6.7669,-6.7669,-6.7669,-6.7669,-6.7632,-6.7467,-6.7026,-6.6329,-6.5521,-6.4732,-6.431,-6.3906,-6.3319,-6.2934,-6.286,-6.2823,-6.2823,-6.2823,-6.2823,-6.2823,-6.2823,-6.2823,-6.2823,-6.2823,-6.2823,-6.2823,-6.2823,-6.2823,-6.2823,-6.2823,-6.2823,-6.2823,-6.2707,-6.2199,-6.1392,-6.0493,-5.9643,-5.8859,-5.8235,-5.7978,-5.7978,-5.7978,-5.7978,-5.7978,-5.7978,-5.7978,-5.7978,-5.7978,-5.7905,-5.7244,-5.5923,-5.5596,-5.4748,-5.3665,-5.3185,-5.3185,-5.3185,-5.3185,-5.3185,-5.3185,-5.3185,-5.3185,-5.3185,-5.3185,-5.3185,-5.3185,-5.3185,-5.3185,-5.3185,-5.3185,-5.3185,-5.3185,-5.3185,-5.3185,-5.3185,-5.3185,-5.3185,-5.3251,-5.3833,-5.4439,-5.479,-5.5115,-5.5319,-5.5524,-5.5446,-5.5411,-5.5599,-5.5684,-5.5684,-5.5684,-5.5684,-5.5684,-5.5684,-5.5684,-5.5684,-6.299,-6.2415,-6.2398,-6.2398,-6.2437,-6.2559,-6.2598,-6.2736,-6.3518,-6.3882,-6.4358,-6.559,-6.6325,-6.6689,-6.7359,-6.7615,-6.7642,-6.7687,-6.7687,-6.7669,-6.7669,-6.7669,-6.7669,-6.7669,-6.7669,-6.7669,-6.7559,-6.71,-6.6347,-6.5558,-6.4787,-6.4255,-6.3961,-6.3558,-6.2835,-6.2823,-6.2823,-6.2823,-6.2823,-6.2823,-6.2823,-6.2823,-6.2823,-6.2823,-6.2823,-6.2823,-6.2823,-6.2823,-6.2823,-6.2823,-6.2823,-6.2823,-6.2805,-6.2743,-6.1796,-6.0694,-5.9667,-5.8841,-5.8162,-5.7978,-5.7978,-5.7978,-5.7978,-5.7978,-5.7978,-5.7978,-5.7978,-5.7978,-5.7978,-5.7354,-5.6124,-5.5706,-5.4766,-5.3995,-5.3424,-5.3371,-5.3298,-5.3185,-5.3185,-5.3185,-5.3185,-5.3185,-5.3185,-5.3185,-5.3185,-5.3185,-5.3185,-5.3185,-5.3185,-5.3185,-5.3185,-5.3185,-5.3185,-5.3185,-5.3185,-5.3185,-5.3185,-5.3185,-5.3851,-5.4503,-5.4779,-5.5075,-5.5501,-5.561,-5.5566,-5.5535,-5.5651,-5.5684,-5.5684,-5.5684,-5.5684,-5.5684,-5.5684,-5.5684,-5.5684,-6.4072,-6.299,-6.2567,-6.2398,-6.2398,-6.2398,-6.2398,-6.2498,-6.2796,-6.3257,-6.3755,-6.4444,-6.5118,-6.5748,-6.6564,-6.6939,-6.7071,-6.7415,-6.7687,-6.7642,-6.7642,-6.7669,-6.7669,-6.7669,-6.7669,-6.7669,-6.7669,-6.7559,-6.6971,-6.6347,-6.5558,-6.4842,-6.4292,-6.3631,-6.2945,-6.2842,-6.2823,-6.2823,-6.2823,-6.2823,-6.2823,-6.2823,-6.2823,-6.2823,-6.2823,-6.2823,-6.2823,-6.2823,-6.2823,-6.2823,-6.2823,-6.2823,-6.2823,-6.2695,-6.2065,-6.0603,-6.0126,-5.93,-5.8235,-5.8033,-5.7978,-5.7978,-5.7978,-5.7978,-5.7978,-5.7978,-5.7978,-5.7978,-5.7978,-5.7391,-5.6565,-5.6308,-5.5629,-5.4876,-5.4069,-5.3922,-5.3775,-5.3277,-5.3185,-5.3185,-5.3185,-5.3185,-5.3185,-5.3185,-5.3185,-5.3185,-5.3185,-5.3185,-5.3185,-5.3185,-5.3185,-5.3185,-5.3185,-5.3185,-5.3185,-5.3185,-5.3185,-5.3316,-5.3924,-5.4468,-5.4689,-5.4993,-5.5477,-5.5684,-5.5651,-5.5662,-5.5684,-5.5684,-5.5684,-5.5684,-5.5684,-5.5684,-5.5684,-5.5684,-5.5684,-6.5036,-6.3988,-6.3057,-6.2567,-6.2398,-6.2398,-6.2398,-6.2398,-6.2437,-6.2796,-6.3294,-6.3683,-6.4271,-6.4984,-6.573,-6.6046,-6.6077,-6.6758,-6.7156,-6.7304,-6.7433,-6.7488,-6.7615,-6.7669,-6.7669,-6.7669,-6.7669,-6.7632,-6.7485,-6.7045,-6.6384,-6.5595,-6.4861,-6.4053,-6.3319,-6.2934,-6.2823,-6.2823,-6.2823,-6.2823,-6.2823,-6.2823,-6.2823,-6.2823,-6.2823,-6.2823,-6.2823,-6.2823,-6.2823,-6.2823,-6.2823,-6.2823,-6.2823,-6.275,-6.1991,-6.0805,-6.0291,-5.9575,-5.851,-5.7978,-5.7978,-5.7978,-5.7978,-5.7978,-5.7978,-5.7978,-5.7978,-5.7978,-5.7978,-5.7574,-5.7024,-5.6767,-5.6216,-5.5574,-5.4987,-5.4821,-5.4583,-5.4069,-5.3644,-5.3607,-5.3515,-5.3185,-5.3185,-5.3185,-5.3185,-5.3185,-5.3185,-5.3185,-5.3185,-5.3185,-5.3227,-5.3227,-5.3227,-5.3227,-5.3248,-5.3227,-5.3206,-5.3462,-5.4067,-5.4436,-5.464,-5.5061,-5.5577,-5.5684,-5.5684,-5.5684,-5.5684,-5.5684,-5.5684,-5.5684,-5.5684,-5.5684,-5.5684,-5.5684,-5.5684,-6.5628,-6.5425,-6.4021,-6.304,-6.2431,-6.2398,-6.2398,-6.2398,-6.2398,-6.2476,-6.268,-6.3277,-6.4025,-6.475,-6.4951,-6.5116,-6.5098,-6.5181,-6.5824,-6.6307,-6.6541,-6.6892,-6.7258,-6.7515,-6.7615,-6.7669,-6.7669,-6.7669,-6.7669,-6.7559,-6.7008,-6.6402,-6.5448,-6.4751,-6.3925,-6.3154,-6.286,-6.2823,-6.2823,-6.2823,-6.2823,-6.2823,-6.2823,-6.2823,-6.2823,-6.2823,-6.2823,-6.2823,-6.2823,-6.2823,-6.2823,-6.2823,-6.2823,-6.2823,-6.2016,-6.0823,-6.0401,-5.9575,-5.8455,-5.7978,-5.7978,-5.7978,-5.7978,-5.7978,-5.7978,-5.7978,-5.7978,-5.7978,-5.7978,-5.7685,-5.7152,-5.6748,-5.662,-5.6253,-5.5868,-5.5629,-5.5299,-5.473,-5.4381,-5.4179,-5.3995,-5.3812,-5.3479,-5.3534,-5.3277,-5.3259,-5.3185,-5.3185,-5.3185,-5.3206,-5.3248,-5.3272,-5.3272,-5.3272,-5.3293,-5.3357,-5.3563,-5.3777,-5.4238,-5.4468,-5.4594,-5.5101,-5.5684,-5.5684,-5.5684,-5.5684,-5.5684,-5.5684,-5.5684,-5.5684,-5.5684,-5.5684,-5.5684,-5.5684,-5.5684,-6.6102,-6.5595,-6.4597,-6.3768,-6.304,-6.2584,-6.2398,-6.2398,-6.2398,-6.2398,-6.242,-6.2757,-6.3087,-6.3501,-6.4025,-6.4201,-6.4288,-6.4799,-6.5181,-6.5408,-6.5649,-6.6089,-6.6594,-6.6967,-6.7127,-6.7542,-6.7669,-6.7669,-6.7669,-6.7669,-6.7577,-6.6935,-6.5962,-6.4934,-6.4071,-6.3319,-6.2915,-6.2823,-6.2823,-6.2823,-6.2823,-6.2823,-6.2823,-6.2823,-6.2823,-6.2823,-6.2823,-6.2823,-6.2823,-6.2823,-6.2823,-6.2823,-6.2823,-6.2823,-6.1979,-6.0676,-6.0438,-5.9557,-5.8364,-5.7978,-5.7978,-5.7978,-5.7978,-5.7978,-5.7978,-5.7978,-5.7978,-5.7978,-5.7978,-5.774,-5.7648,-5.7538,-5.7428,-5.7042,-5.6712,-5.6436,-5.6069,-5.5537,-5.5188,-5.5042,-5.4858,-5.4675,-5.4308,-5.3995,-5.3647,-5.3335,-5.324,-5.3185,-5.3185,-5.3206,-5.3251,-5.338,-5.342,-5.3623,-5.3681,-5.3814,-5.3943,-5.4153,-5.442,-5.4609,-5.479,-5.5224,-5.5703,-5.5703,-5.5684,-5.5684,-5.5684,-5.5684,-5.5684,-5.5684,-5.5684,-5.5684,-5.5684,-5.5684,-5.5684,-6.6508,-6.5916,-6.4986,-6.4174,-6.3446,-6.2702,-6.2398,-6.2398,-6.2398,-6.2398,-6.2398,-6.2398,-6.2398,-6.2581,-6.299,-6.3314,-6.3444,-6.3829,-6.4288,-6.453,-6.4734,-6.5199,-6.5698,-6.6107,-6.6398,-6.7109,-6.7359,-6.7332,-6.7687,-6.7687,-6.7632,-6.7228,-6.6402,-6.5375,-6.4439,-6.3392,-6.2823,-6.2823,-6.2823,-6.2823,-6.2823,-6.2823,-6.2823,-6.2823,-6.2823,-6.2823,-6.2823,-6.2823,-6.2823,-6.2823,-6.2823,-6.2823,-6.2823,-6.2603,-6.1881,-6.1006,-6.0236,-5.9648,-5.8474,-5.7978,-5.7978,-5.7978,-5.7978,-5.7978,-5.7978,-5.7978,-5.7978,-5.7978,-5.7978,-5.7978,-5.7978,-5.7886,-5.785,-5.7501,-5.7373,-5.7134,-5.6877,-5.6473,-5.618,-5.5923,-5.5647,-5.5225,-5.5078,-5.4656,-5.4051,-5.3628,-5.324,-5.3185,-5.3185,-5.3209,-5.3274,-5.3442,-5.3604,-5.3888,-5.4189,-5.4221,-5.4255,-5.4355,-5.4609,-5.4862,-5.5115,-5.5501,-5.5703,-5.5684,-5.5684,-5.5684,-5.5684,-5.5684,-5.5684,-5.5684,-5.5684,-5.5684,-5.5684,-5.5684,-5.5684,-6.6795,-6.6609,-6.5239,-6.4224,-6.3531,-6.2719,-6.2398,-6.2398,-6.2398,-6.2398,-6.2398,-6.2398,-6.2398,-6.242,-6.2598,-6.2659,-6.262,-6.2719,-6.3049,-6.361,-6.3738,-6.4253,-6.475,-6.5148,-6.5522,-6.6217,-6.6612,-6.7014,-6.7561,-6.7687,-6.7687,-6.7393,-6.6604,-6.5705,-6.5118,-6.3613,-6.286,-6.2823,-6.2823,-6.2823,-6.2823,-6.2823,-6.2823,-6.2823,-6.2823,-6.2823,-6.2823,-6.2823,-6.2823,-6.2823,-6.2823,-6.2823,-6.2823,-6.2823,-6.2016,-6.0621,-6.0438,-5.9612,-5.8198,-5.8033,-5.7978,-5.7978,-5.7978,-5.7978,-5.7978,-5.7978,-5.7978,-5.7978,-5.7978,-5.7978,-5.7978,-5.7978,-5.7978,-5.7941,-5.7795,-5.7685,-5.7428,-5.7281,-5.6932,-5.6785,-5.6161,-5.5629,-5.5614,-5.5354,-5.4601,-5.4014,-5.3405,-5.3203,-5.3259,-5.3248,-5.3293,-5.3584,-5.3814,-5.4135,-5.4401,-5.4516,-5.4579,-5.464,-5.4819,-5.5115,-5.5306,-5.5512,-5.5651,-5.5673,-5.5684,-5.5684,-5.5684,-5.5684,-5.5684,-5.5684,-5.5684,-5.5684,-5.5684,-5.5684,-5.5684,-6.6812,-6.6728,-6.573,-6.4901,-6.4106,-6.2905,-6.2398,-6.2398,-6.2398,-6.2398,-6.2398,-6.2398,-6.2398,-6.2398,-6.2398,-6.2398,-6.2398,-6.2398,-6.2719,-6.2779,-6.2914,-6.3408,-6.39,-6.4218,-6.4632,-6.5426,-6.5966,-6.6356,-6.6805,-6.7286,-6.7642,-6.7412,-6.6439,-6.5319,-6.4439,-6.3374,-6.2823,-6.2823,-6.2823,-6.2823,-6.2823,-6.2823,-6.2823,-6.2823,-6.2823,-6.2823,-6.2823,-6.2823,-6.2823,-6.2823,-6.2823,-6.2823,-6.2823,-6.2823,-6.2034,-6.0805,-6.0346,-5.9667,-5.8474,-5.7978,-5.7978,-5.7978,-5.7978,-5.7978,-5.7978,-5.7978,-5.7978,-5.7978,-5.7978,-5.7978,-5.7978,-5.7978,-5.7978,-5.7978,-5.7905,-5.7905,-5.7776,-5.774,-5.7593,-5.7593,-5.7207,-5.6712,-5.651,-5.6198,-5.5519,-5.4987,-5.4473,-5.3736,-5.3589,-5.3377,-5.3314,-5.3739,-5.4031,-5.4369,-5.4621,-5.4745,-5.4993,-5.5173,-5.5294,-5.547,-5.561,-5.5629,-5.5651,-5.5684,-5.5684,-5.5684,-5.5684,-5.5684,-5.5684,-5.5684,-5.5684,-5.5684,-5.5684,-5.5684,-5.5684,-6.6812,-6.6728,-6.6,-6.5273,-6.4478,-6.3294,-6.2651,-6.2448,-6.2398,-6.2398,-6.2398,-6.2398,-6.2398,-6.2398,-6.2398,-6.2398,-6.2398,-6.2398,-6.2398,-6.2398,-6.2437,-6.2817,-6.3107,-6.3351,-6.3774,-6.453,-6.5133,-6.5639,-6.6464,-6.6967,-6.7359,-6.723,-6.6127,-6.5301,-6.4383,-6.3631,-6.2823,-6.2823,-6.2823,-6.2823,-6.2823,-6.2823,-6.2823,-6.2823,-6.2823,-6.2823,-6.2823,-6.2823,-6.2823,-6.2823,-6.2823,-6.2823,-6.2823,-6.264,-6.1979,-6.0915,-5.9685,-5.9098,-5.8253,-5.7978,-5.7978,-5.7978,-5.7978,-5.7978,-5.7978,-5.7978,-5.7978,-5.7978,-5.7978,-5.7978,-5.7978,-5.7978,-5.7978,-5.7978,-5.7978,-5.7978,-5.7978,-5.7923,-5.7905,-5.7941,-5.7905,-5.7556,-5.7299,-5.695,-5.6473,-5.6014,-5.5574,-5.484,-5.4124,-5.3855,-5.3697,-5.3992,-5.4165,-5.4328,-5.4659,-5.4988,-5.5282,-5.564,-5.5684,-5.5684,-5.5684,-5.5662,-5.5673,-5.5684,-5.5684,-5.5684,-5.5684,-5.5684,-5.5684,-5.5684,-5.5684,-5.5684,-5.5684,-5.5684,-5.5684,-6.6812,-6.6694,-6.6034,-6.5307,-6.4529,-6.3666,-6.2973,-6.2415,-6.2398,-6.2398,-6.2398,-6.2398,-6.2398,-6.2398,-6.2398,-6.2398,-6.2398,-6.2398,-6.2398,-6.2398,-6.2398,-6.252,-6.252,-6.2598,-6.3049,-6.3444,-6.4007,-6.4886,-6.6125,-6.6553,-6.6967,-6.7167,-6.609,-6.5393,-6.4677,-6.3723,-6.2952,-6.2823,-6.2823,-6.2823,-6.2823,-6.2823,-6.2823,-6.2823,-6.2823,-6.2823,-6.2823,-6.2823,-6.2823,-6.2823,-6.2823,-6.2823,-6.2823,-6.2823,-6.1796,-6.0529,-5.9024,-5.8309,-5.8033,-5.7978,-5.7978,-5.7978,-5.7978,-5.7978,-5.7978,-5.7978,-5.7978,-5.7978,-5.7978,-5.7978,-5.7978,-5.7978,-5.7978,-5.7978,-5.7978,-5.7978,-5.7978,-5.796,-5.796,-5.7978,-5.7978,-5.7813,-5.7776,-5.7519,-5.7152,-5.6987,-5.6602,-5.6363,-5.5592,-5.4675,-5.4537,-5.4399,-5.448,-5.4292,-5.4616,-5.5137,-5.5343,-5.564,-5.5684,-5.5684,-5.5684,-5.5684,-5.5684,-5.5684,-5.5684,-5.5684,-5.5684,-5.5684,-5.5684,-5.5684,-5.5684,-5.5684,-5.5684,-5.5684,-5.5684,-6.6812,-6.6795,-6.6576,-6.5764,-6.4495,-6.326,-6.2567,-6.2398,-6.2398,-6.2398,-6.2398,-6.2398,-6.2398,-6.2398,-6.2398,-6.2398,-6.2398,-6.2398,-6.2398,-6.2398,-6.2398,-6.2398,-6.2398,-6.2437,-6.262,-6.2914,-6.3388,-6.3953,-6.4735,-6.5526,-6.6852,-6.7331,-6.6046,-6.5477,-6.4751,-6.3668,-6.3117,-6.2823,-6.2823,-6.2823,-6.2823,-6.2823,-6.2823,-6.2823,-6.2823,-6.2823,-6.2823,-6.2823,-6.2823,-6.2823,-6.2823,-6.2823,-6.2823,-6.2725,-6.2065,-6.0493,-5.9061,-5.7978,-5.7978,-5.7978,-5.8015,-5.807,-5.807,-5.7978,-5.7978,-5.8052,-5.8052,-5.7978,-5.7978,-5.7978,-5.7978,-5.7978,-5.7978,-5.7978,-5.7978,-5.7978,-5.7978,-5.7978,-5.7978,-5.7978,-5.7978,-5.7978,-5.7978,-5.7905,-5.7593,-5.7629,-5.7556,-5.7354,-5.6895,-5.5904,-5.5357,-5.5239,-5.494,-5.4764,-5.4921,-5.5388,-5.5486,-5.5577,-5.566,-5.5703,-5.5684,-5.5684,-5.5684,-5.5684,-5.5684,-5.5684,-5.5684,-5.5684,-5.5684,-5.5684,-5.5684,-5.5684,-5.5684,-5.5684,-5.5684,-6.6812,-6.6812,-6.6812,-6.5967,-6.4495,-6.3024,-6.2398,-6.2398,-6.2398,-6.2398,-6.2398,-6.2398,-6.2398,-6.2398,-6.2398,-6.2398,-6.2398,-6.2398,-6.2398,-6.2398,-6.2398,-6.2398,-6.2398,-6.2398,-6.2437,-6.262,-6.2893,-6.3368,-6.4024,-6.5397,-6.6776,-6.6953,-6.5814,-6.5433,-6.4842,-6.3778,-6.2952,-6.2823,-6.2823,-6.2823,-6.2823,-6.2823,-6.2823,-6.2823,-6.2823,-6.2823,-6.2823,-6.2823,-6.2823,-6.2823,-6.2823,-6.2823,-6.2603,-6.2248,-6.1686,-6.0162,-5.8951,-5.8162,-5.7978,-5.7978,-5.818,-5.84,-5.8492,-5.8731,-5.8584,-5.8547,-5.8235,-5.7978,-5.7978,-5.7978,-5.7978,-5.7978,-5.7978,-5.7978,-5.7978,-5.7978,-5.7978,-5.7978,-5.7978,-5.7978,-5.7978,-5.7978,-5.7978,-5.7978,-5.796,-5.7886,-5.785,-5.7776,-5.7391,-5.6693,-5.6253,-5.6055,-5.5631,-5.5294,-5.5522,-5.5687,-5.576,-5.581,-5.5714,-5.5748,-5.5712,-5.5684,-5.5684,-5.5684,-5.5684,-5.5684,-5.5684,-5.5684,-5.5684,-5.5684,-5.5684,-5.5684,-5.5684,-5.5684,-5.5684,-6.6812,-6.6812,-6.6745,-6.5882,-6.4512,-6.3108,-6.2499,-6.2398,-6.2398,-6.2398,-6.2398,-6.2398,-6.2398,-6.2398,-6.2398,-6.2398,-6.2398,-6.2398,-6.2398,-6.2398,-6.2398,-6.2398,-6.2398,-6.2398,-6.2398,-6.2398,-6.2598,-6.3028,-6.3953,-6.5019,-6.5824,-6.6247,-6.5487,-6.5099,-6.5018,-6.339,-6.2622,-6.2798,-6.2661,-6.2567,-6.2755,-6.2823,-6.2823,-6.2823,-6.2823,-6.2823,-6.2823,-6.2823,-6.2823,-6.2823,-6.2823,-6.2823,-6.2401,-6.1649,-6.0896,-6.0291,-5.93,-5.8804,-5.8584,-5.8602,-5.8822,-5.9098,-5.9294,-5.9557,-5.9446,-5.9189,-5.8859,-5.8749,-5.8822,-5.8602,-5.8547,-5.8419,-5.8364,-5.8143,-5.7978,-5.7978,-5.7978,-5.7978,-5.7978,-5.7978,-5.7978,-5.7978,-5.7978,-5.7978,-5.7978,-5.7978,-5.7978,-5.7978,-5.7776,-5.7262,-5.7042,-5.6804,-5.6334,-5.5981,-5.6124,-5.6245,-5.6154,-5.6097,-5.6007,-5.6025,-5.6154,-5.5972,-5.5684,-5.5684,-5.5684,-5.5684,-5.5684,-5.5684,-5.5684,-5.5684,-5.5684,-5.5684,-5.5684,-5.5684,-5.5684,-6.6812,-6.6762,-6.6187,-6.5425,-6.4529,-6.3632,-6.2905,-6.2415,-6.2398,-6.2398,-6.2398,-6.2398,-6.2398,-6.2398,-6.2398,-6.2398,-6.2398,-6.2398,-6.2398,-6.2398,-6.2398,-6.2398,-6.2398,-6.2398,-6.2398,-6.2398,-6.2537,-6.2779,-6.3591,-6.4323,-6.5098,-6.6006,-6.5112,-6.4483,-6.4829,-6.3038,-6.2131,-6.2438,-6.2271,-6.2298,-6.2636,-6.2755,-6.2823,-6.2823,-6.2823,-6.2823,-6.2823,-6.2823,-6.2823,-6.2823,-6.2823,-6.2823,-6.275,-6.1814,-6.1374,-6.1098,-6.0236,-5.9722,-5.9575,-5.9557,-5.9758,-5.9942,-6.0144,-6.0236,-6.0199,-5.996,-5.9832,-5.9795,-5.9612,-5.9318,-5.9098,-5.8951,-5.8786,-5.8419,-5.8033,-5.8033,-5.8015,-5.7978,-5.7978,-5.7978,-5.7978,-5.7978,-5.7978,-5.7978,-5.7978,-5.7978,-5.7978,-5.7978,-5.7978,-5.7685,-5.7629,-5.7373,-5.6932,-5.6679,-5.6839,-5.6762,-5.6651,-5.661,-5.6562,-5.6569,-5.659,-5.6288,-5.5992,-5.578,-5.5684,-5.5684,-5.5684,-5.5684,-5.5684,-5.5684,-5.5684,-5.5684,-5.5684,-5.5684,-5.5684,-6.6812,-6.6711,-6.5984,-6.5256,-6.4546,-6.3818,-6.3091,-6.2482,-6.2398,-6.2398,-6.2398,-6.2398,-6.2398,-6.2398,-6.2398,-6.2398,-6.2398,-6.2398,-6.2398,-6.2398,-6.2398,-6.2398,-6.2398,-6.2398,-6.2398,-6.2398,-6.2437,-6.2697,-6.3162,-6.3683,-6.4426,-6.4983,-6.4028,-6.3609,-6.392,-6.2249,-6.1293,-6.165,-6.1548,-6.187,-6.2376,-6.2567,-6.2755,-6.2823,-6.2823,-6.2823,-6.2823,-6.2823,-6.2823,-6.2823,-6.2823,-6.2823,-6.2622,-6.1979,-6.1612,-6.1337,-6.0841,-6.0401,-6.0456,-6.0529,-6.0658,-6.0823,-6.0933,-6.1025,-6.163,-6.141,-6.0768,-6.0658,-6.0181,-5.9869,-5.9832,-5.9703,-5.9667,-5.9446,-5.8877,-5.8547,-5.8253,-5.7978,-5.7978,-5.7978,-5.7978,-5.7978,-5.7978,-5.7978,-5.7978,-5.7978,-5.7978,-5.7978,-5.7978,-5.7978,-5.7978,-5.7886,-5.7409,-5.7512,-5.7829,-5.7544,-5.7155,-5.7127,-5.7184,-5.7054,-5.6964,-5.661,-5.6299,-5.6261,-5.6069,-5.5684,-5.5684,-5.5742,-5.5703,-5.5684,-5.5684,-5.5684,-5.5684,-5.5684,-5.5684,-6.6812,-6.6711,-6.6119,-6.5358,-6.458,-6.3954,-6.3176,-6.2482,-6.2398,-6.2398,-6.2398,-6.2398,-6.2398,-6.2398,-6.2398,-6.2398,-6.2398,-6.2398,-6.2398,-6.2398,-6.2398,-6.2398,-6.2398,-6.2398,-6.2398,-6.2398,-6.2437,-6.2437,-6.2559,-6.3087,-6.3395,-6.3444,-6.3133,-6.2708,-6.2227,-6.1365,-6.0609,-6.0861,-6.1015,-6.1418,-6.187,-6.235,-6.2661,-6.2823,-6.2823,-6.2823,-6.2823,-6.2823,-6.2823,-6.2823,-6.2823,-6.2823,-6.2695,-6.2254,-6.2071,-6.1759,-6.1465,-6.1098,-6.0951,-6.1043,-6.1318,-6.1557,-6.1686,-6.2016,-6.2585,-6.2401,-6.1759,-6.1392,-6.0933,-6.0658,-6.0621,-6.0548,-6.0511,-6.0199,-5.9557,-5.8982,-5.8565,-5.8107,-5.8015,-5.8015,-5.7997,-5.7997,-5.7978,-5.7978,-5.7978,-5.7978,-5.7978,-5.7978,-5.7978,-5.7978,-5.7978,-5.7978,-5.7776,-5.8061,-5.8502,-5.8271,-5.7715,-5.7997,-5.8046,-5.7696,-5.7392,-5.7231,-5.7085,-5.703,-5.6761,-5.6261,-5.5915,-5.5868,-5.5818,-5.578,-5.5684,-5.5684,-5.5684,-5.5684,-5.5684,-6.6812,-6.6812,-6.6643,-6.5831,-6.4681,-6.4427,-6.3632,-6.2516,-6.2398,-6.2398,-6.2398,-6.2398,-6.2398,-6.2398,-6.2398,-6.2398,-6.2398,-6.2398,-6.2398,-6.2398,-6.2398,-6.2398,-6.2398,-6.2398,-6.2398,-6.2398,-6.2398,-6.2398,-6.2398,-6.262,-6.2994,-6.3506,-6.2816,-6.2471,-6.2332,-6.126,-6.0183,-6.0237,-6.0427,-6.0802,-6.1659,-6.2174,-6.2686,-6.2823,-6.2823,-6.2823,-6.2823,-6.2823,-6.2823,-6.2823,-6.2823,-6.2823,-6.2732,-6.2585,-6.2475,-6.2365,-6.2071,-6.2071,-6.1961,-6.1961,-6.2254,-6.2291,-6.2383,-6.2456,-6.2787,-6.2768,-6.2383,-6.2383,-6.1998,-6.1741,-6.163,-6.1429,-6.13,-6.0566,-5.9887,-5.9478,-5.9074,-5.8529,-5.8143,-5.8107,-5.8052,-5.8015,-5.7978,-5.7978,-5.7978,-5.7978,-5.7978,-5.7978,-5.7978,-5.7978,-5.7978,-5.7978,-5.7978,-5.8286,-5.8574,-5.8677,-5.8407,-5.8732,-5.8837,-5.8391,-5.8092,-5.8017,-5.7916,-5.7893,-5.7453,-5.6907,-5.6599,-5.6453,-5.606,-5.6011,-5.578,-5.5684,-5.5703,-5.5684,-5.5684]},{"header":{"parameterUnit":"m.s-1","parameterCategory":1,"la1":31.0,"la2":29.5877,"lo1":-88.7671,"lo2":-86.6584,"dy":0.0162,"dx":0.0185,"nx":115,"ny":88,"refTime":"2024-05-10T12:00:00:Z","depth":0,"parameterNumber":3,"parameterNumberName":"V-component_of_WINDS"},"data":[0.0,0.0,0.0,0.0,0.0,0.0,0.0,0.0,0.0,0.0,0.0,0.0,0.0,0.0,0.0,0.0,0.0,0.0,0.0,0.0,0.0,0.0,0.0,0.0,0.0,0.0,0.0,0.0,0.0,0.0,0.0,0.0,0.0,0.0,0.0,0.0,0.0,0.0,0.0,0.0,0.0,0.0,0.0,0.0,0.0,0.0,0.0,0.0,0.0,0.0,0.0,0.0,0.0,0.0,0.0,0.0,0.0,0.0,0.0,0.0,0.0,0.0,0.0,0.0,0.0,0.0,0.0,0.0,0.0,0.0,0.0,0.0,0.0,0.0,0.0,0.0,0.0,0.0,0.0,0.0,0.0,0.0,0.0,0.0,0.0,0.0,0.0,0.0,0.0,0.0,0.0,0.0,0.0,0.0,0.0,0.0,0.0,0.0,0.0,0.0,0.0,0.0,0.0,0.0,0.0,0.0,0.0,0.0,0.0,0.0,0.0,0.0,0.0,0.0,0.0,0.0,0.0,0.0,0.0,0.0,0.0,0.0,0.0,0.0,0.0,0.0,0.0,0.0,0.0,0.0,0.0,0.0,0.0,0.0,0.0,0.0,0.0,0.0,0.0,0.0,0.0,0.0,0.0,0.0,0.0,0.0,0.0,0.0,0.0,0.0,0.0,0.0,0.0,0.0,0.0,0.0,0.0,0.0,0.0,0.0,0.0,0.0,0.0,0.0,0.0,0.0,0.0,0.0,0.0,0.0,0.0,0.0,0.0,0.0,0.0,0.0,0.0,0.0,0.0,0.0,0.0,0.0,0.0,0.0,0.0,0.0,0.0,0.0,0.0,0.0,0.0,0.0,0.0,0.0,0.0,0.0,0.0,0.0,0.0,0.0,0.0,0.0,0.0,0.0,0.0,0.0,0.0,0.0,0.0,0.0,0.0,0.0,0.0,0.0,0.0,0.0,0.0,0.0,0.0,0.0,0.0,0.0,0.0,0.0,0.0,0.0,0.0,0.0,0.0,0.0,0.0,0.0,0.0,0.0,0.0,0.0,0.0,0.0,0.0,0.0,0.0,0.0,0.0,0.0,0.0,0.0,0.0,0.0,0.0,0.0,0.0,0.0,0.0,0.0,0.0,0.0,0.0,0.0,0.0,0.0,0.0,0.0,0.0,0.0,0.0,0.0,0.0,0.0,0.0,0.0,0.0,0.0,0.0,0.0,0.0,0.0,0.0,0.0,0.0,0.0,0.0,0.0,0.0,0.0,0.0,0.0,0.0,0.0,0.0,0.0,0.0,0.0,0.0,0.0,0.0,0.0,0.0,0.0,0.0,0.0,0.0,0.0,0.0,0.0,0.0,0.0,0.0,0.0,0.0,0.0,0.0,0.0,0.0,0.0,0.0,0.0,0.0,0.0,0.0,0.0,0.0,0.0,0.0,0.0,0.0,0.0,0.0,0.0,0.0,0.0,0.0,0.0,0.0,0.0,0.0,0.0,0.0,0.0,0.0,0.0,0.0,0.0,0.0,0.0,0.0,0.0,0.0,0.0,0.0,0.0,0.0,0.0,0.0,0.0,0.0,0.0,0.0,0.0,0.0,0.0,0.0,0.0,0.0,0.0,0.0,0.0,0.0,0.0,0.0,0.0,0.0,0.0,0.0,0.0,0.0,0.0,0.0,0.0,0.0,0.0,0.0,0.0,0.0,0.0,0.0,0.0,0.0,0.0,0.0,0.0,0.0,0.0,0.0,0.0,0.0,0.0,0.0,0.0,0.0,0.0,0.0,0.0,0.0,0.0,0.0,0.0,0.0,0.0,0.0,0.0,0.0,0.0,0.0,0.0,0.0,0.0,0.0,0.0,0.0,0.0,0.0,0.0,0.0,0.0,0.0,0.0,0.0,0.0,0.0,0.0,0.0,0.0,0.0,0.0,0.0,0.0,0.0,0.0,0.0,0.0,0.0,0.0,0.0,0.0,0.0,0.0,0.0,0.0,0.0,0.0,0.0,0.0,0.0,0.0,0.0,0.0,0.0,0.0,0.0,0.0,0.0,0.0,0.0,0.0,0.0,0.0,0.0,0.0,0.0,0.0,0.0,0.0,0.0,0.0,0.0,0.0,0.0,0.0,0.0,0.0,0.0,0.0,0.0,0.0,0.0,0.0,0.0,0.0,0.0,0.0,0.0,0.0,0.0,0.0,0.0,0.0,0.0,0.0,0.0,0.0,0.0,0.0,0.0,0.0,0.0,0.0,0.0,0.0,0.0,0.0,0.0,0.0,0.0,0.0,0.0,0.0,0.0,0.0,0.0,0.0,0.0,0.0,0.0,0.0,0.0,0.0,0.0,0.0,0.0,0.0,0.0,0.0,0.0,0.0,0.0,0.0,0.0,0.0,0.0,0.0,0.0,0.0,0.0,0.0,0.0,0.0,0.0,0.0,0.0,0.0,0.0,0.0,0.0,0.0,0.0,0.0,0.0,0.0,0.0,0.0,0.0,0.0,0.0,0.0,0.0,0.0,0.0,0.0,0.0,0.0,0.0,0.0,0.0,0.0,0.0,0.0,0.0,0.0,0.0,0.0,0.0,0.0,0.0,0.0,0.0,0.0,0.0,0.0,0.0,0.0,0.0,0.0,0.0,0.0,0.0,0.0,0.0,0.0,0.0,0.0,0.0,0.0,0.0,0.0,0.0,0.0,0.0,0.0,0.0,0.0,0.0,0.0,0.0,0.0,0.0,0.0,0.0,0.0,0.0,0.0,0.0,0.0,0.0,0.0,0.0,0.0,0.0,0.0,0.0,0.0,0.0,0.0,0.0,0.0,0.0,0.0,0.0,0.0,0.0,0.0,0.0,0.0,0.0,0.0,0.0,0.0,0.0,0.0,0.0,0.0,0.0,0.0,0.0,0.0,0.0,0.0,0.0,0.0,0.0,0.0,0.0,0.0,0.0,0.0,0.0,0.0,0.0,0.0,0.0,0.0,0.0,0.0,0.0,0.0,0.0,0.0,0.0,0.0,0.0,0.0,0.0,0.0,0.0,0.0,0.0,0.0,0.0,0.0,0.0,0.0,0.0,0.0,0.0,0.0,0.0,0.0,0.0,0.0,0.0,0.0,0.0,0.0,0.0,0.0,0.0,0.0,0.0,0.0,0.0,0.0,0.0,0.0,0.0,0.0,0.0,0.0,0.0,0.0,0.0,0.0,0.0,0.0,0.0,0.0,0.0,0.0,0.0,0.0,0.0,0.0,0.0,0.0,0.0,0.0,0.0,0.0,0.0,0.0,0.0,0.0,0.0,0.0,0.0,0.0,0.0,0.0,0.0,0.0,0.0,0.0,0.0,0.0,0.0,0.0,0.0,0.0,0.0,0.0,0.0,0.0,0.0,0.0,0.0,0.0,0.0,0.0,0.0,0.0,0.0,0.0,0.0,0.0,0.0,0.0,0.0,0.0,0.0,0.0,0.0,0.0,0.0,0.0,0.0,0.0,0.0,0.0,0.0,0.0,0.0,0.0,0.0,0.0,0.0,0.0,0.0,0.0,0.0,0.0,0.0,0.0,0.0,0.0,0.0,0.0,0.0,0.0,0.0,0.0,0.0,0.0,0.0,0.0,0.0,0.0,0.0,0.0,0.0,0.0,0.0,0.0,0.0,0.0,0.0,0.0,0.0,0.0,0.0,0.0,0.0,0.0,0.0,0.0,0.0,0.0,0.0,0.0,0.0,0.0,0.0,0.0,0.0,0.0,0.0,0.0,0.0,0.0,0.0,0.0,0.0,0.0,0.0,0.0,0.0,0.0,0.0,0.0,0.0,0.0,0.0,0.0,0.0,0.0,0.0,0.0,0.0,0.0,0.0,0.0,0.0,0.0,0.0,0.0,0.0,0.0,0.0,0.0,0.0,0.0,0.0,0.0,0.0,0.0,0.0,0.0,0.0,0.0,0.0,0.0,0.0,0.0,0.0,0.0,0.0,0.0,0.0,0.0,0.0,0.0,0.0,0.0,0.0,0.0,0.0,0.0,0.0,0.0,0.0,0.0,0.0,0.0,0.0,0.0,0.0,0.0,0.0,0.0,0.0,0.0,0.0,0.0,0.0,0.0,0.0,0.0,0.0,0.0,0.0,0.0,0.0,0.0,0.0,0.0,0.0,0.0,0.0,0.0,0.0,0.0,0.0,0.0,0.0,0.0,0.0,0.0,0.0,0.0,0.0,0.0,0.0,0.0,0.0,0.0,0.0,0.0,0.0,0.0,0.0,0.0,0.0,0.0,0.0,0.0,0.0,0.0,0.0,0.0,1.9798,0.0,0.0,0.0,0.0,0.0,0.0,0.0,0.0,0.0,0.0,0.0,0.0,0.0,0.0,0.0,0.0,0.0,0.0,0.0,0.0,0.0,0.0,0.0,0.0,0.0,0.0,0.0,0.0,0.0,0.0,0.0,0.0,0.0,0.0,0.0,0.0,0.0,0.0,0.0,0.0,0.0,0.0,0.0,0.0,0.0,0.0,0.0,0.0,0.0,0.0,0.0,0.0,0.0,0.0,0.0,0.0,0.0,0.0,0.0,0.0,0.0,0.0,0.0,0.0,0.0,0.0,0.0,0.0,0.0,0.0,0.0,0.0,0.0,0.0,0.0,0.0,0.0,0.0,0.0,0.0,0.0,0.0,0.0,0.0,0.0,0.0,0.0,0.0,0.0,0.0,0.0,0.0,0.0,0.0,0.0,0.0,0.0,0.0,0.0,0.0,0.0,0.0,0.0,0.0,0.0,0.0,0.0,0.0,0.0,0.0,1.9798,1.9798,1.9798,1.9798,1.9798,0.0,0.0,0.0,0.0,0.0,0.0,0.0,0.0,0.0,0.0,0.0,0.0,0.0,0.0,0.0,0.0,0.0,0.0,0.0,0.0,0.0,0.0,0.0,0.0,0.0,0.0,0.0,0.0,0.0,0.0,0.0,0.0,0.0,0.0,0.0,0.0,0.0,0.0,0.0,0.0,0.0,0.0,0.0,0.0,0.0,0.0,0.0,0.0,0.0,0.0,0.0,0.0,0.0,0.0,0.0,0.0,0.0,0.0,0.0,0.0,0.0,0.0,0.0,0.0,0.0,0.0,0.0,0.0,0.0,0.0,0.0,0.0,0.0,0.0,0.0,0.0,0.0,0.0,0.0,0.0,0.0,0.0,0.0,0.0,0.0,0.0,0.0,0.0,0.0,0.0,0.0,0.0,0.0,0.0,0.0,0.0,0.0,0.0,0.0,0.0,0.0,0.0,0.0,0.0,0.0,0.0,0.0,0.0,0.0,0.0,0.0,0.0,1.9798,1.9798,1.9798,0.0,0.0,0.0,0.0,0.0,0.0,0.0,0.0,0.0,0.0,0.0,0.0,0.0,0.0,0.0,0.0,0.0,0.0,0.0,0.0,0.0,0.0,0.0,0.0,0.0,0.0,0.0,0.0,0.0,0.0,0.0,0.0,0.0,0.0,0.0,0.0,0.0,0.0,0.0,0.0,0.0,0.0,0.0,0.0,0.0,0.0,0.0,0.0,0.0,0.0,0.0,0.0,0.0,0.0,0.0,0.0,0.0,0.0,0.0,0.0,0.0,0.0,0.0,0.0,0.0,0.0,0.0,0.0,0.0,0.0,0.0,0.0,0.0,0.0,0.0,0.0,0.0,0.0,0.0,0.0,0.0,0.0,0.0,0.0,0.0,0.0,0.0,0.0,0.0,0.0,0.0,0.0,0.0,0.0,0.0,0.0,0.0,0.0,0.0,0.0,0.0,0.0,0.0,0.0,0.0,0.0,0.0,0.0,0.0,0.0,1.9798,1.9798,1.9798,0.0,1.9798,0.0,0.0,0.0,0.0,0.0,0.0,0.0,0.0,0.0,0.0,0.0,0.0,0.0,0.0,0.0,0.0,0.0,0.0,0.0,0.0,0.0,0.0,0.0,0.0,0.0,0.0,0.0,0.0,0.0,0.0,0.0,0.0,0.0,0.0,0.0,0.0,0.0,0.0,0.0,0.0,0.0,0.0,0.0,0.0,0.0,0.0,0.0,0.0,0.0,0.0,0.0,0.0,0.0,0.0,0.0,0.0,0.0,0.0,0.0,0.0,0.0,0.0,0.0,0.0,0.0,0.0,0.0,0.0,0.0,0.0,0.0,0.0,0.0,0.0,0.0,0.0,0.0,0.0,0.0,0.0,0.0,0.0,0.0,0.0,0.0,0.0,0.0,0.0,0.0,0.0,0.0,0.0,0.0,0.0,0.0,0.0,0.0,0.0,0.0,0.0,0.0,0.0,0.0,0.0,0.0,0.0,0.0,0.0,0.0,0.0,1.9798,1.9798,1.9798,1.9798,0.0,0.0,0.0,0.0,0.0,0.0,0.0,0.0,0.0,0.0,0.0,0.0,0.0,0.0,0.0,0.0,0.0,0.0,0.0,0.0,0.0,0.0,0.0,0.0,0.0,0.0,0.0,0.0,0.0,0.0,0.0,0.0,0.0,0.0,0.0,0.0,0.0,0.0,0.0,0.0,0.0,0.0,0.0,0.0,0.0,0.0,0.0,0.0,0.0,0.0,0.0,0.0,0.0,0.0,0.0,0.0,0.0,0.0,0.0,0.0,0.0,0.0,0.0,0.0,0.0,0.0,0.0,0.0,0.0,0.0,0.0,0.0,0.0,0.0,0.0,0.0,0.0,0.0,0.0,0.0,0.0,0.0,0.0,0.0,0.0,0.0,0.0,0.0,0.0,0.0,0.0,0.0,0.0,0.0,0.0,0.0,0.0,0.0,0.0,0.0,0.0,0.0,0.0,0.0,0.0,0.0,0.0,0.0,0.0,0.0,1.9798,1.9798,1.9798,1.9798,1.9798,1.9798,0.0,0.0,0.0,0.0,0.0,0.0,0.0,0.0,0.0,0.0,0.0,0.0,0.0,0.0,0.0,0.0,0.0,0.0,0.0,0.0,0.0,0.0,0.0,0.0,0.0,0.0,0.0,0.0,0.0,0.0,0.0,0.0,0.0,0.0,0.0,0.0,0.0,0.0,0.0,0.0,0.0,0.0,0.0,0.0,0.0,0.0,0.0,0.0,0.0,0.0,0.0,0.0,0.0,0.0,0.0,0.0,0.0,0.0,0.0,0.0,0.0,0.0,0.0,0.0,0.0,0.0,0.0,0.0,0.0,0.0,0.0,0.0,0.0,0.0,0.0,0.0,0.0,0.0,0.0,0.0,0.0,0.0,0.0,0.0,0.0,0.0,0.0,0.0,0.0,0.0,0.0,0.0,0.0,0.0,0.0,0.0,0.0,0.0,0.0,0.0,0.0,0.0,0.0,0.0,0.0,0.0,0.0,0.0,1.9798,1.9798,1.9798,1.9798,1.9798,1.9798,0.0,0.0,0.0,0.0,0.0,0.0,0.0,0.0,0.0,0.0,0.0,0.0,0.0,0.0,0.0,0.0,0.0,0.0,0.0,0.0,0.0,0.0,0.0,0.0,0.0,0.0,0.0,0.0,0.0,0.0,0.0,0.0,0.0,0.0,0.0,0.0,0.0,0.0,0.0,0.0,0.0,0.0,0.0,0.0,0.0,0.0,0.0,0.0,0.0,0.0,0.0,0.0,0.0,0.0,0.0,0.0,0.0,0.0,0.0,0.0,0.0,0.0,0.0,0.0,0.0,0.0,0.0,0.0,0.0,0.0,0.0,0.0,0.0,0.0,0.0,0.0,0.0,0.0,0.0,0.0,0.0,0.0,0.0,0.0,0.0,0.0,0.0,0.0,0.0,0.0,0.0,0.0,0.0,0.0,0.0,0.0,0.0,0.0,0.0,0.0,0.0,0.0,0.0,0.0,0.0,0.0,0.0,0.0,0.0,1.9798,1.9798,1.9798,1.9798,1.9798,1.9798,0.0,0.0,0.0,0.0,0.0,0.0,0.0,0.0,0.0,0.0,0.0,0.0,0.0,0.0,0.0,0.0,0.0,0.0,0.0,0.0,0.0,0.0,0.0,0.0,0.0,0.0,0.0,0.0,0.0,0.0,0.0,0.0,0.0,0.0,0.0,0.0,0.0,0.0,0.0,0.0,0.0,0.0,0.0,0.0,0.0,0.0,0.0,0.0,0.0,0.0,0.0,0.0,0.0,0.0,0.0,0.0,0.0,0.0,0.0,0.0,0.0,0.0,0.0,0.0,0.0,0.0,0.0,0.0,0.0,0.0,0.0,0.0,0.0,0.0,0.0,0.0,0.0,0.0,0.0,0.0,0.0,0.0,0.0,0.0,0.0,0.0,0.0,0.0,0.0,0.0,0.0,0.0,0.0,0.0,0.0,0.0,0.0,0.0,0.0,0.0,0.0,0.0,0.0,0.0,0.0,0.0,0.0,0.0,0.0,1.9449,0.0,1.9202,1.9449,1.9449,1.9553,0.0,0.0,0.0,0.0,0.0,0.0,0.0,0.0,0.0,0.0,0.0,0.0,0.0,0.0,0.0,0.0,0.0,0.0,0.0,0.0,0.0,0.0,0.0,0.0,0.0,0.0,0.0,0.0,0.0,0.0,0.0,0.0,0.0,0.0,0.0,0.0,0.0,0.0,0.0,0.0,0.0,0.0,0.0,0.0,0.0,0.0,0.0,0.0,0.0,0.0,0.0,0.0,0.0,0.0,0.0,0.0,0.0,0.0,0.0,0.0,0.0,0.0,0.0,0.0,0.0,0.0,0.0,0.0,0.0,0.0,0.0,0.0,0.0,0.0,0.0,0.0,0.0,0.0,0.0,0.0,0.0,0.0,0.0,0.0,0.0,0.0,0.0,0.0,0.0,0.0,0.0,0.0,0.0,0.0,0.0,0.0,0.0,0.0,0.0,0.0,0.0,0.0,0.0,0.0,0.0,0.0,0.0,0.0,1.9385,1.8741,1.8031,1.8015,1.8688,1.8753,1.9044,0.0,0.0,0.0,0.0,0.0,0.0,0.0,0.0,0.0,0.0,0.0,0.0,0.0,0.0,0.0,0.0,0.0,0.0,0.0,0.0,0.0,0.0,0.0,0.0,0.0,0.0,0.0,0.0,0.0,0.0,0.0,0.0,0.0,0.0,0.0,0.0,0.0,0.0,0.0,0.0,0.0,0.0,0.0,0.0,0.0,0.0,0.0,0.0,0.0,0.0,0.0,0.0,0.0,0.0,0.0,0.0,0.0,0.0,0.0,0.0,0.0,0.0,0.0,0.0,0.0,0.0,0.0,0.0,0.0,0.0,0.0,0.0,0.0,0.0,0.0,0.0,0.0,0.0,0.0,0.0,0.0,0.0,0.0,0.0,0.0,0.0,0.0,0.0,0.0,0.0,0.0,0.0,0.0,0.0,0.0,0.0,0.0,0.0,0.0,0.0,0.0,0.0,0.0,0.0,0.0,0.0,0.0,0.0,0.0,1.9359,1.8248,1.7961,1.8673,1.87,1.8806,0.0,0.0,0.0,0.0,0.0,0.0,0.0,0.0,0.0,0.0,0.0,0.0,0.0,0.0,0.0,0.0,0.0,0.0,0.0,0.0,0.0,0.0,0.0,0.0,0.0,0.0,0.0,0.0,0.0,0.0,0.0,0.0,0.0,0.0,0.0,0.0,0.0,0.0,0.0,0.0,0.0,0.0,0.0,0.0,0.0,0.0,0.0,0.0,0.0,0.0,0.0,0.0,0.0,0.0,0.0,0.0,0.0,0.0,0.0,0.0,0.0,0.0,0.0,0.0,0.0,0.0,0.0,0.0,0.0,0.0,0.0,0.0,0.0,0.0,0.0,0.0,0.0,0.0,0.0,0.0,0.0,0.0,0.0,0.0,0.0,0.0,0.0,0.0,0.0,0.0,0.0,0.0,0.0,0.0,0.0,0.0,0.0,0.0,0.0,0.0,0.0,0.0,0.0,0.0,0.0,0.0,0.0,0.0,0.0,1.9771,1.8189,1.7611,1.8368,1.8833,1.8978,1.8738,0.0,0.0,0.0,0.0,0.0,0.0,0.0,0.0,0.0,0.0,0.0,0.0,0.0,0.0,0.0,0.0,0.0,0.0,0.0,0.0,0.0,0.0,0.0,0.0,0.0,0.0,0.0,0.0,0.0,0.0,0.0,0.0,0.0,0.0,0.0,0.0,0.0,0.0,0.0,0.0,0.0,0.0,0.0,0.0,0.0,0.0,0.0,0.0,0.0,0.0,0.0,0.0,0.0,0.0,0.0,0.0,0.0,0.0,0.0,0.0,0.0,0.0,0.0,0.0,0.0,0.0,0.0,0.0,0.0,0.0,0.0,0.0,0.0,0.0,0.0,0.0,0.0,0.0,0.0,0.0,0.0,0.0,0.0,0.0,0.0,0.0,0.0,0.0,0.0,0.0,0.0,0.0,0.0,0.0,0.0,0.0,0.0,0.0,0.0,0.0,0.0,0.0,0.0,0.0,0.0,0.0,0.0,0.0,2.0118,1.8041,1.7306,1.7968,1.9179,1.9474,0.0,0.0,0.0,0.0,0.0,0.0,0.0,0.0,0.0,0.0,0.0,0.0,0.0,0.0,0.0,0.0,0.0,0.0,0.0,0.0,0.0,0.0,0.0,0.0,0.0,0.0,0.0,0.0,0.0,0.0,0.0,0.0,0.0,0.0,0.0,0.0,0.0,0.0,0.0,0.0,0.0,0.0,0.0,0.0,0.0,0.0,0.0,0.0,0.0,0.0,0.0,0.0,0.0,0.0,0.0,0.0,0.0,0.0,0.0,0.0,0.0,0.0,0.0,0.0,0.0,0.0,0.0,0.0,0.0,0.0,0.0,0.0,0.0,0.0,0.0,0.0,0.0,0.0,0.0,0.0,0.0,0.0,0.0,0.0,0.0,0.0,0.0,0.0,0.0,0.0,0.0,0.0,0.0,0.0,0.0,0.0,0.0,0.0,0.0,0.0,0.0,0.0,0.0,0.0,0.0,0.0,0.0,0.0,0.0,1.9475,1.9555,1.9637,1.973,2.0085,1.9851,0.0,0.0,0.0,0.0,0.0,0.0,0.0,0.0,0.0,0.0,0.0,0.0,0.0,0.0,0.0,0.0,0.0,0.0,0.0,0.0,0.0,0.0,0.0,0.0,0.0,0.0,0.0,0.0,0.0,0.0,0.0,0.0,0.0,0.0,0.0,0.0,0.0,0.0,0.0,0.0,0.0,0.0,0.0,0.0,0.0,0.0,0.0,0.0,0.0,0.0,0.0,0.0,0.0,0.0,0.0,0.0,0.0,0.0,0.0,0.0,0.0,0.0,0.0,0.0,0.0,0.0,0.0,0.0,0.0,0.0,0.0,0.0,0.0,0.0,0.0,0.0,0.0,0.0,0.0,0.0,0.0,0.0,0.0,0.0,0.0,0.0,0.0,0.0,0.0,0.0,0.0,0.0,0.0,0.0,0.0,0.0,0.0,0.0,0.0,0.0,0.0,0.0,0.0,0.0,0.0,0.0,0.0,0.0,1.9363,1.9862,2.1016,2.1598,2.1546,2.1007,2.0407,0.0,0.0,0.0,0.0,0.0,0.0,0.0,0.0,0.0,0.0,0.0,0.0,0.0,0.0,0.0,0.0,0.0,0.0,0.0,0.0,0.0,0.0,0.0,0.0,0.0,0.0,0.0,0.0,0.0,0.0,0.0,0.0,0.0,0.0,0.0,0.0,0.0,0.0,0.0,0.0,0.0,0.0,0.0,0.0,0.0,0.0,0.0,0.0,0.0,0.0,0.0,0.0,0.0,0.0,0.0,0.0,0.0,0.0,0.0,0.0,0.0,0.0,0.0,0.0,0.0,0.0,0.0,0.0,0.0,0.0,0.0,0.0,0.0,0.0,0.0,0.0,0.0,0.0,0.0,0.0,0.0,0.0,0.0,0.0,0.0,0.0,0.0,0.0,0.0,0.0,0.0,0.0,0.0,0.0,0.0,0.0,0.0,0.0,0.0,0.0,0.0,0.0,0.0,0.0,0.0,0.0,0.0,0.0,2.0654,2.0752,2.2295,2.3091,2.3076,2.1924,2.1044,0.0,0.0,0.0,0.0,0.0,0.0,0.0,0.0,0.0,0.0,0.0,0.0,0.0,0.0,0.0,0.0,0.0,0.0,0.0,0.0,0.0,0.0,0.0,0.0,0.0,0.0,0.0,0.0,0.0,0.0,0.0,0.0,0.0,0.0,0.0,0.0,0.0,0.0,0.0,0.0,0.0,0.0,0.0,0.0,0.0,0.0,0.0,0.0,0.0,0.0,0.0,0.0,0.0,0.0,0.0,0.0,0.0,0.0,0.0,0.0,0.0,0.0,0.0,0.0,0.0,0.0,0.0,0.0,0.0,0.0,0.0,0.0,0.0,0.0,0.0,0.0,0.0,0.0,0.0,0.0,0.0,0.0,0.0,0.0,0.0,0.0,0.0,0.0,0.0,0.0,0.0,0.0,0.0,0.0,0.0,0.0,0.0,0.0,0.0,0.0,0.0,0.0,0.0,0.0,0.0,0.0,0.0,0.0,2.0948,2.1642,2.2565,2.3101,2.3091,2.2229,2.169,0.0,0.0,0.0,0.0,0.0,0.0,0.0,0.0,0.0,0.0,0.0,0.0,0.0,0.0,0.0,0.0,0.0,0.0,0.0,0.0,0.0,0.0,0.0,0.0,0.0,0.0,0.0,0.0,0.0,0.0,0.0,0.0,0.0,0.0,0.0,0.0,0.0,0.0,0.0,0.0,0.0,0.0,0.0,0.0,0.0,0.0,0.0,0.0,2.0991,0.0,0.0,0.0,0.0,0.0,0.0,0.0,0.0,0.0,0.0,0.0,0.0,0.0,0.0,0.0,0.0,0.0,0.0,0.0,0.0,0.0,0.0,0.0,0.0,0.0,0.0,0.0,0.0,0.0,0.0,0.0,0.0,0.0,0.0,0.0,0.0,0.0,0.0,0.0,0.0,0.0,0.0,0.0,0.0,0.0,0.0,0.0,0.0,0.0,0.0,0.0,0.0,0.0,0.0,0.0,0.0,0.0,0.0,0.0,2.1602,2.2451,2.3266,2.374,2.3701,2.2916,2.2506,0.0,0.0,0.0,0.0,0.0,0.0,0.0,0.0,0.0,0.0,0.0,0.0,0.0,0.0,0.0,0.0,0.0,0.0,0.0,0.0,0.0,0.0,0.0,0.0,0.0,0.0,0.0,0.0,0.0,0.0,0.0,0.0,0.0,0.0,0.0,0.0,0.0,0.0,0.0,0.0,0.0,0.0,0.0,0.0,0.0,0.0,0.0,0.0,0.0,0.0,0.0,0.0,0.0,0.0,0.0,0.0,0.0,0.0,0.0,0.0,0.0,0.0,0.0,0.0,0.0,0.0,0.0,0.0,0.0,0.0,0.0,0.0,0.0,0.0,0.0,0.0,0.0,0.0,0.0,0.0,0.0,0.0,0.0,0.0,0.0,0.0,0.0,0.0,0.0,0.0,0.0,0.0,0.0,0.0,0.0,0.0,0.0,0.0,0.0,0.0,0.0,0.0,0.0,0.0,0.0,0.0,0.0,2.1544,2.2363,2.3276,2.3997,2.4424,2.4404,2.3603,2.3161,2.3074,0.0,0.0,0.0,0.0,0.0,0.0,0.0,0.0,0.0,0.0,0.0,0.0,0.0,0.0,0.0,0.0,0.0,0.0,0.0,0.0,0.0,0.0,0.0,0.0,0.0,0.0,0.0,0.0,0.0,0.0,0.0,0.0,0.0,0.0,0.0,0.0,0.0,0.0,2.0037,1.9911,0.0,0.0,0.0,0.0,0.0,0.0,0.0,0.0,2.079,0.0,0.0,0.0,0.0,0.0,0.0,0.0,0.0,0.0,0.0,0.0,0.0,0.0,0.0,0.0,0.0,0.0,0.0,0.0,0.0,0.0,0.0,0.0,0.0,0.0,0.0,0.0,0.0,0.0,0.0,0.0,0.0,0.0,0.0,0.0,0.0,0.0,0.0,0.0,0.0,0.0,0.0,0.0,0.0,0.0,0.0,0.0,0.0,0.0,0.0,0.0,0.0,0.0,0.0,0.0,0.0,2.1681,2.1858,2.2637,2.416,2.4346,2.4424,2.4394,2.3648,2.3168,2.3064,0.0,0.0,0.0,0.0,0.0,0.0,0.0,0.0,0.0,0.0,0.0,0.0,0.0,0.0,0.0,0.0,0.0,0.0,0.0,0.0,0.0,0.0,0.0,0.0,0.0,0.0,0.0,0.0,0.0,0.0,0.0,0.0,0.0,0.0,0.0,0.0,0.0,0.0,0.0,2.0401,2.0213,0.0,0.0,0.0,0.0,0.0,0.0,0.0,0.0,2.1594,0.0,0.0,0.0,0.0,0.0,0.0,0.0,0.0,0.0,0.0,0.0,0.0,0.0,0.0,0.0,0.0,0.0,0.0,0.0,0.0,0.0,0.0,0.0,0.0,0.0,0.0,0.0,0.0,0.0,0.0,0.0,0.0,0.0,0.0,0.0,0.0,0.0,0.0,0.0,0.0,0.0,0.0,0.0,0.0,0.0,0.0,0.0,0.0,0.0,0.0,0.0,0.0,0.0,0.0,0.0,2.2471,2.2969,2.3818,2.5001,2.506,2.506,2.5078,2.4268,2.3619,0.0,0.0,0.0,0.0,0.0,0.0,0.0,0.0,0.0,0.0,0.0,0.0,0.0,0.0,0.0,0.0,0.0,0.0,0.0,0.0,0.0,0.0,0.0,0.0,0.0,0.0,0.0,0.0,0.0,0.0,0.0,0.0,0.0,0.0,0.0,0.0,0.0,0.0,0.0,0.0,2.1016,2.0902,2.1506,0.0,0.0,0.0,0.0,0.0,0.0,2.1845,2.1669,0.0,0.0,0.0,0.0,0.0,0.0,0.0,0.0,0.0,0.0,0.0,0.0,0.0,0.0,0.0,0.0,0.0,0.0,0.0,0.0,0.0,0.0,0.0,0.0,0.0,0.0,0.0,0.0,0.0,0.0,0.0,0.0,0.0,0.0,0.0,0.0,0.0,0.0,0.0,0.0,0.0,0.0,0.0,0.0,0.0,0.0,0.0,0.0,0.0,0.0,0.0,0.0,0.0,0.0,0.0,2.3071,2.3975,2.4797,2.5635,2.5684,2.5684,2.5664,2.467,2.3838,0.0,0.0,0.0,0.0,0.0,0.0,0.0,0.0,0.0,0.0,0.0,0.0,0.0,0.0,0.0,0.0,0.0,0.0,0.0,0.0,0.0,0.0,0.0,0.0,0.0,0.0,0.0,0.0,0.0,0.0,0.0,0.0,0.0,0.0,0.0,0.0,0.0,0.0,0.0,0.0,0.0,2.13,2.1668,2.1418,0.0,0.0,0.0,0.0,2.1608,2.1725,0.0,0.0,0.0,0.0,0.0,0.0,0.0,0.0,0.0,0.0,0.0,0.0,0.0,0.0,0.0,0.0,0.0,0.0,0.0,0.0,0.0,0.0,0.0,0.0,0.0,0.0,0.0,0.0,0.0,0.0,0.0,0.0,0.0,0.0,0.0,0.0,0.0,0.0,0.0,0.0,0.0,0.0,0.0,0.0,0.0,0.0,0.0,0.0,0.0,0.0,0.0,0.0,0.0,0.0,0.0,0.0,2.3091,2.3939,2.4844,2.5635,2.5684,2.5684,2.5664,2.4105,2.3198,0.0,0.0,0.0,0.0,0.0,0.0,0.0,0.0,0.0,0.0,0.0,0.0,0.0,0.0,0.0,0.0,0.0,0.0,0.0,0.0,0.0,0.0,0.0,0.0,0.0,0.0,0.0,0.0,0.0,0.0,0.0,0.0,0.0,0.0,0.0,0.0,0.0,0.0,0.0,0.0,0.0,2.0535,2.1556,2.0819,1.9913,0.0,0.0,2.1749,2.1914,2.2587,0.0,0.0,0.0,0.0,0.0,0.0,0.0,0.0,0.0,0.0,0.0,0.0,0.0,0.0,0.0,0.0,0.0,0.0,0.0,0.0,0.0,0.0,0.0,0.0,0.0,0.0,0.0,0.0,0.0,0.0,0.0,0.0,0.0,0.0,0.0,0.0,0.0,0.0,0.0,0.0,0.0,0.0,0.0,0.0,0.0,0.0,0.0,0.0,0.0,0.0,0.0,0.0,0.0,0.0,0.0,2.3262,2.3842,2.5157,2.6074,2.6395,2.6415,2.6465,2.6405,2.4729,2.3822,0.0,0.0,0.0,0.0,0.0,0.0,0.0,0.0,0.0,0.0,0.0,0.0,0.0,0.0,0.0,0.0,0.0,0.0,0.0,0.0,0.0,0.0,0.0,0.0,0.0,0.0,0.0,0.0,0.0,0.0,0.0,0.0,0.0,0.0,0.0,0.0,0.0,0.0,0.0,0.0,0.0,0.0,2.0862,2.1159,0.0,0.0,0.0,2.1702,2.0427,0.0,0.0,0.0,0.0,0.0,0.0,0.0,0.0,0.0,0.0,0.0,0.0,0.0,0.0,0.0,0.0,0.0,0.0,0.0,0.0,0.0,0.0,0.0,0.0,0.0,0.0,0.0,0.0,0.0,0.0,0.0,0.0,0.0,0.0,0.0,0.0,0.0,0.0,0.0,0.0,0.0,0.0,0.0,0.0,0.0,0.0,0.0,0.0,0.0,0.0,0.0,0.0,0.0,0.0,0.0,0.0,0.0,2.4434,2.6133,2.7012,2.7012,2.7012,2.7012,2.6982,2.5547,0.0,0.0,0.0,0.0,0.0,0.0,0.0,0.0,0.0,0.0,0.0,0.0,0.0,0.0,0.0,0.0,0.0,0.0,0.0,0.0,0.0,0.0,0.0,0.0,0.0,0.0,0.0,1.9179,0.0,0.0,0.0,0.0,0.0,0.0,0.0,0.0,0.0,0.0,0.0,0.0,0.0,0.0,2.136,2.0402,2.124,2.1486,0.0,0.0,2.1557,2.0312,2.1316,2.1896,0.0,0.0,0.0,0.0,0.0,0.0,0.0,0.0,0.0,0.0,0.0,0.0,0.0,0.0,0.0,0.0,0.0,0.0,0.0,0.0,0.0,0.0,0.0,0.0,0.0,0.0,0.0,0.0,0.0,0.0,0.0,0.0,0.0,0.0,0.0,0.0,0.0,0.0,0.0,0.0,0.0,0.0,0.0,0.0,0.0,0.0,0.0,0.0,0.0,0.0,0.0,0.0,0.0,0.0,0.0,2.4473,2.6133,2.7021,2.7012,2.7012,2.7012,2.7002,2.6074,2.5216,0.0,0.0,0.0,0.0,0.0,0.0,0.0,0.0,0.0,0.0,0.0,0.0,0.0,0.0,0.0,0.0,0.0,0.0,0.0,0.0,0.0,0.0,0.0,0.0,0.0,0.0,0.0,0.0,0.0,0.0,0.0,0.0,0.0,0.0,0.0,0.0,0.0,0.0,0.0,0.0,0.0,2.1374,2.0533,2.0484,2.0904,0.0,0.0,2.1193,2.3064,2.3232,2.315,2.2889,0.0,0.0,0.0,0.0,0.0,0.0,0.0,0.0,0.0,0.0,0.0,0.0,0.0,0.0,0.0,0.0,0.0,0.0,0.0,0.0,0.0,0.0,0.0,0.0,0.0,0.0,0.0,0.0,0.0,0.0,0.0,0.0,0.0,0.0,0.0,0.0,0.0,0.0,0.0,0.0,0.0,0.0,0.0,0.0,0.0,0.0,0.0,0.0,0.0,0.0,0.0,0.0,0.0,2.4961,2.5244,2.6934,2.7803,2.7803,2.7803,2.7793,2.7803,2.6973,2.6123,0.0,0.0,0.0,0.0,0.0,0.0,0.0,0.0,0.0,0.0,0.0,0.0,0.0,0.0,0.0,0.0,0.0,0.0,0.0,0.0,0.0,0.0,0.0,0.0,0.0,0.0,0.0,0.0,2.1405,2.2254,2.3019,0.0,0.0,0.0,0.0,0.0,0.0,0.0,0.0,0.0,0.0,2.0969,2.1155,2.1476,0.0,0.0,2.1466,2.1514,2.1026,2.1824,2.2232,2.1542,2.1696,0.0,0.0,0.0,0.0,0.0,0.0,0.0,0.0,0.0,0.0,0.0,0.0,0.0,0.0,0.0,0.0,0.0,0.0,0.0,0.0,0.0,0.0,0.0,0.0,0.0,0.0,0.0,0.0,0.0,0.0,0.0,0.0,0.0,0.0,0.0,0.0,0.0,0.0,0.0,0.0,0.0,0.0,0.0,0.0,0.0,0.0,0.0,0.0,0.0,0.0,0.0,0.0,2.542,2.5693,2.7422,2.8301,2.8301,2.8301,2.8301,2.8281,2.7715,2.6992,0.0,0.0,0.0,0.0,0.0,0.0,0.0,0.0,0.0,0.0,0.0,0.0,0.0,0.0,0.0,0.0,0.0,0.0,0.0,0.0,0.0,0.0,0.0,0.0,0.0,0.0,0.0,0.0,2.1822,2.2684,2.24,0.0,0.0,0.0,0.0,0.0,0.0,0.0,0.0,0.0,0.0,2.1257,2.1354,2.1891,2.2118,2.154,2.1949,2.1992,2.1089,2.148,2.1745,2.1293,0.0,0.0,0.0,0.0,0.0,0.0,0.0,0.0,0.0,0.0,0.0,0.0,0.0,0.0,0.0,0.0,0.0,0.0,0.0,0.0,0.0,0.0,0.0,0.0,0.0,0.0,0.0,0.0,0.0,0.0,2.001,0.0,0.0,0.0,0.0,0.0,0.0,0.0,0.0,0.0,0.0,0.0,0.0,0.0,0.0,0.0,0.0,0.0,0.0,0.0,0.0,0.0,0.0,2.5674,2.5713,2.737,2.8237,2.8237,2.8301,2.8301,2.8291,2.8271,2.7861,2.6992,0.0,0.0,0.0,0.0,0.0,0.0,0.0,0.0,0.0,0.0,0.0,0.0,0.0,0.0,0.0,0.0,0.0,0.0,0.0,0.0,0.0,0.0,0.0,0.0,0.0,0.0,1.9419,2.106,2.1851,0.0,0.0,0.0,0.0,0.0,0.0,0.0,0.0,0.0,0.0,2.2036,2.241,2.0869,2.1357,2.2241,2.3217,2.2504,2.252,2.4199,2.304,2.2167,0.0,0.0,0.0,0.0,0.0,0.0,0.0,0.0,0.0,0.0,0.0,0.0,0.0,0.0,0.0,0.0,0.0,0.0,0.0,0.0,0.0,0.0,0.0,0.0,0.0,0.0,0.0,2.1814,2.1865,0.0,0.0,0.0,0.0,0.0,0.0,0.0,0.0,0.0,0.0,0.0,2.2896,2.2236,0.0,0.0,0.0,0.0,0.0,0.0,0.0,0.0,0.0,0.0,0.0,0.0,2.4254,2.4328,2.5946,2.6825,2.6825,2.7789,2.8301,2.8301,2.8301,2.7891,2.7031,0.0,0.0,0.0,0.0,0.0,0.0,0.0,0.0,0.0,0.0,0.0,0.0,0.0,0.0,0.0,0.0,0.0,0.0,0.0,0.0,0.0,0.0,0.0,0.0,0.0,2.0377,0.0,0.0,0.0,0.0,0.0,0.0,0.0,0.0,0.0,0.0,0.0,2.1452,2.1476,2.1192,2.0895,2.0634,2.1085,2.1689,0.0,0.0,0.0,0.0,0.0,0.0,0.0,0.0,0.0,0.0,0.0,0.0,0.0,0.0,1.8673,1.85,1.8914,1.9326,1.9326,0.0,0.0,0.0,0.0,0.0,0.0,0.0,0.0,0.0,0.0,0.0,0.0,0.0,0.0,2.3364,0.0,2.3467,0.0,0.0,0.0,0.0,0.0,0.0,0.0,0.0,2.1416,2.1979,2.2652,2.2026,2.1987,0.0,2.1775,2.104,0.0,0.0,0.0,0.0,0.0,0.0,0.0,0.0,2.4057,2.3755,2.5789,2.6888,2.6888,2.7789,2.8301,2.8301,2.8301,2.8027,2.7471,2.6641,2.5869,0.0,0.0,0.0,0.0,0.0,0.0,0.0,0.0,0.0,0.0,0.0,0.0,0.0,0.0,0.0,0.0,0.0,0.0,0.0,0.0,0.0,0.0,0.0,2.0947,0.0,0.0,0.0,0.0,0.0,0.0,0.0,0.0,0.0,2.1146,2.1292,2.1569,2.1849,2.1372,2.0928,2.0644,0.0,0.0,0.0,0.0,0.0,0.0,0.0,2.0713,2.0442,2.0783,2.1222,2.1791,2.1395,2.0822,2.0311,0.0,0.0,1.9173,1.9368,1.9642,1.9642,1.9515,1.9442,1.9442,1.9442,1.9442,0.0,0.0,0.0,0.0,0.0,0.0,0.0,0.0,2.4512,2.4082,0.0,2.4134,0.0,0.0,0.0,0.0,0.0,2.1694,0.0,0.0,2.1494,2.1936,2.2424,2.2461,2.1872,2.0816,2.1354,2.0822,1.9532,2.0652,0.0,0.0,0.0,0.0,0.0,0.0,2.503,2.394,2.657,2.813,2.8067,2.8237,2.8301,2.8301,2.8301,2.8291,2.8262,2.748,2.7031,2.6982,2.541,0.0,0.0,0.0,0.0,0.0,0.0,0.0,0.0,0.0,0.0,0.0,0.0,0.0,0.0,0.0,0.0,0.0,0.0,0.0,0.0,2.0664,0.0,0.0,0.0,0.0,0.0,0.0,0.0,0.0,0.0,0.0,2.1831,2.2501,2.2717,2.193,0.0,0.0,0.0,0.0,2.247,2.0912,2.1369,2.1891,2.1935,2.1528,2.151,2.2304,0.0,0.0,2.1926,2.1251,2.0634,2.0117,2.0752,2.0859,1.9695,1.921,1.8864,1.8834,1.866,1.8218,1.8198,1.8523,1.8365,2.5869,0.0,0.0,0.0,0.0,2.5176,2.5596,2.6269,2.6269,2.6133,2.5879,2.6162,0.0,0.0,0.0,0.0,0.0,0.0,2.2034,2.0704,2.1743,2.2127,2.1854,2.1861,2.1694,2.135,2.0467,1.9843,1.9464,1.9787,2.0286,2.0939,0.0,0.0,0.0,0.0,2.2681,2.2984,2.433,2.5105,2.5105,2.7168,2.8301,2.8301,2.8301,2.8301,2.8291,2.8057,2.7646,2.7041,2.6543,0.0,0.0,0.0,0.0,0.0,0.0,0.0,0.0,0.0,0.0,0.0,0.0,0.0,0.0,0.0,0.0,0.0,0.0,0.0,2.1554,2.2092,2.2063,0.0,0.0,0.0,0.0,0.0,0.0,0.0,0.0,0.0,2.2762,2.1929,2.1233,0.0,0.0,2.0557,1.9756,2.0839,2.169,2.1561,2.1709,0.0,0.0,2.218,2.1789,2.2008,2.2217,2.2334,2.2334,2.2373,2.2321,2.2175,2.2379,2.2409,2.2058,2.1445,2.0977,2.0947,2.085,2.0771,2.0762,2.0537,2.0255,2.7725,2.7168,2.6122,2.5888,2.6191,2.625,2.6728,2.7519,2.7519,2.7334,2.7051,2.7373,2.6855,2.5684,2.5069,0.0,0.0,0.0,2.1427,1.9969,2.0844,2.1052,2.0737,2.0694,2.0702,2.0702,2.0422,1.9982,1.9424,1.9858,2.0329,2.081,0.0,0.0,2.1327,2.1623,2.2094,2.2704,2.4014,2.5003,2.5608,2.734,2.8301,2.8301,2.8301,2.8301,2.8301,2.8301,2.8057,2.7539,2.7197,2.6533,0.0,0.0,0.0,0.0,0.0,0.0,0.0,0.0,0.0,0.0,0.0,2.2539,2.199,0.0,0.0,0.0,2.2891,2.2822,2.2656,2.2803,0.0,0.0,0.0,0.0,0.0,0.0,0.0,2.1239,2.2353,2.3208,2.3188,2.2288,2.1699,2.2041,2.1865,2.1484,2.0898,0.0,2.248,2.2402,2.2435,2.2568,2.3057,2.2861,2.2685,2.2861,2.3096,2.3262,2.3281,2.3369,2.3354,2.3379,2.3218,2.296,2.2492,2.1987,2.1778,2.2074,2.2002,2.1894,2.1936,2.1281,2.0712,2.958,2.9365,2.7031,2.6444,2.7148,2.7168,2.7598,2.8281,2.8291,2.7851,2.7187,2.7949,2.7422,2.5849,2.4489,0.0,2.2724,2.1418,2.0514,1.9798,1.9935,1.9942,1.9826,2.0007,1.9942,1.9891,2.1225,2.1161,1.9993,2.0996,2.1572,2.1566,2.0893,2.036,1.9985,2.1779,2.2827,2.316,2.51,2.6826,2.8345,2.8389,2.8379,2.834,2.834,2.833,2.8301,2.8301,2.8301,2.8262,2.7539,2.709,2.6973,0.0,0.0,0.0,0.0,0.0,0.0,0.0,0.0,0.0,0.0,0.0,0.0,0.0,0.0,0.0,2.4434,0.0,2.3975,2.3232,0.0,0.0,0.0,2.2435,2.3227,2.3374,2.334,2.3208,0.0,0.0,2.3413,2.332,2.3559,2.4463,2.4424,2.3988,2.3198,2.3744,2.4131,2.3403,2.3384,2.3423,2.3545,2.375,2.4053,2.4385,2.4492,2.4424,2.4339,2.3909,2.3732,2.3612,2.3299,2.2602,2.1401,2.1257,2.1504,2.204,2.1876,2.1659,2.1553,2.0712,1.9911,2.958,2.9521,2.8916,2.8584,2.8467,2.8467,2.8398,2.8301,2.8301,2.8174,2.7998,2.8203,2.8066,2.7633,2.7299,2.6477,2.5224,2.5203,2.4471,2.3405,2.4753,2.4828,2.3837,2.4886,2.4828,2.3837,2.4119,2.4069,2.3779,2.4038,2.3837,2.3222,2.3054,2.3257,2.3835,2.4088,2.4624,2.5324,2.5846,2.7131,2.9238,2.9268,2.9111,2.8779,2.8769,2.8623,2.831,2.8301,2.8301,2.8291,2.8096,2.7705,2.7051,2.5957,0.0,0.0,0.0,0.0,0.0,0.0,0.0,0.0,0.0,2.3359,2.2715,0.0,2.3286,0.0,2.4648,2.5333,2.5226,2.504,0.0,0.0,2.3935,2.3896,2.4102,2.4717,2.4816,2.4189,2.466,2.5117,2.5127,2.4824,2.4932,2.5752,2.4492,2.3325,2.314,2.3832,2.4355,2.4219,2.4658,2.5117,2.5068,2.5157,2.5226,2.5352,2.5137,2.4959,2.4959,2.3692,2.2749,2.2731,2.2373,2.167,2.0458,2.0785,2.0935,2.0426,2.0152,2.0056,2.0047,1.9542,1.9083,3.0213,3.0156,3.0156,2.9902,2.9473,2.9297,2.9082,2.8867,2.8857,2.8857,2.8857,2.8922,2.8867,2.8803,2.8182,2.7382,2.6651,2.6183,2.5188,2.3763,2.4762,2.4386,2.2973,2.374,2.374,2.2928,2.2921,2.2921,2.2928,2.3073,2.3255,2.3468,2.3617,2.4146,2.4919,2.4198,2.4333,2.5513,2.6541,2.791,2.9531,2.958,2.9268,2.8672,2.8643,2.835,2.7744,2.7539,2.7441,2.7441,2.7256,2.6943,2.6465,2.5625,2.4932,0.0,0.0,0.0,0.0,0.0,0.0,0.0,0.0,0.0,0.0,0.0,2.4307,2.4316,2.5527,2.6064,2.5488,2.5439,2.5322,2.5029,2.4953,2.5156,2.5479,2.6016,2.6064,2.5635,2.6006,2.6249,2.6299,2.6094,2.6103,2.6602,2.5625,2.468,2.4348,2.467,2.5,2.4982,2.5372,2.5684,2.5684,2.5684,2.5684,2.5664,2.5537,2.5361,2.5304,2.3878,2.2667,2.2602,2.1872,2.0762,1.9598,1.9652,1.9646,1.8473,1.8067,1.8435,1.9301,1.8894,1.8304,3.0947,3.0898,3.0898,3.0654,3.0264,2.9902,2.9678,2.958,2.958,2.958,2.958,2.958,2.958,2.9514,2.8173,2.7587,2.7539,2.6353,2.5027,2.37,2.3755,2.3005,2.1587,2.158,2.158,2.158,2.1587,2.1587,2.1594,2.1864,2.2669,2.3927,2.4207,2.4599,2.5093,2.3892,2.3734,2.4702,2.6968,2.8526,2.9252,2.9407,2.9023,2.8262,2.8213,2.7832,2.7051,2.666,2.6465,2.6455,2.6055,2.583,2.5957,2.5098,2.4639,0.0,2.39,0.0,0.0,0.0,0.0,0.0,0.0,0.0,0.0,2.5684,2.5732,2.584,2.6572,2.6592,2.5615,2.5527,2.5635,2.5966,2.6015,2.6308,2.708,2.7178,2.7178,2.7178,2.7178,2.7178,2.7178,2.7139,2.709,2.708,2.6934,2.6533,2.5986,2.5771,2.5742,2.5771,2.5723,2.5684,2.5684,2.5684,2.5635,2.5479,2.5314,2.5382,2.505,2.3608,2.2469,2.2345,2.1184,1.9835,1.8568,1.8439,1.8061,1.68,1.6564,1.707,1.8319,1.8072,1.7498,3.1201,3.0898,3.0898,3.084,3.0752,3.0674,3.0234,2.958,2.958,2.958,2.958,2.958,2.958,2.957,2.9271,2.9159,2.9178,2.9212,2.9069,2.8782,2.9147,2.9189,2.8886,2.8886,2.8877,2.8886,2.8886,2.8886,2.8886,2.8969,2.8781,2.8369,2.8416,2.8164,2.7659,0.0,0.0,0.0,2.6214,2.7384,2.7559,2.8201,2.8291,2.7865,2.7836,0.0,2.7051,2.6943,2.6894,2.6885,2.6494,0.0,0.0,0.0,0.0,0.0,0.0,0.0,0.0,0.0,0.0,0.0,2.5489,2.5508,2.5664,2.5684,2.5976,2.6699,2.6924,2.7207,2.7637,2.7676,2.7715,2.7793,2.7803,2.7871,2.8037,2.8047,2.8047,2.8057,2.8047,2.8047,2.7998,2.7764,2.7549,2.7529,2.7236,2.6963,2.6807,2.6484,2.6269,2.625,2.5986,2.5703,2.5684,2.5684,2.5226,2.4461,2.4097,2.3692,2.2759,2.1357,2.0291,2.0319,1.9674,1.8909,1.771,1.801,1.8079,1.6882,1.662,1.6608,1.6497,1.6339,1.6157,3.1719,0.0,3.1523,3.1523,0.0,3.1523,3.1269,3.0878,3.04,3.0225,3.0225,3.0225,3.0225,3.0225,3.0225,3.0225,3.0234,3.0439,3.0103,2.9271,2.8751,2.8068,2.7289,2.6426,2.6062,2.6053,2.6062,2.6062,2.6062,2.6053,2.5803,2.538,2.5372,2.5191,2.4786,2.5542,2.5823,2.5444,2.5766,2.6493,2.7728,2.8131,2.8442,2.8643,0.0,0.0,0.0,0.0,0.0,0.0,0.0,0.0,0.0,0.0,0.0,2.6367,2.5927,2.5869,2.6328,2.6317,2.6502,2.6963,2.6992,2.6816,2.6356,2.6748,2.7178,2.7598,2.7646,2.7822,2.8232,2.8301,2.8301,2.8301,2.8301,2.8301,2.8301,2.8301,2.8301,2.8301,2.8301,2.8301,2.8281,2.8125,2.8041,2.7969,2.7793,2.7575,2.7588,2.709,2.665,2.6435,2.623,2.5986,2.5684,2.5069,2.4559,2.3791,2.3126,2.2508,2.1853,2.0538,1.9576,1.9517,1.8934,1.8074,1.7608,1.7788,1.7789,1.7164,1.6921,1.6787,1.6353,1.6152,1.6052,3.2297,3.2158,3.1844,3.1713,3.1713,3.1713,3.1905,3.2119,0.0,0.0,0.0,3.1123,3.1123,3.1103,3.1045,3.0879,3.0566,3.0489,2.958,2.7931,2.6651,2.5322,2.3993,2.264,2.1971,2.1964,2.1964,2.1964,2.1964,2.1964,2.1964,2.1964,2.1964,2.1964,2.2027,2.3014,2.4693,2.6711,2.5435,2.5838,2.8065,2.8016,2.8408,2.9365,2.9336,2.9014,2.832,2.7959,2.7783,2.7764,2.7363,2.7041,2.6855,2.6768,2.6602,2.6278,2.6249,2.6582,2.7187,2.7236,2.7539,2.8252,2.8301,2.7988,2.7285,2.7891,2.8301,2.8301,2.8301,2.8291,2.8301,2.8301,2.8301,2.8301,2.8301,2.8301,2.8301,2.8301,2.8301,2.8301,2.8301,2.8184,2.7897,2.7833,2.778,2.7501,2.7166,2.7501,2.7469,2.6888,2.6442,2.6097,2.562,2.5418,2.5001,2.4176,2.3364,2.2785,2.1963,2.1288,2.0888,2.0033,1.9324,1.9117,1.8297,1.7726,1.7635,1.7601,1.7554,1.7326,1.728,1.7154,1.6901,1.6633,1.6482,3.25,3.2037,3.0562,2.9856,2.9856,2.9847,3.0747,3.2158,3.2041,3.1992,3.1992,3.1992,3.1982,3.2023,3.1601,3.0682,2.9346,2.8947,2.7871,0.0,2.6098,2.5855,2.568,2.5428,2.5306,2.5314,2.5253,2.5314,2.5314,2.5261,2.5314,2.5261,2.5314,2.5261,2.5253,2.417,2.4432,2.6061,2.5217,2.5535,2.7217,2.6619,2.6958,2.8369,2.8506,2.8428,2.8301,2.8252,2.8203,2.8193,2.7803,2.7861,2.8506,2.8213,2.8154,2.8437,2.8467,2.8369,2.8135,2.8115,2.8164,2.8271,2.8301,2.8232,2.8135,2.8223,2.8301,2.8301,2.8301,2.8301,2.8301,2.8301,2.8301,2.8301,2.8301,2.8301,2.8301,2.8301,2.8237,2.8184,2.8291,2.7726,2.6608,2.6381,2.5936,2.4884,2.4931,2.4599,2.4824,2.5118,2.5392,2.4943,2.3887,2.3051,2.2902,2.2551,2.1859,2.038,2.0158,1.9598,1.8655,1.8297,1.8042,1.7943,1.7786,1.7635,1.7589,1.7589,1.7555,1.7488,1.7541,1.7462,1.7388,1.7226,1.6978,3.3027,3.2789,3.1922,3.1599,3.1537,3.0628,3.0112,3.0003,3.0012,3.0847,3.2178,3.2229,3.2229,3.2088,3.0935,3.0021,2.9258,2.8096,2.7207,2.6462,2.5517,2.514,2.5015,2.4265,2.3836,2.3828,2.3828,2.3836,2.3828,2.3828,2.3828,2.3836,2.3828,2.4272,2.5022,2.4406,2.4841,2.6384,2.4897,2.5318,2.7701,2.7458,2.8039,2.9641,2.9697,2.9707,2.9707,2.9697,2.9707,2.9697,2.9521,2.9482,2.959,2.9434,2.9307,2.9277,2.8406,2.8115,2.8598,2.8418,2.8301,2.8301,2.8301,2.8301,2.8301,2.8301,2.8301,2.8301,2.8301,2.8301,2.8301,2.8301,2.8301,2.8301,2.8301,2.8301,2.8301,2.8301,2.795,2.7276,2.7114,2.6499,2.5041,2.4875,2.4654,2.3877,2.3766,2.3766,2.371,2.346,2.3497,2.3767,2.3307,2.2782,2.2311,2.1663,2.0878,1.9949,1.9235,1.8485,1.7741,1.7589,1.7589,1.7589,1.7589,1.7589,1.7589,1.7589,1.7589,1.7589,1.7589,1.7589,1.7562,1.7514,1.7235,3.3418,3.3355,3.2956,3.2829,3.2629,3.0973,2.967,2.8755,2.8427,2.9348,3.1155,3.1304,3.1294,3.1161,2.9717,2.885,2.8329,2.6988,2.6136,2.5696,2.4473,2.384,2.371,2.2562,2.1984,2.1984,2.1984,2.1984,2.1984,2.1984,2.1984,2.1984,2.1984,2.2621,2.3833,2.384,2.4667,2.6112,2.4669,2.5153,2.7823,2.7935,2.8696,3.0216,3.0694,3.0898,3.0898,3.0898,3.0704,3.0401,3.0704,3.0606,2.9901,3.0179,3.0156,2.9653,2.853,2.8136,2.8781,2.8288,2.8003,2.8291,2.8004,2.778,2.7789,2.778,2.796,2.8237,2.8301,2.8301,2.8301,2.8301,2.8301,2.8301,2.795,2.7897,2.8184,2.7726,2.706,2.6164,2.5827,2.4986,2.3766,2.3319,2.3103,2.2766,2.283,2.2822,2.2653,2.1764,2.1587,2.2029,2.2316,2.2017,2.1713,2.0835,2.0055,1.9772,1.8874,1.8171,1.7816,1.7695,1.7635,1.7622,1.7589,1.7589,1.7589,1.7589,1.7589,1.7589,1.7589,1.7589,1.7582,1.7575,1.7455,3.3428,3.3155,3.1835,3.1038,3.0909,2.9279,2.9279,3.0125,2.8886,2.827,2.862,2.8597,2.8572,2.849,2.7969,2.6987,2.567,2.4932,2.3919,2.2721,2.2306,2.2241,2.2334,2.2063,2.1984,2.2004,2.2017,2.2038,2.2038,2.2017,2.1997,2.1984,2.1984,2.2077,2.2254,2.2254,2.3021,2.461,2.4414,2.5049,2.648,2.6587,2.7234,2.8614,3.0098,3.0898,3.0713,3.0898,3.0147,2.8911,3.003,3.0128,2.8915,2.9954,3.0625,3.0128,2.9956,2.9672,2.8859,2.7484,2.7142,2.8062,2.7015,2.6336,2.6381,2.6327,2.6888,2.7897,2.8237,2.8184,2.8291,2.8237,2.8121,2.8014,2.7105,2.6825,2.7672,2.5882,2.4654,2.6045,2.4701,2.3431,2.2145,2.1813,2.1316,2.0429,2.0378,2.0321,2.0263,2.0097,1.9866,1.9876,1.9818,1.9802,1.9561,1.921,1.9137,1.8843,1.8609,1.8317,1.811,1.7916,1.7876,1.7709,1.7589,1.7589,1.7589,1.7589,1.7589,1.7589,1.7589,1.7589,1.7589,1.7589,1.7515,3.3809,3.3706,3.2734,3.1698,3.0707,2.9995,2.954,2.9083,2.737,2.6573,2.6447,2.5517,2.618,2.8089,2.6888,2.5914,2.5308,2.4071,2.3158,2.2573,2.2505,2.2573,2.2505,2.2505,2.2505,2.2505,2.2573,2.2505,2.2505,2.2498,2.2573,2.2505,2.2505,2.2505,2.2505,2.2505,2.2896,2.3486,2.3486,2.3724,2.418,2.5818,2.6865,2.733,2.8838,2.9149,2.8265,2.8911,2.8664,2.7194,2.7632,2.7692,2.7013,2.8545,2.9328,2.9133,2.8909,2.8217,2.6885,2.591,2.5966,2.7178,2.5842,2.5301,2.5954,2.5261,2.538,2.6717,2.6997,2.6997,2.7015,2.7006,2.6997,2.6943,2.6427,2.6318,2.6825,2.5096,2.3822,2.3535,2.2862,2.1926,2.0702,2.0307,2.0033,1.9482,1.9424,1.9424,1.9424,1.9424,1.9424,1.9424,1.9424,1.9383,1.9199,1.9185,1.9052,1.8844,1.8744,1.8637,1.8384,1.8089,1.7935,1.7869,1.7722,1.7615,1.7589,1.7589,1.7589,1.7589,1.7589,1.7589,1.7589,1.7589,1.7589,3.3505,3.3392,3.2561,3.144,3.0144,2.9678,2.8699,2.7304,2.5584,2.4791,2.4655,2.3461,2.4263,2.6314,2.5315,2.4791,2.4581,2.3454,2.2866,2.2866,2.2866,2.2859,2.2866,2.2866,2.2866,2.2866,2.2853,2.2853,2.2866,2.2866,2.2866,2.2866,2.2866,2.2866,2.2866,2.2866,2.2866,2.2928,2.2866,2.2752,2.2862,2.4679,2.5823,2.5967,2.7495,2.7817,2.689,2.7479,2.7297,2.6106,2.5976,2.5802,2.5444,2.6901,2.7931,2.828,2.7674,2.6981,2.5982,2.4905,2.4728,2.5717,2.4547,2.4024,2.4572,2.3871,2.3766,2.4591,2.4867,2.4994,2.6063,2.5726,2.5489,2.5489,2.5206,2.4986,2.5325,2.3877,2.2266,2.1699,2.1365,2.0644,1.97,1.9482,1.9482,1.9424,1.9424,1.9424,1.9424,1.9424,1.9424,1.9424,1.9424,1.9424,1.9424,1.9403,1.9245,1.9152,1.9045,1.8945,1.8684,1.8417,1.8162,1.8196,1.7909,1.7736,1.7749,1.7716,1.7602,1.7595,1.7589,1.7589,1.7589,1.7589,1.7147,3.1971,3.1743,3.0004,2.9167,2.8616,2.7124,2.6148,2.5921,2.3945,2.314,2.3283,2.2996,2.2996,2.3331,2.3263,2.3065,2.3065,2.2996,2.2866,2.2866,2.2866,2.2866,2.2866,2.2866,2.2866,2.2866,2.2866,2.2866,2.2866,2.2866,2.2866,2.2866,2.2866,2.2866,2.2866,2.2866,2.2866,2.2866,2.2866,2.2853,2.2901,2.3079,2.3701,2.454,2.6112,2.7395,2.8114,2.7238,2.6269,2.5932,2.5802,2.52,2.4062,2.5261,2.6712,2.7991,2.6867,2.6525,2.6905,2.4619,2.3503,2.4335,2.3173,2.218,2.2509,2.2059,2.19,2.1919,2.2089,2.2983,2.5206,2.4544,2.3933,2.3822,2.2702,2.2702,2.3758,2.1601,2.0544,2.0973,2.0422,1.9707,1.9424,1.9424,1.9424,1.9424,1.9424,1.9424,1.9424,1.9424,1.9424,1.9424,1.9424,1.9424,1.9424,1.9424,1.9417,1.9292,1.9225,1.9232,1.9045,1.8858,1.8691,1.851,1.8223,1.8043,1.7922,1.7856,1.7695,1.7629,1.7602,1.7595,1.7589,1.7589,1.7041,3.326,3.172,2.9791,2.8949,2.8775,2.816,2.7876,2.7544,2.5716,2.4897,2.4656,2.3488,2.2866,2.2866,2.2866,2.2866,2.2866,2.2866,2.2866,2.2866,2.2866,2.2866,2.2866,2.2866,2.2866,2.2866,2.2866,2.2866,2.2866,2.2866,2.2866,2.2866,2.2866,2.2866,2.2866,2.2866,2.2866,2.2866,2.2866,2.2866,2.2866,2.2866,2.3079,2.3475,2.484,2.5279,2.4494,2.4721,2.4356,2.325,2.2998,2.2577,2.2215,2.3566,2.5208,2.647,2.5322,2.467,2.4804,2.3024,2.2276,2.3225,2.2081,2.1448,2.1693,2.1111,2.075,2.1261,2.0644,2.1259,2.2533,2.2702,2.2371,2.2307,2.1919,2.1749,2.187,2.0651,1.9649,1.9982,1.9649,1.9424,1.9424,1.9424,1.9424,1.9424,1.9424,1.9424,1.9424,1.9424,1.9424,1.9424,1.9424,1.9424,1.9424,1.9424,1.9424,1.9424,1.9397,1.9377,1.9205,1.9011,1.8838,1.8784,1.8531,1.8323,1.8243,1.7805,1.7681,1.7856,1.7816,1.7662,1.7589,1.7444,1.6518,3.3048,3.0454,2.9037,2.8067,2.7486,2.7486,2.7424,2.7169,2.5871,2.5298,2.4977,2.3783,2.3106,2.3026,2.3013,2.2946,2.2873,2.2866,2.2866,2.2866,2.2866,2.2866,2.2866,2.2866,2.2866,2.2866,2.2866,2.2866,2.2866,2.2866,2.2866,2.2866,2.2866,2.2866,2.2866,2.2866,2.2866,2.2866,2.2866,2.2866,2.2866,2.2866,2.2866,2.3038,2.3795,2.3928,2.2918,2.3335,2.3243,2.2373,2.1676,2.1209,2.1249,2.2654,2.4054,2.4962,2.4232,2.3566,2.338,2.2034,2.1449,2.2167,2.1382,2.1012,2.1437,2.0481,2.0334,2.0554,2.0132,1.9931,2.0594,2.0923,2.0923,2.0866,2.0866,2.0866,2.0866,2.004,1.9482,1.9482,1.9482,1.9424,1.9424,1.9424,1.9424,1.9424,1.9424,1.9424,1.9424,1.9424,1.9424,1.9424,1.9424,1.9424,1.9424,1.9424,1.9424,1.9424,1.9424,1.9424,1.939,1.9145,1.9045,1.9005,1.8808,1.8657,1.8298,1.7857,1.7779,1.7897,1.8003,1.7822,1.7516,1.7099,1.5922,3.1017,2.8087,2.7563,2.6698,2.5345,2.5259,2.4467,2.4483,2.4272,2.4323,2.4181,2.3799,2.3534,2.3374,2.3327,2.3166,2.2946,2.2913,2.2893,2.2866,2.2866,2.2866,2.2866,2.2866,2.2866,2.2866,2.2866,2.2866,2.2866,2.2866,2.2866,2.2866,2.2866,2.2866,2.2866,2.2866,2.2866,2.2866,2.2866,2.2866,2.2866,2.2866,2.2866,2.2866,2.3038,2.3492,2.4525,2.3234,2.289,2.3435,2.2366,2.1467,2.1346,2.2529,2.3512,2.3504,2.3512,2.3504,2.3325,2.1978,2.1102,2.1281,2.0904,2.075,2.076,2.0275,1.9906,1.9897,1.9722,1.9502,1.9546,1.9649,1.9642,1.943,1.9649,1.9649,1.9533,1.9482,1.9424,1.9424,1.9424,1.9424,1.9424,1.9424,1.9424,1.9424,1.9424,1.9424,1.9424,1.9424,1.9424,1.9424,1.9424,1.9424,1.9424,1.9424,1.9424,1.9424,1.9424,1.9424,1.9424,1.9252,1.9239,1.9199,1.8448,1.8248,1.778,1.7297,1.6806,1.69,1.726,1.7271,1.6665,1.5886,1.4902,3.053,2.9464,2.9401,2.9052,2.8386,2.8386,2.7689,2.6394,2.6113,2.5313,2.4244,2.3855,2.3785,2.3654,2.3627,2.3467,2.3193,2.3173,2.3073,2.2899,2.2866,2.2866,2.2866,2.2866,2.2866,2.2866,2.2866,2.2866,2.2866,2.2866,2.2866,2.2866,2.2866,2.2866,2.2866,2.2866,2.2866,2.2866,2.2866,2.2866,2.2866,2.2866,2.2866,2.2866,2.2859,2.3147,2.3452,2.2788,2.2592,2.2904,2.2083,2.1416,2.1303,2.1601,2.1846,2.1853,2.1915,2.1846,2.1846,2.1475,2.1102,2.1089,2.1015,2.0875,2.0708,2.0508,2.0214,1.99,1.9713,1.9599,1.9477,1.9424,1.9424,1.9424,1.9424,1.9424,1.9424,1.9424,1.9424,1.9424,1.9424,1.9424,1.9424,1.9424,1.9424,1.9424,1.9424,1.9424,1.9424,1.9424,1.9424,1.9424,1.9424,1.9424,1.9424,1.9424,1.9424,1.9424,1.9424,1.9424,1.9424,1.9424,1.9424,1.8978,1.8288,1.7673,1.721,1.6419,1.5691,1.5357,1.5327,1.5182,1.5009,1.4354,1.3522,2.9892,2.9258,2.9258,2.8828,2.8326,2.89,2.8637,2.7548,2.7274,2.6474,2.5457,2.4458,2.4028,2.3948,2.3928,2.3768,2.3507,2.3494,2.3333,2.304,2.2961,2.2866,2.2866,2.2866,2.2866,2.2866,2.2866,2.2866,2.2866,2.2866,2.2866,2.2866,2.2866,2.2866,2.2866,2.2866,2.2866,2.2866,2.2866,2.2866,2.2866,2.2866,2.2866,2.2866,2.2866,2.2866,2.2914,2.2679,2.2532,2.2345,2.1929,2.1534,2.1283,2.1176,2.1102,2.1102,2.1102,2.1102,2.1102,2.1166,2.1102,2.1102,2.1102,2.1036,2.0855,2.0768,2.0474,2.0207,1.992,1.972,1.9566,1.947,1.943,1.9424,1.9424,1.9424,1.9424,1.9424,1.9424,1.9424,1.9424,1.9424,1.9424,1.9424,1.9424,1.9424,1.9424,1.9424,1.9424,1.9424,1.9424,1.9424,1.9424,1.9424,1.9424,1.9424,1.9424,1.9424,1.9424,1.9424,1.9424,1.9424,1.9424,1.859,1.7867,1.7026,1.6465,1.4731,1.3673,1.3519,1.3722,1.4218,1.4427,1.3349,1.247,2.9123,2.7578,2.7643,2.6997,2.5852,2.728,2.7852,2.7498,2.7483,2.7251,2.6685,2.5203,2.4449,2.4255,2.4222,2.4068,2.3834,2.3794,2.3641,2.3347,2.312,2.3042,2.2879,2.2866,2.2866,2.2866,2.2866,2.2866,2.2866,2.2866,2.2866,2.2866,2.2866,2.2866,2.2866,2.2866,2.2866,2.2866,2.2866,2.2866,2.2866,2.2866,2.2866,2.2866,2.2866,2.2866,2.2859,2.2826,2.2699,2.2392,2.1897,2.1661,2.1568,2.1269,2.1102,2.1102,2.1102,2.1102,2.1102,2.1102,2.1102,2.1102,2.1102,2.1102,2.1042,2.0869,2.0702,2.0561,2.0147,1.9833,1.9746,1.9526,1.9444,1.9424,1.9424,1.9424,1.9424,1.9424,1.9424,1.9424,1.9424,1.9424,1.9424,1.9424,1.9424,1.9424,1.9424,1.9424,1.9424,1.9424,1.9424,1.9424,1.9424,1.9424,1.9424,1.9424,1.9424,1.9424,1.9424,1.9424,1.9424,1.9424,1.9424,1.859,1.7214,1.6438,1.529,1.3589,1.2631,1.2647,1.3158,1.3839,1.3301,1.2065,1.1566,2.7924,2.7643,2.898,2.925,2.8892,2.9393,2.8701,2.7578,2.7505,2.6787,2.5573,2.4851,2.4589,2.4523,2.4509,2.4362,2.4142,2.4088,2.3935,2.3681,2.3581,2.3323,2.2939,2.2866,2.2866,2.2866,2.2866,2.2866,2.2866,2.2866,2.2866,2.2866,2.2866,2.2866,2.2866,2.2866,2.2866,2.2866,2.2866,2.2866,2.2866,2.2866,2.2866,2.2866,2.2866,2.2866,2.2866,2.2866,2.2719,2.2425,2.2078,2.1829,2.1635,2.1289,2.1122,2.1102,2.1102,2.1102,2.1102,2.1102,2.1102,2.1102,2.1102,2.1102,2.1102,2.1042,2.0889,2.0688,2.0321,2.0034,1.982,1.9539,1.945,1.9424,1.9424,1.9424,1.9424,1.9424,1.9424,1.9424,1.9424,1.9424,1.9424,1.9424,1.9424,1.9424,1.9424,1.9424,1.9424,1.9424,1.9424,1.9424,1.9424,1.9424,1.9424,1.9424,1.9424,1.9424,1.9424,1.9424,1.9424,1.9424,1.9424,1.9127,1.6626,1.537,1.4059,1.2551,1.2273,1.1736,1.1515,1.1677,1.1228,1.0374,1.0472,2.7005,2.6357,2.7483,2.7901,2.8046,2.8765,2.8485,2.7643,2.7505,2.6925,2.5786,2.4931,2.4629,2.4629,2.4629,2.4482,2.4396,2.4389,2.4222,2.3961,2.3808,2.35,2.3133,2.2953,2.2866,2.2866,2.2866,2.2866,2.2866,2.2866,2.2866,2.2866,2.2866,2.2866,2.2866,2.2866,2.2866,2.2866,2.2866,2.2866,2.2866,2.2866,2.2866,2.2866,2.2866,2.2866,2.2866,2.2866,2.2772,2.2579,2.2325,2.2038,2.1809,2.1521,2.1249,2.1129,2.1102,2.1102,2.1102,2.1102,2.1102,2.1102,2.1102,2.1102,2.1102,2.1102,2.1009,2.0869,2.0588,2.0301,1.998,1.9619,1.9457,1.9424,1.9424,1.9424,1.9424,1.9424,1.9424,1.9424,1.9424,1.9424,1.9424,1.9424,1.9424,1.9424,1.9424,1.9424,1.9424,1.9424,1.9424,1.9424,1.9424,1.9424,1.9424,1.9424,1.9424,1.9424,1.9062,1.9127,1.9185,1.9243,1.9424,1.8771,1.6267,1.4366,1.3531,1.2333,1.0959,1.0358,0.9819,0.9819,0.9819,0.9819,0.9819,2.6502,2.4924,2.4924,2.4777,2.5139,2.6641,2.7433,2.7143,2.7005,2.7005,2.6575,2.5279,2.4629,2.4629,2.4629,2.4623,2.4542,2.4589,2.4462,2.4222,2.3988,2.3694,2.3467,2.3106,2.2939,2.2879,2.2866,2.2866,2.2866,2.2866,2.2866,2.2866,2.2866,2.2866,2.2866,2.2866,2.2866,2.2866,2.2866,2.2866,2.2866,2.2866,2.2866,2.2866,2.2866,2.2866,2.2866,2.2866,2.2846,2.2859,2.2572,2.2285,2.2011,2.1744,2.145,2.1216,2.1142,2.1102,2.1102,2.1102,2.1102,2.1102,2.1102,2.1102,2.1102,2.1102,2.1089,2.1056,2.0835,2.0488,2.0107,1.9666,1.9477,1.9424,1.9424,1.9424,1.9424,1.9424,1.9424,1.9424,1.9424,1.9424,1.9424,1.9424,1.9424,1.9424,1.9424,1.9424,1.9424,1.9424,1.9424,1.9424,1.9424,1.9424,1.9424,1.9424,1.9424,1.9366,1.8765,1.8642,1.8758,1.8881,1.9243,1.8467,1.6326,1.502,1.4307,1.2753,1.0539,0.9819,0.9819,0.9819,0.9819,0.9819,0.9819,2.7295,2.6859,2.6859,2.5998,2.5065,2.6648,2.6641,2.5345,2.5279,2.5352,2.5139,2.4777,2.4629,2.4629,2.4629,2.4629,2.4629,2.4629,2.4589,2.4523,2.4242,2.4102,2.3895,2.3487,2.3113,2.2953,2.2873,2.2934,2.2934,2.2866,2.2866,2.2866,2.2866,2.2866,2.2866,2.2866,2.2866,2.2866,2.2866,2.2866,2.2866,2.2866,2.2866,2.2866,2.2866,2.2866,2.2866,2.2866,2.2866,2.2792,2.2605,2.2405,2.2231,2.1837,2.1608,2.141,2.1209,2.1102,2.1102,2.1102,2.1102,2.1102,2.1102,2.1102,2.1102,2.1102,2.1102,2.1056,2.0835,2.0494,2.0013,1.9599,1.947,1.9437,1.9424,1.9424,1.9424,1.9424,1.9424,1.9424,1.9424,1.9424,1.9424,1.9424,1.9424,1.9424,1.9424,1.9424,1.9424,1.9424,1.9424,1.9424,1.9424,1.9424,1.9424,1.9424,1.9424,1.9127,1.8525,1.804,1.8163,1.8046,1.8169,1.7636,1.6562,1.5435,1.4247,1.2217,0.9819,0.9819,0.9819,0.9819,0.9819,0.9819,0.9819,2.9623,2.8836,2.8836,2.8197,2.741,2.7425,2.6932,2.5925,2.4918,2.4629,2.4629,2.4629,2.4629,2.4629,2.4629,2.4629,2.4629,2.4629,2.4629,2.4596,2.4456,2.4335,2.4182,2.3888,2.3534,2.316,2.3086,2.302,2.2899,2.2866,2.2866,2.2866,2.2866,2.2866,2.2866,2.2866,2.2866,2.2866,2.2866,2.2866,2.2866,2.2866,2.2866,2.2866,2.2866,2.2866,2.2866,2.2866,2.2866,2.2819,2.2706,2.2552,2.2385,2.2004,2.1789,2.1588,2.1276,2.1116,2.1102,2.1102,2.1102,2.1102,2.1102,2.1102,2.1102,2.1102,2.1102,2.1082,2.0935,2.0648,2.0074,1.9746,1.9553,1.9444,1.9424,1.9424,1.9424,1.9424,1.9424,1.9424,1.9424,1.9424,1.9424,1.9424,1.9424,1.9424,1.9424,1.9424,1.9424,1.9424,1.9424,1.9424,1.9424,1.9424,1.9424,1.9424,1.9424,1.8887,1.8163,1.7683,1.7443,1.7149,1.6862,1.6208,1.5494,1.454,1.3232,1.1137,0.9819,0.9819,0.9819,0.9819,0.9819,0.9819,0.9819,3.2237,3.0734,3.0743,3.0593,3.0097,2.898,2.8357,2.7635,2.5859,2.5279,2.4924,2.4777,2.4629,2.4629,2.4629,2.4629,2.4629,2.4629,2.4629,2.4616,2.4609,2.4482,2.4322,2.4209,2.3981,2.35,2.3333,2.3166,2.3006,2.2886,2.2866,2.2866,2.2866,2.2866,2.2866,2.2866,2.2866,2.2866,2.2866,2.2866,2.2866,2.2866,2.2866,2.2866,2.2866,2.2866,2.2866,2.2866,2.2866,2.2866,2.2866,2.2726,2.2492,2.2151,2.1897,2.1681,2.1323,2.1122,2.1102,2.1102,2.1102,2.1102,2.1102,2.1102,2.1102,2.1102,2.1102,2.1082,2.0982,2.0755,2.0287,1.9933,1.9653,1.9511,1.9424,1.9424,1.9424,1.9424,1.9424,1.9424,1.9424,1.9424,1.9424,1.9424,1.9424,1.9424,1.9424,1.9424,1.9424,1.9424,1.9424,1.9424,1.9424,1.9424,1.9424,1.9424,1.9424,1.8706,1.7929,1.6915,1.6374,1.5483,1.4955,1.502,1.4366,1.3471,1.2513,1.102,1.0122,0.994,0.9819,0.9819,0.9819,0.9819,0.9819,3.3022,3.2743,3.2735,3.1808,3.0664,3.1597,3.1175,2.9678,2.7844,2.6997,2.6721,2.5352,2.4777,2.4629,2.4629,2.4629,2.4629,2.4629,2.4629,2.4629,2.4629,2.4563,2.4536,2.4496,2.4335,2.4001,2.3647,2.3354,2.3207,2.3006,2.2933,2.2886,2.2866,2.2866,2.2866,2.2866,2.2866,2.2866,2.2866,2.2866,2.2866,2.2866,2.2866,2.2866,2.2866,2.2866,2.2866,2.2866,2.2866,2.2866,2.2866,2.2901,2.2679,2.2278,2.2004,2.1804,2.1423,2.1156,2.1116,2.1102,2.1102,2.1102,2.1102,2.1102,2.1102,2.1102,2.1102,2.1056,2.0902,2.0628,2.0274,2.0,1.9693,1.9531,1.9424,1.9424,1.9424,1.9424,1.9424,1.9424,1.9424,1.9424,1.9424,1.9424,1.9424,1.9424,1.9424,1.9424,1.9424,1.9424,1.9424,1.9424,1.9424,1.9424,1.9424,1.9424,1.9307,1.8583,1.7513,1.5671,1.4837,1.3526,1.2988,1.3108,1.3172,1.2633,1.1619,1.0539,1.0179,0.9819,0.9819,0.9819,0.9819,0.9819,0.9819,3.4659,3.4668,3.4659,3.4089,3.3378,3.3161,3.2735,3.1597,2.9829,2.8421,2.7505,2.6502,2.5492,2.4851,2.4629,2.4629,2.4629,2.4629,2.4629,2.4629,2.4629,2.4629,2.4629,2.4629,2.4489,2.4342,2.3995,2.3681,2.3541,2.3253,2.3113,2.306,2.2959,2.2866,2.2866,2.2866,2.2866,2.2866,2.2866,2.2866,2.2866,2.2866,2.2866,2.2866,2.2866,2.2866,2.2866,2.2866,2.2866,2.2866,2.2866,2.2866,2.2739,2.2492,2.2138,2.1944,2.157,2.1249,2.1142,2.1102,2.1102,2.1102,2.1102,2.1102,2.1102,2.1102,2.1102,2.1069,2.1015,2.0708,2.022,2.0094,1.9826,1.9531,1.9424,1.9424,1.9424,1.9424,1.9424,1.9424,1.9424,1.9424,1.9424,1.9424,1.9424,1.9424,1.9424,1.9424,1.9424,1.9424,1.9424,1.9424,1.9424,1.9424,1.9424,1.9424,1.9424,1.8706,1.7097,1.5257,1.3765,1.2693,1.1796,1.1438,1.1378,1.1736,1.102,1.0061,0.9879,0.9819,0.9819,0.9819,0.9819,0.9819,0.9819,3.6103,3.6025,3.6025,3.6025,3.5743,3.4452,3.3812,3.3378,3.1738,3.0113,2.8708,2.7787,2.6575,2.5426,2.4777,2.4629,2.4629,2.4629,2.4629,2.4629,2.4629,2.4629,2.4629,2.4629,2.4616,2.4556,2.4396,2.4142,2.3848,2.3561,2.3407,2.326,2.3046,2.2906,2.2879,2.2866,2.2866,2.2866,2.2866,2.2866,2.2866,2.2866,2.2866,2.2866,2.2866,2.2866,2.2866,2.2866,2.2866,2.2866,2.2866,2.2866,2.2901,2.2639,2.2345,2.2017,2.1782,2.1423,2.1196,2.1102,2.1102,2.1102,2.1102,2.1102,2.1102,2.1102,2.1102,2.1102,2.1076,2.0835,2.0354,2.0167,1.9927,1.9533,1.9424,1.9424,1.9424,1.9424,1.9424,1.9424,1.9424,1.9424,1.9424,1.9424,1.9424,1.9424,1.9424,1.9424,1.9424,1.9424,1.9424,1.9424,1.9424,1.9424,1.9424,1.9424,1.9424,1.9185,1.7038,1.4842,1.3407,1.2093,1.1318,1.0479,1.0778,1.0959,1.0179,0.9819,0.9819,0.9819,0.9819,0.9819,0.9819,0.9819,0.9819,3.6367,3.6035,3.6025,3.6025,3.5957,3.5665,3.5597,3.5314,3.3596,3.2813,3.1825,2.9202,2.7643,2.6859,2.5352,2.4777,2.4703,2.4636,2.4636,2.4629,2.4629,2.4629,2.4629,2.4629,2.4629,2.4629,2.4589,2.4422,2.4148,2.3861,2.3581,2.3387,2.328,2.3133,2.2948,2.2866,2.2866,2.2866,2.2866,2.2866,2.2866,2.2866,2.2866,2.2866,2.2866,2.2866,2.2866,2.2866,2.2866,2.2866,2.2866,2.2866,2.2859,2.2914,2.2492,2.2091,2.1717,2.1416,2.1169,2.1102,2.1102,2.1102,2.1102,2.1102,2.1102,2.1102,2.1102,2.1102,2.1102,2.0875,2.0428,2.0207,1.9933,1.9653,1.9511,1.9426,1.9399,1.9424,1.9424,1.9424,1.9424,1.9424,1.9424,1.9424,1.9424,1.9424,1.9424,1.9424,1.9424,1.9424,1.9424,1.9424,1.9424,1.9424,1.9424,1.9424,1.9424,1.9424,1.6979,1.4604,1.3531,1.2273,1.06,1.0119,1.0361,1.0418,1.0001,0.9819,0.9819,0.9819,0.9819,0.9819,0.9819,0.9819,0.9819,3.6992,3.6367,3.6123,3.6025,3.6025,3.6025,3.6025,3.5811,3.5167,3.4167,3.3101,3.1606,3.0192,2.8844,2.7063,2.6284,2.5998,2.5205,2.4636,2.4703,2.4703,2.4629,2.4629,2.4629,2.4629,2.4629,2.4629,2.4589,2.4376,2.4148,2.3861,2.3601,2.34,2.316,2.2988,2.2873,2.2866,2.2866,2.2866,2.2866,2.2866,2.2866,2.2866,2.2866,2.2866,2.2866,2.2866,2.2866,2.2866,2.2866,2.2866,2.2866,2.2866,2.2819,2.2666,2.2058,2.1884,2.1583,2.1196,2.1122,2.1102,2.1102,2.1102,2.1102,2.1102,2.1102,2.1102,2.1102,2.1102,2.0889,2.0588,2.0494,2.0247,1.9973,1.9679,1.9626,1.9573,1.9457,1.9424,1.9424,1.9424,1.9424,1.9424,1.9424,1.9424,1.9424,1.9424,1.9424,1.9424,1.9424,1.9424,1.9424,1.9424,1.9424,1.9424,1.9424,1.9424,1.8946,1.668,1.4658,1.3889,1.2633,1.0721,0.9819,1.0001,0.994,0.9819,0.9819,0.9819,0.9819,0.9819,0.9819,0.9819,0.9819,0.9819,3.7549,3.6943,3.6406,3.6123,3.6025,3.6025,3.6025,3.6025,3.5957,3.5167,3.4098,3.324,3.1957,3.0389,2.8836,2.8205,2.8133,2.6634,2.5779,2.5499,2.5212,2.5065,2.4777,2.4629,2.4629,2.4629,2.4629,2.4616,2.4563,2.4402,2.4162,2.3875,2.3607,2.3313,2.3046,2.2906,2.2866,2.2866,2.2866,2.2866,2.2866,2.2866,2.2866,2.2866,2.2866,2.2866,2.2866,2.2866,2.2866,2.2866,2.2866,2.2866,2.2866,2.2839,2.264,2.2131,2.1944,2.1683,2.1296,2.1102,2.1102,2.1102,2.1102,2.1102,2.1102,2.1102,2.1102,2.1102,2.1102,2.0955,2.0755,2.0661,2.0461,2.0227,2.0013,1.9953,1.9867,1.9679,1.9591,1.9578,1.9544,1.9424,1.9424,1.9424,1.9424,1.9424,1.9424,1.9424,1.9424,1.9424,1.9307,1.9307,1.9307,1.9307,1.9249,1.9307,1.9366,1.8409,1.6144,1.4777,1.4004,1.2333,1.0301,0.9819,0.9819,0.9819,0.9819,0.9819,0.9819,0.9819,0.9819,0.9819,0.9819,0.9819,0.9819,3.7891,3.7773,3.6963,3.6396,3.6045,3.6025,3.6025,3.6025,3.6025,3.5889,3.5373,3.4089,3.2447,3.0884,3.046,3.0105,3.0097,2.9963,2.8621,2.7635,2.7223,2.6349,2.5566,2.4991,2.4777,2.4629,2.4629,2.4629,2.4629,2.4589,2.4389,2.4168,2.3821,2.3567,2.3267,2.2986,2.2879,2.2866,2.2866,2.2866,2.2866,2.2866,2.2866,2.2866,2.2866,2.2866,2.2866,2.2866,2.2866,2.2866,2.2866,2.2866,2.2866,2.2866,2.2572,2.2138,2.1984,2.1683,2.1276,2.1102,2.1102,2.1102,2.1102,2.1102,2.1102,2.1102,2.1102,2.1102,2.1102,2.0995,2.0802,2.0655,2.0608,2.0474,2.0334,2.0247,2.0127,1.992,1.9793,1.972,1.9653,1.9586,1.9531,1.9551,1.9457,1.945,1.9424,1.9424,1.9424,1.9366,1.9249,1.9127,1.9127,1.9127,1.9068,1.8829,1.8052,1.7214,1.5488,1.4658,1.4183,1.2153,0.9819,0.9819,0.9819,0.9819,0.9819,0.9819,0.9819,0.9819,0.9819,0.9819,0.9819,0.9819,0.9819,3.8164,3.7871,3.7295,3.6816,3.6396,3.6133,3.6025,3.6025,3.6025,3.6025,3.5947,3.5236,3.4521,3.3586,3.2447,3.2097,3.1878,3.0734,2.9963,2.9464,2.8972,2.8053,2.699,2.621,2.5852,2.4918,2.4629,2.4629,2.4629,2.4629,2.4596,2.4362,2.4008,2.3634,2.332,2.3046,2.2899,2.2866,2.2866,2.2866,2.2866,2.2866,2.2866,2.2866,2.2866,2.2866,2.2866,2.2866,2.2866,2.2866,2.2866,2.2866,2.2866,2.2866,2.2559,2.2084,2.1997,2.1677,2.1243,2.1102,2.1102,2.1102,2.1102,2.1102,2.1102,2.1102,2.1102,2.1102,2.1102,2.1015,2.0982,2.0942,2.0902,2.0762,2.0641,2.0541,2.0408,2.0214,2.0087,2.0034,1.9967,1.99,1.9766,1.9653,1.9526,1.9412,1.9444,1.9424,1.9424,1.9366,1.9185,1.8706,1.859,1.7812,1.7636,1.7097,1.6621,1.5784,1.4837,1.4123,1.3407,1.1675,0.9822,0.9822,0.9819,0.9819,0.9819,0.9819,0.9819,0.9819,0.9819,0.9819,0.9819,0.9819,0.9819,3.8398,3.8057,3.7519,3.7051,3.6631,3.6201,3.6025,3.6025,3.6025,3.6025,3.6025,3.6025,3.6025,3.5587,3.4737,3.402,3.3734,3.2874,3.1878,3.1386,3.0963,2.9971,2.8908,2.8061,2.7418,2.5845,2.5352,2.5426,2.4636,2.4636,2.4616,2.4469,2.4168,2.3794,2.3454,2.3073,2.2866,2.2866,2.2866,2.2866,2.2866,2.2866,2.2866,2.2866,2.2866,2.2866,2.2866,2.2866,2.2866,2.2866,2.2866,2.2866,2.2866,2.2786,2.2599,2.2205,2.1924,2.171,2.1283,2.1102,2.1102,2.1102,2.1102,2.1102,2.1102,2.1102,2.1102,2.1102,2.1102,2.1102,2.1102,2.1069,2.1056,2.0929,2.0882,2.0795,2.0702,2.0555,2.0448,2.0354,2.0254,2.01,2.0047,1.9893,1.9673,1.9519,1.9444,1.9424,1.9424,1.9301,1.9062,1.8467,1.7806,1.6797,1.573,1.5548,1.5429,1.5074,1.4123,1.3108,1.2093,1.06,0.9822,0.9819,0.9819,0.9819,0.9819,0.9819,0.9819,0.9819,0.9819,0.9819,0.9819,0.9819,0.9819,3.8564,3.8457,3.7666,3.708,3.668,3.6211,3.6025,3.6025,3.6025,3.6025,3.6025,3.6025,3.6025,3.5947,3.5597,3.5451,3.5519,3.5304,3.459,3.3378,3.3092,3.1948,3.0884,3.0034,2.9258,2.7852,2.6997,2.6145,2.4924,2.4636,2.4636,2.4529,2.4242,2.3915,2.3701,2.3153,2.2879,2.2866,2.2866,2.2866,2.2866,2.2866,2.2866,2.2866,2.2866,2.2866,2.2866,2.2866,2.2866,2.2866,2.2866,2.2866,2.2866,2.2866,2.2572,2.2064,2.1997,2.1697,2.1182,2.1122,2.1102,2.1102,2.1102,2.1102,2.1102,2.1102,2.1102,2.1102,2.1102,2.1102,2.1102,2.1102,2.1102,2.1089,2.1036,2.0995,2.0902,2.0848,2.0722,2.0668,2.0441,2.0247,2.0173,2.0147,1.9873,1.9659,1.9504,1.943,1.945,1.9249,1.9068,1.7929,1.7032,1.5843,1.4831,1.448,1.4242,1.4004,1.3287,1.2093,1.1378,1.0539,1.0001,0.9879,0.9819,0.9819,0.9819,0.9819,0.9819,0.9819,0.9819,0.9819,0.9819,0.9819,0.9819,3.8574,3.8525,3.7949,3.7471,3.7012,3.6318,3.6025,3.6025,3.6025,3.6025,3.6025,3.6025,3.6025,3.6025,3.6025,3.6025,3.6025,3.6025,3.5304,3.5158,3.4874,3.3803,3.2735,3.2018,3.1175,2.9472,2.8341,2.757,2.6568,2.5492,2.4703,2.4536,2.4182,2.3774,2.3454,2.3066,2.2866,2.2866,2.2866,2.2866,2.2866,2.2866,2.2866,2.2866,2.2866,2.2866,2.2866,2.2866,2.2866,2.2866,2.2866,2.2866,2.2866,2.2866,2.2579,2.2131,2.1964,2.1717,2.1283,2.1102,2.1102,2.1102,2.1102,2.1102,2.1102,2.1102,2.1102,2.1102,2.1102,2.1102,2.1102,2.1102,2.1102,2.1102,2.1076,2.1076,2.1029,2.1015,2.0962,2.0962,2.0822,2.0641,2.0568,2.0454,2.0207,2.0013,1.9826,1.9625,1.9571,1.9296,1.901,1.7396,1.6197,1.495,1.3999,1.3586,1.2633,1.1916,1.1438,1.0657,1.0119,1.0122,1.0001,0.9819,0.9819,0.9819,0.9819,0.9819,0.9819,0.9819,0.9819,0.9819,0.9819,0.9819,0.9819,3.8574,3.8525,3.8105,3.7685,3.7226,3.6543,3.6172,3.6055,3.6025,3.6025,3.6025,3.6025,3.6025,3.6025,3.6025,3.6025,3.6025,3.6025,3.6025,3.6025,3.5957,3.5089,3.4443,3.3951,3.3022,3.1386,3.0113,2.9139,2.736,2.621,2.5352,2.4636,2.4068,2.3768,2.3434,2.316,2.2866,2.2866,2.2866,2.2866,2.2866,2.2866,2.2866,2.2866,2.2866,2.2866,2.2866,2.2866,2.2866,2.2866,2.2866,2.2866,2.2866,2.2799,2.2559,2.2171,2.1724,2.151,2.1203,2.1102,2.1102,2.1102,2.1102,2.1102,2.1102,2.1102,2.1102,2.1102,2.1102,2.1102,2.1102,2.1102,2.1102,2.1102,2.1102,2.1102,2.1102,2.1082,2.1076,2.1089,2.1076,2.0949,2.0855,2.0728,2.0555,2.0388,2.0227,1.996,1.97,1.9469,1.9213,1.8,1.6495,1.5386,1.4009,1.2569,1.1499,1.0061,0.9819,0.9819,0.9819,0.994,0.9879,0.9819,0.9819,0.9819,0.9819,0.9819,0.9819,0.9819,0.9819,0.9819,0.9819,0.9819,0.9819,3.8574,3.8506,3.8125,3.7705,3.7256,3.6758,3.6357,3.6035,3.6025,3.6025,3.6025,3.6025,3.6025,3.6025,3.6025,3.6025,3.6025,3.6025,3.6025,3.6025,3.6025,3.5733,3.5733,3.5597,3.459,3.3734,3.2525,3.0689,2.8068,2.7143,2.621,2.4863,2.4055,2.3801,2.3541,2.3193,2.2913,2.2866,2.2866,2.2866,2.2866,2.2866,2.2866,2.2866,2.2866,2.2866,2.2866,2.2866,2.2866,2.2866,2.2866,2.2866,2.2866,2.2866,2.2492,2.2031,2.1483,2.1223,2.1122,2.1102,2.1102,2.1102,2.1102,2.1102,2.1102,2.1102,2.1102,2.1102,2.1102,2.1102,2.1102,2.1102,2.1102,2.1102,2.1102,2.1102,2.1102,2.1096,2.1096,2.1102,2.1102,2.1042,2.1029,2.0935,2.0802,2.0742,2.0601,2.0514,2.0234,1.99,1.9648,1.9397,1.7833,1.6211,1.4634,1.2793,1.1197,1.0061,0.9819,0.9819,0.9819,0.9819,0.9819,0.9819,0.9819,0.9819,0.9819,0.9819,0.9819,0.9819,0.9819,0.9819,0.9819,0.9819,0.9819,3.8574,3.8564,3.8437,3.7969,3.7236,3.6523,3.6123,3.6025,3.6025,3.6025,3.6025,3.6025,3.6025,3.6025,3.6025,3.6025,3.6025,3.6025,3.6025,3.6025,3.6025,3.6025,3.6025,3.5957,3.5519,3.4874,3.3882,3.2674,3.1051,2.9345,2.6502,2.4756,2.412,2.3913,2.3567,2.3173,2.2973,2.2866,2.2866,2.2866,2.2866,2.2866,2.2866,2.2866,2.2866,2.2866,2.2866,2.2866,2.2866,2.2866,2.2866,2.2866,2.2866,2.2908,2.2666,2.2017,2.1496,2.1102,2.1102,2.1102,2.1116,2.1136,2.1136,2.1102,2.1102,2.1129,2.1129,2.1102,2.1102,2.1102,2.1102,2.1102,2.1102,2.1102,2.1102,2.1102,2.1102,2.1102,2.1102,2.1102,2.1102,2.1102,2.1102,2.1076,2.0962,2.0975,2.0949,2.0875,2.0708,2.0347,2.008,1.9833,1.8917,1.7267,1.5296,1.3425,1.1667,1.0301,1.0065,0.9822,0.9819,0.9819,0.9819,0.9819,0.9819,0.9819,0.9819,0.9819,0.9819,0.9819,0.9819,0.9819,0.9819,0.9819,0.9819,3.8574,3.8574,3.8574,3.8086,3.7236,3.6387,3.6025,3.6025,3.6025,3.6025,3.6025,3.6025,3.6025,3.6025,3.6025,3.6025,3.6025,3.6025,3.6025,3.6025,3.6025,3.6025,3.6025,3.6025,3.5957,3.5519,3.4952,3.396,3.2534,2.9631,2.6641,2.5869,2.4689,2.3977,2.3601,2.3213,2.2913,2.2866,2.2866,2.2866,2.2866,2.2866,2.2866,2.2866,2.2866,2.2866,2.2866,2.2866,2.2866,2.2866,2.2866,2.2866,2.2786,2.2733,2.2452,2.1897,2.1456,2.1169,2.1102,2.1102,2.1176,2.1256,2.1289,2.1376,2.1323,2.1309,2.1196,2.1102,2.1102,2.1102,2.1102,2.1102,2.1102,2.1102,2.1102,2.1102,2.1102,2.1102,2.1102,2.1102,2.1102,2.1102,2.1102,2.1102,2.1096,2.1069,2.1056,2.1029,2.0889,2.0635,2.0474,2.0333,1.9427,1.8233,1.6183,1.4402,1.2873,1.1355,1.02,1.0018,0.9886,0.9819,0.9819,0.9819,0.9819,0.9819,0.9819,0.9819,0.9819,0.9819,0.9819,0.9819,0.9819,0.9819,0.9819,3.8574,3.8574,3.8535,3.8037,3.7246,3.6435,3.6084,3.6025,3.6025,3.6025,3.6025,3.6025,3.6025,3.6025,3.6025,3.6025,3.6025,3.6025,3.6025,3.6025,3.6025,3.6025,3.6025,3.6025,3.6025,3.6025,3.5597,3.4668,3.2674,3.0405,2.8621,2.7525,2.5384,2.4259,2.3745,2.3701,2.3413,2.2934,2.3195,2.3393,2.2996,2.2866,2.2866,2.2866,2.2866,2.2866,2.2866,2.2866,2.2866,2.2866,2.2866,2.2866,2.2712,2.2438,2.2164,2.1944,2.1583,2.1403,2.1323,2.1329,2.141,2.151,2.1655,2.1677,2.1637,2.1543,2.1423,2.1383,2.141,2.1329,2.1309,2.1263,2.1243,2.1162,2.1102,2.1102,2.1102,2.1102,2.1102,2.1102,2.1102,2.1102,2.1102,2.1102,2.1102,2.1102,2.1102,2.1102,2.1029,2.0842,2.0762,2.0675,2.0018,1.9071,1.7696,1.5929,1.4392,1.2887,1.1267,1.0131,0.9965,0.9869,0.9819,0.9819,0.9819,0.9819,0.9819,0.9819,0.9819,0.9819,0.9819,0.9819,0.9819,0.9819,0.9819,3.8574,3.8545,3.8213,3.7773,3.7256,3.6738,3.6318,3.6035,3.6025,3.6025,3.6025,3.6025,3.6025,3.6025,3.6025,3.6025,3.6025,3.6025,3.6025,3.6025,3.6025,3.6025,3.6025,3.6025,3.6025,3.6025,3.5743,3.5158,3.3457,3.1895,3.0097,2.7848,2.6225,2.5482,2.4481,2.4514,2.4474,2.3734,2.406,2.3992,2.3263,2.2996,2.2866,2.2866,2.2866,2.2866,2.2866,2.2866,2.2866,2.2866,2.2866,2.2866,2.2839,2.2498,2.2338,2.2238,2.1924,2.1737,2.1683,2.1677,2.175,2.1817,2.1891,2.1924,2.1911,2.1824,2.1777,2.1764,2.1697,2.159,2.151,2.1456,2.1396,2.1263,2.1122,2.1122,2.1116,2.1102,2.1102,2.1102,2.1102,2.1102,2.1102,2.1102,2.1102,2.1102,2.1102,2.1102,2.1102,2.0995,2.0975,2.0882,2.0722,1.9863,1.8537,1.7354,1.5711,1.418,1.2604,1.1445,1.0297,0.9988,0.9873,0.9836,0.9819,0.9819,0.9819,0.9819,0.9819,0.9819,0.9819,0.9819,0.9819,0.9819,0.9819,3.8574,3.8516,3.8096,3.7676,3.7266,3.6846,3.6426,3.6074,3.6025,3.6025,3.6025,3.6025,3.6025,3.6025,3.6025,3.6025,3.6025,3.6025,3.6025,3.6025,3.6025,3.6025,3.6025,3.6025,3.6025,3.6025,3.5957,3.5382,3.4383,3.324,3.151,2.9786,2.8675,2.7247,2.615,2.6503,2.6254,2.5457,2.5651,2.4918,2.3788,2.3393,2.2996,2.2866,2.2866,2.2866,2.2866,2.2866,2.2866,2.2866,2.2866,2.2866,2.2792,2.2559,2.2425,2.2325,2.2144,2.1984,2.2004,2.2031,2.2078,2.2138,2.2178,2.2211,2.2432,2.2352,2.2118,2.2078,2.1904,2.179,2.1777,2.173,2.1717,2.1637,2.143,2.1309,2.1203,2.1102,2.1102,2.1102,2.1102,2.1102,2.1102,2.1102,2.1102,2.1102,2.1102,2.1102,2.1102,2.1102,2.1102,2.1069,2.0895,2.0084,1.865,1.7799,1.693,1.5374,1.3729,1.291,1.1849,1.062,0.9927,0.992,0.9886,0.9819,0.9819,0.9829,0.9822,0.9819,0.9819,0.9819,0.9819,0.9819,0.9819,3.8574,3.8516,3.8174,3.7734,3.7285,3.6924,3.6475,3.6074,3.6025,3.6025,3.6025,3.6025,3.6025,3.6025,3.6025,3.6025,3.6025,3.6025,3.6025,3.6025,3.6025,3.6025,3.6025,3.6025,3.6025,3.6025,3.5957,3.5957,3.5665,3.4521,3.3619,3.2851,3.1305,2.9491,2.9183,2.886,2.8263,2.7336,2.6847,2.5912,2.4918,2.3856,2.3195,2.2866,2.2866,2.2866,2.2866,2.2866,2.2866,2.2866,2.2866,2.2866,2.2819,2.2659,2.2592,2.2478,2.2372,2.2238,2.2184,2.2218,2.2318,2.2405,2.2452,2.2572,2.2779,2.2712,2.2478,2.2345,2.2178,2.2078,2.2064,2.2038,2.2024,2.1911,2.1677,2.1541,2.1316,2.1149,2.1116,2.1116,2.1109,2.1109,2.1102,2.1102,2.1102,2.1102,2.1102,2.1102,2.1102,2.1102,2.1102,2.1102,2.1029,1.9992,1.8726,1.8094,1.7508,1.5676,1.407,1.3852,1.3184,1.1319,1.0194,1.0056,1.0008,0.992,0.9859,0.9788,0.9842,0.9836,0.9819,0.9819,0.9819,0.9819,0.9819,3.8574,3.8574,3.8476,3.8008,3.7344,3.7197,3.6738,3.6094,3.6025,3.6025,3.6025,3.6025,3.6025,3.6025,3.6025,3.6025,3.6025,3.6025,3.6025,3.6025,3.6025,3.6025,3.6025,3.6025,3.6025,3.6025,3.6025,3.6025,3.6025,3.5519,3.4649,3.3324,3.2874,3.1232,2.9647,2.9713,3.0088,2.9136,2.8098,2.723,2.5383,2.4256,2.3126,2.2866,2.2866,2.2866,2.2866,2.2866,2.2866,2.2866,2.2866,2.2866,2.2832,2.2779,2.2739,2.2699,2.2592,2.2592,2.2552,2.2552,2.2659,2.2672,2.2706,2.2732,2.2853,2.2846,2.2706,2.2706,2.2565,2.2472,2.2432,2.2358,2.2311,2.2044,2.1797,2.1722,2.1574,2.1303,2.1162,2.1149,2.1129,2.1116,2.1102,2.1102,2.1102,2.1102,2.1102,2.1102,2.1102,2.1102,2.1102,2.1102,2.1102,1.9998,1.882,1.8431,1.7718,1.5875,1.4533,1.4221,1.3278,1.1474,1.0538,1.0338,1.0131,0.997,0.9916,0.9954,0.9822,0.9876,0.9836,0.9819,0.9822,0.9819,0.9819]}]]